GFSSE_925_rhum_000.txt.gz
RH
61 65 82 95 80 83 88 80 81 79 71 64 74 79 89 87 80 76 79 77 64 68 75 84 83 90 92 93 93 87 77 69 77 84 72 64 58 67 83 82 63 80 81
59 66 87 91 81 93 92 81 78 76 66 70 71 79 74 72 72 68 73 75 70 70 76 80 84 84 89 91 89 85 75 78 78 82 72 61 61 62 73 81 77 79 95
57 75 79 80 72 80 84 80 75 75 71 79 73 65 67 70 69 64 72 76 67 71 79 80 78 82 80 88 78 75 71 79 71 74 62 59 58 66 78 74 73 82 91
54 70 82 80 72 73 78 75 78 83 80 77 73 71 66 71 69 66 66 68 72 76 82 83 80 80 82 79 82 84 82 75 74 76 70 60 60 80 77 80 80 80 85
48 65 78 66 65 76 70 64 74 84 78 76 77 69 75 80 89 83 67 66 70 71 73 85 84 80 78 83 82 85 84 77 76 73 74 61 61 70 84 82 80 80 76
47 62 74 70 72 74 72 72 68 69 72 83 78 66 79 90 91 88 73 66 68 76 74 85 87 88 89 85 82 77 80 84 81 71 67 69 60 62 74 82 85 83 82
47 68 73 74 77 65 71 75 69 69 70 73 72 68 86 92 79 84 83 73 71 71 73 78 78 83 89 94 88 89 81 61 52 58 63 63 69 63 66 75 83 83 83
49 63 67 79 73 64 71 67 67 68 71 70 70 66 84 82 86 83 88 82 80 70 81 77 77 81 87 93 97 95 93 77 68 68 66 61 61 71 70 71 80 82 82
52 58 70 66 65 68 72 76 76 72 74 72 82 72 70 66 71 74 77 75 71 69 67 75 82 81 78 86 89 88 86 73 69 63 63 66 63 68 72 75 75 78 81
53 57 61 72 77 70 67 70 70 74 76 78 78 77 69 55 62 67 68 72 75 78 66 53 60 83 88 73 75 63 62 67 71 66 68 61 59 65 67 73 78 77 76
56 57 58 62 73 76 76 74 70 70 72 74 76 71 72 58 66 72 73 71 67 57 53 56 60 66 68 70 65 66 69 70 72 72 69 63 57 61 63 68 75 79 79
54 58 59 60 65 66 65 74 78 75 76 72 75 74 69 60 62 67 66 67 72 74 75 74 75 75 75 71 71 68 66 68 71 73 67 65 65 69 69 71 75 79 84
44 53 58 61 63 68 69 69 71 69 71 68 66 66 68 68 67 69 70 70 74 77 75 75 75 75 72 72 72 73 72 70 68 67 67 67 67 72 74 77 79 83 86
36 44 55 60 65 68 71 73 69 67 67 66 66 66 67 68 68 70 71 72 73 74 75 74 75 73 71 72 70 71 70 71 70 70 70 70 70 70 75 78 80 84 87
35 40 48 58 66 72 73 76 72 68 67 68 69 71 72 73 74 75 76 75 75 77 77 74 74 73 68 66 68 65 65 68 69 68 69 69 71 72 72 75 81 83 84
35 41 44 50 62 72 77 76 76 73 69 70 72 74 77 78 79 78 75 78 77 73 70 69 65 62 62 62 60 60 62 63 62 61 64 65 65 66 67 69 74 83 84
37 38 40 47 54 65 73 77 75 75 75 74 75 73 74 77 80 75 77 67 60 61 54 52 43 42 43 43 44 47 52 58 55 54 57 59 59 58 61 63 63 65 74
39 45 49 46 51 61 71 73 71 72 74 73 73 77 78 76 70 61 48 44 40 41 41 41 42 42 44 44 44 42 42 39 45 47 44 44 50 50 50 57 65 59 63
41 50 53 52 54 62 69 69 69 69 70 62 52 49 46 46 43 40 39 39 39 41 42 42 40 42 39 40 42 37 38 42 34 40 43 36 31 34 37 41 41 40 50
47 53 57 60 63 68 67 68 62 50 46 44 42 39 38 37 36 37 38 38 37 39 38 36 34 32 34 35 34 37 31 33 28 38 36 32 37 31 36 38 36 46 41
50 55 58 61 63 65 66 51 51 49 46 42 38 35 34 33 33 29 31 32 31 34 32 31 29 32 34 33 37 36 33 33 34 27 24 38 26 33 30 26 37 32 33
54 57 58 57 56 55 52 51 49 47 44 39 37 36 31 26 23 24 23 27 26 28 27 28 28 33 36 34 37 40 56 34 32 34 38 29 35 26 28 24 24 18 28
49 50 54 56 52 52 50 47 44 42 38 40 40 36 32 25 20 21 23 26 25 27 29 28 30 34 40 36 32 37 55 59 41 36 34 34 24 31 26 25 26 29 24
47 47 47 47 48 48 47 45 39 37 39 39 37 33 30 26 24 22 24 27 27 28 27 28 31 32 37 40 36 31 32 35 47 46 35 33 28 29 28 33 29 36 31
46 44 42 40 37 35 34 34 36 39 37 35 31 26 24 24 23 20 24 24 26 24 23 24 26 30 33 37 37 35 35 32 31 43 48 37 33 32 34 34 38 30 29
47 43 42 41 41 39 38 38 37 37 35 30 26 23 20 22 22 21 20 20 24 24 24 25 25 27 28 30 29 31 35 37 38 40 43 38 40 35 36 33 35 28 32

GFSSE_925_rhum_003.txt.gz
RH
77 79 87 91 84 87 75 84 79 74 72 69 82 88 94 86 81 80 82 68 67 69 70 77 91 92 96 93 96 94 80 67 67 69 70 61 57 81 86 76 74 84 84
67 74 87 81 82 76 79 86 72 71 68 67 75 77 78 74 74 73 75 71 69 70 74 76 72 82 88 93 93 91 72 73 75 70 65 60 57 68 81 76 69 75 92
64 69 79 75 72 73 82 78 69 71 69 68 71 71 71 70 72 77 72 73 69 76 78 82 80 81 84 89 90 73 70 76 76 71 66 64 66 66 82 73 66 64 85
60 60 72 73 78 68 79 74 67 72 70 70 68 68 65 66 66 64 68 71 69 71 77 83 82 78 79 70 67 70 76 77 74 71 66 65 66 72 82 83 84 80 85
68 62 73 78 60 71 81 62 68 75 70 67 64 66 74 67 73 78 70 66 69 74 75 76 81 81 69 55 62 77 82 88 80 72 74 72 61 70 89 85 84 81 84
71 79 68 60 68 78 70 68 67 70 74 66 60 61 76 91 80 83 77 64 66 72 72 70 76 82 84 82 84 82 76 73 71 68 61 69 72 63 68 82 87 86 87
64 77 75 71 71 74 70 73 71 70 73 72 63 62 85 82 76 83 87 69 66 69 69 71 82 82 87 92 97 94 92 75 66 58 56 53 63 72 71 71 80 86 87
62 71 76 78 73 67 69 73 69 71 74 76 71 68 79 71 70 79 86 85 80 79 75 85 84 86 84 91 95 97 95 88 75 67 60 64 63 64 78 75 76 80 85
60 65 64 80 78 62 71 70 71 73 76 76 79 75 63 63 65 71 80 82 78 72 72 76 89 92 91 87 90 92 84 80 75 68 64 61 60 68 76 75 77 79 78
58 63 65 60 64 65 67 71 76 74 76 82 80 81 70 53 59 66 69 72 72 79 75 58 58 63 64 65 63 57 55 63 70 70 74 68 68 69 76 73 73 77 80
58 61 64 68 72 67 65 69 72 70 74 75 75 70 66 59 67 77 81 79 72 66 67 72 72 75 75 72 69 68 68 71 70 70 72 71 70 74 74 70 69 72 76
58 60 63 68 77 74 79 79 76 76 72 70 73 75 71 69 70 75 72 71 75 77 77 76 77 78 77 76 75 74 74 74 74 73 72 70 70 77 77 78 77 77 79
54 59 62 64 73 76 78 80 78 77 78 77 78 74 74 73 73 73 75 75 77 77 79 78 78 79 77 77 77 77 76 76 78 78 76 75 74 78 80 79 80 81 83
52 57 62 64 70 73 75 76 80 75 77 74 72 72 73 74 75 76 78 78 79 81 82 80 76 66 66 70 69 70 66 68 67 71 74 74 77 77 82 83 82 81 83
48 56 60 65 69 76 79 80 81 76 75 74 74 76 76 78 80 81 80 80 80 78 73 72 66 60 58 56 54 50 49 55 61 62 59 56 60 64 66 69 74 80 82
42 52 59 63 70 77 85 85 84 83 77 77 78 79 80 81 83 81 81 72 66 62 59 51 44 43 44 44 43 41 48 47 50 46 46 47 53 52 55 60 64 70 75
45 47 51 60 70 78 86 89 87 86 82 81 77 76 77 78 82 76 55 45 44 44 44 43 42 40 44 41 39 43 43 41 42 39 40 48 42 38 41 44 50 56 62
42 44 52 59 73 81 86 87 84 83 81 80 80 73 70 54 47 45 39 39 41 43 43 42 40 39 31 38 33 33 39 38 28 39 42 33 34 35 34 38 34 39 52
46 48 50 61 74 81 83 80 79 78 73 64 56 54 44 41 39 36 38 35 35 40 41 36 30 23 35 28 34 32 20 27 33 37 30 29 38 31 32 30 33 32 31
51 57 57 66 75 77 75 71 62 52 44 42 40 36 30 31 31 30 29 27 30 35 29 26 25 21 33 31 32 26 26 37 27 25 20 35 29 34 24 36 27 20 20
58 64 66 73 72 71 64 54 47 41 39 36 32 30 29 25 22 21 22 22 26 27 24 28 27 28 30 32 35 32 28 28 33 14 28 35 25 31 22 25 19 20 24
62 66 69 69 69 67 59 51 45 40 36 33 31 27 23 22 21 20 20 19 23 22 19 27 28 33 36 35 44 42 56 38 30 29 28 22 35 22 29 23 23 29 23
62 61 62 64 57 51 49 46 40 37 39 37 34 28 27 24 21 20 20 20 21 22 22 24 28 31 38 32 36 42 59 62 42 36 24 32 21 35 27 29 30 26 32
54 53 52 50 50 48 46 39 39 40 41 40 36 30 26 25 22 21 21 23 22 21 20 22 22 26 27 35 34 35 36 36 56 50 37 32 36 34 31 32 27 36 24
50 50 50 50 47 42 41 39 37 39 40 36 31 28 24 24 23 19 20 22 21 20 21 20 19 21 22 27 34 32 35 32 35 51 48 42 38 37 34 35 33 27 28
43 40 38 37 38 41 39 36 37 37 35 30 26 25 24 23 21 18 17 18 21 21 21 20 19 19 20 23 26 27 33 38 38 46 42 41 45 38 36 37 33 31 30

GFSSE_925_rhum_006.txt.gz
RH
74 80 87 81 78 81 78 85 82 70 70 83 84 88 90 87 87 84 83 74 74 74 72 78 86 90 95 95 97 90 82 72 69 66 60 61 71 87 86 82 81 77 84
63 82 87 84 85 76 80 93 70 68 67 74 79 82 86 75 75 78 77 74 71 74 74 77 80 84 85 94 94 92 92 71 72 70 67 61 56 76 86 81 77 74 93
63 83 84 79 72 81 95 96 71 69 68 73 72 72 76 70 73 78 76 71 78 71 76 80 73 71 84 85 89 88 85 76 75 69 68 64 67 67 86 84 70 64 79
59 79 82 74 72 84 90 75 71 71 72 73 75 67 71 68 64 64 68 69 69 70 74 69 78 66 70 72 79 75 68 81 77 74 64 67 65 74 81 85 89 83 80
56 68 71 74 76 84 82 74 67 71 74 73 68 69 71 76 71 79 68 62 66 72 74 67 70 79 83 66 65 65 81 85 74 72 69 73 68 68 84 84 84 85 83
60 68 72 78 78 80 79 67 68 72 77 76 65 69 77 72 72 81 77 60 64 72 69 70 78 86 88 91 92 90 87 83 84 69 67 62 72 71 70 81 88 87 86
68 68 75 73 70 83 72 70 73 85 83 72 76 72 75 73 68 76 71 66 69 72 70 73 87 88 86 90 94 96 95 92 87 80 72 64 60 67 81 76 75 82 85
68 79 75 70 71 76 72 74 73 75 77 78 76 82 86 69 64 74 86 85 79 83 80 91 92 95 93 89 90 92 90 88 88 82 75 72 65 65 80 77 81 79 80
68 81 80 80 76 72 70 73 70 75 78 78 77 74 70 67 64 69 86 89 86 78 78 79 75 70 73 74 70 65 66 66 67 69 72 74 74 69 85 82 80 79 80
70 73 76 81 80 72 71 70 73 78 77 81 82 80 72 57 61 68 70 74 73 75 68 58 65 70 75 75 73 70 69 69 70 70 71 70 70 70 90 87 82 79 78
76 68 67 69 81 65 70 70 78 77 77 80 78 73 65 53 63 76 75 73 69 71 72 75 77 78 78 78 78 77 75 73 74 76 75 75 74 74 90 86 82 81 79
75 72 66 64 63 67 68 68 76 74 77 75 74 74 71 68 69 72 73 73 75 78 79 79 80 80 77 75 74 76 69 68 76 72 70 78 80 82 91 87 83 84 86
56 65 69 67 70 75 76 79 76 80 76 76 76 76 76 74 73 75 76 77 78 80 82 83 80 77 74 76 73 68 63 63 67 68 68 69 65 68 87 88 85 86 87
56 59 64 68 72 78 81 83 82 80 82 79 80 76 76 76 76 78 81 78 81 85 84 81 71 55 55 54 52 49 46 49 52 67 70 63 49 51 79 70 69 73 77
43 54 62 67 73 80 80 82 83 78 82 75 76 76 76 78 81 81 85 84 76 68 60 52 51 50 46 44 43 40 44 45 44 44 41 41 44 45 49 72 76 76 78
33 49 60 67 75 78 79 81 81 78 74 77 78 79 80 81 84 87 65 54 50 47 46 46 44 41 40 39 34 35 38 38 38 33 44 38 37 36 41 56 57 70 78
41 50 62 68 74 79 84 85 86 75 74 74 74 76 82 76 80 58 54 47 44 44 43 42 38 33 26 28 28 26 25 29 28 41 38 28 40 31 31 32 47 46 51
48 58 64 70 79 83 88 87 88 80 82 81 77 74 67 65 55 51 38 38 40 40 38 34 25 19 28 20 23 24 17 28 34 29 16 32 31 34 27 34 28 26 34
48 54 63 72 83 86 91 90 86 85 81 73 65 56 49 44 38 32 31 27 27 29 25 20 18 22 29 22 24 23 17 38 34 15 18 36 19 33 26 26 18 19 28
48 50 60 79 87 89 89 83 74 71 59 55 49 46 38 31 28 22 22 22 23 21 18 20 17 16 31 28 31 19 23 38 31 19 26 16 33 32 26 26 19 17 28
58 59 73 89 88 85 72 57 50 43 41 36 30 29 24 22 23 23 22 21 22 19 21 23 19 21 28 30 39 30 25 22 32 18 31 17 32 17 26 23 29 26 28
68 71 87 82 75 75 68 59 51 40 34 30 27 23 23 24 23 22 20 20 20 17 17 20 23 25 31 31 41 52 61 41 28 24 30 25 31 32 31 25 30 32 27
75 80 80 73 71 71 63 51 40 34 31 27 25 25 23 24 23 22 20 20 19 18 18 21 21 24 28 25 33 40 60 63 43 35 25 33 25 36 27 37 32 35 33
72 74 75 70 68 61 53 43 36 38 37 32 29 27 25 24 22 20 20 19 18 19 19 20 19 19 20 28 29 33 31 40 56 53 36 34 34 34 36 38 34 37 33
64 67 69 64 56 50 46 36 33 38 39 37 30 26 25 24 21 18 17 18 19 19 19 18 17 18 20 24 27 29 30 34 34 58 48 45 35 34 38 35 35 36 31
58 57 58 54 51 48 41 36 37 38 37 35 30 25 24 23 20 19 18 18 18 18 17 17 18 19 21 22 24 26 32 42 39 41 43 44 40 36 36 36 36 32 36

GFSSE_925_rhum_012.txt.gz
RH
70 77 81 70 76 80 85 93 86 74 67 75 86 88 90 93 91 89 81 81 78 74 67 77 84 94 95 93 96 95 87 84 82 74 67 61 62 87 88 85 83 80 71
59 73 70 77 84 83 97 96 88 79 74 81 83 84 86 81 86 86 80 77 78 76 70 75 85 88 92 96 96 94 95 96 88 73 67 65 57 65 92 79 76 77 78
58 71 76 83 84 87 97 97 83 74 84 82 84 92 88 70 78 80 78 78 75 72 75 77 78 79 84 88 88 91 92 92 90 78 70 62 67 71 88 84 86 76 84
58 73 77 81 87 89 96 90 80 82 77 78 76 84 76 72 73 66 65 65 71 72 75 69 63 52 56 68 70 81 85 85 89 83 75 74 74 71 83 79 84 79 87
65 75 78 79 89 89 94 85 82 84 80 77 75 72 70 75 72 70 71 64 64 72 71 68 63 67 73 70 80 90 88 84 82 71 61 62 65 65 76 72 71 79 76
70 76 81 86 86 84 88 84 84 87 87 80 85 73 72 76 82 77 77 73 70 71 68 65 71 82 79 82 90 95 89 84 83 80 73 68 65 56 65 84 81 72 76
73 77 75 76 78 85 85 83 82 88 88 83 81 76 71 76 77 78 77 81 75 75 76 76 85 94 96 95 92 92 92 85 87 83 72 73 74 75 86 84 82 75 77
59 72 74 77 80 82 81 80 81 83 83 79 80 82 84 72 68 77 82 82 79 79 83 87 94 96 95 94 95 94 79 73 71 70 73 75 76 77 98 95 88 85 82
61 70 73 76 82 82 85 77 77 73 80 74 74 83 90 71 68 72 87 87 85 82 76 80 88 89 84 83 82 82 82 80 80 80 78 79 80 80 99 97 96 93 88
71 69 75 81 83 82 88 78 75 73 78 78 78 78 77 69 67 69 78 78 68 70 75 80 81 81 81 81 82 84 84 76 74 75 79 78 78 82 97 96 96 95 94
82 74 79 83 81 84 89 80 77 77 78 82 81 83 78 68 56 68 69 71 74 79 83 84 86 87 84 82 80 79 76 70 66 67 74 76 77 92 91 89 91 92 89
86 84 85 85 82 87 91 82 80 79 85 81 85 80 70 59 65 75 77 76 79 82 84 86 86 83 77 70 69 61 54 52 50 54 63 70 66 71 74 74 84 83 81
73 80 82 84 86 90 92 85 84 84 82 84 87 80 74 72 74 76 80 82 83 84 88 88 75 57 53 52 48 44 42 43 44 43 43 44 49 70 70 72 74 86 88
62 74 79 84 86 89 90 85 82 87 85 86 83 79 79 79 80 83 85 74 74 77 81 58 51 49 45 38 35 32 32 32 33 40 40 44 64 68 68 74 75 71 70
54 51 62 79 85 84 90 82 84 86 84 83 84 82 83 82 84 85 75 77 63 53 52 49 43 39 33 27 23 22 23 21 34 42 41 40 36 62 72 64 62 63 63
30 30 38 60 76 80 82 81 80 84 86 87 86 88 82 78 82 78 70 56 51 47 44 37 29 24 20 19 18 21 20 38 32 27 37 31 30 40 58 59 56 56 64
26 27 29 42 67 79 80 84 90 88 88 84 77 82 86 88 82 64 57 52 41 34 26 20 18 18 18 16 15 20 18 34 19 27 25 23 23 24 30 53 52 55 55
27 34 35 48 69 79 86 93 96 90 88 80 81 87 86 76 65 59 52 33 24 20 19 18 17 17 16 14 13 15 17 39 22 19 22 19 21 24 24 22 33 45 50
34 38 51 70 77 85 95 94 88 89 88 84 86 79 68 64 52 43 25 22 22 21 18 16 15 15 16 12 12 12 20 44 30 22 18 20 19 21 22 20 15 15 30
48 50 65 84 86 92 96 93 90 87 83 80 69 61 55 49 26 24 26 25 22 19 16 14 13 14 17 15 14 12 25 43 37 29 23 22 19 25 21 19 17 15 21
59 71 85 92 97 94 94 89 82 75 76 66 54 51 31 24 26 28 28 24 20 17 15 14 12 12 16 20 21 17 22 26 27 30 14 21 23 20 16 20 16 16 17
63 80 95 95 98 93 88 85 81 73 53 50 36 26 24 26 28 28 27 23 18 16 14 13 13 14 18 28 26 48 55 29 22 16 21 20 15 20 16 18 18 14 23
70 84 98 98 92 88 86 76 66 50 37 29 26 26 26 27 27 27 24 21 18 16 15 16 16 16 21 20 38 28 38 49 58 29 20 23 26 27 27 27 22 24 25
73 80 94 94 88 86 76 69 62 41 32 27 26 26 26 26 25 23 22 20 17 15 15 15 17 19 22 27 24 24 27 34 52 58 33 27 33 32 33 29 28 27 26
80 87 90 86 84 77 69 68 56 40 28 26 26 26 25 24 23 22 21 18 16 15 14 14 16 20 23 27 29 32 32 32 41 64 46 44 37 36 36 34 32 33 31
91 87 85 82 77 68 66 60 58 37 27 27 27 27 25 23 23 22 20 17 15 14 14 16 18 22 25 27 29 31 34 39 44 48 58 45 46 41 43 40 36 34 36

GFSSE_925_rhum_015.txt.gz
RH
70 74 80 71 81 82 86 82 81 75 75 73 84 89 96 95 94 87 83 83 78 75 73 81 75 96 91 89 94 96 88 84 84 76 63 62 57 76 89 80 83 78 79
64 76 82 71 78 87 94 90 77 78 77 78 84 86 90 85 83 87 82 79 81 73 74 79 84 90 96 99 98 97 96 94 86 78 68 57 62 66 84 77 74 76 76
65 78 77 79 85 89 98 88 77 79 78 72 83 89 86 71 72 80 80 79 71 81 79 78 80 75 76 79 83 88 91 91 84 79 76 65 65 70 90 72 78 72 75
65 73 76 84 86 90 96 90 77 77 83 78 87 89 71 78 68 65 64 65 71 78 67 73 66 63 61 70 68 69 80 82 86 75 74 60 68 69 84 77 70 72 75
66 74 77 86 85 91 97 89 79 79 79 79 78 81 69 72 64 74 72 75 74 75 63 70 67 71 78 76 82 93 92 88 77 74 66 59 55 51 64 81 81 77 76
66 76 80 84 89 89 90 86 86 85 82 79 79 74 73 78 78 78 77 76 74 73 68 68 77 90 88 88 92 95 94 85 87 87 79 76 75 68 70 76 75 77 70
67 82 88 84 89 87 86 88 85 91 89 82 84 73 72 80 81 79 80 80 73 74 76 78 94 96 95 96 95 94 87 80 86 84 74 73 75 77 97 94 87 84 82
59 81 85 86 85 86 88 85 79 83 83 79 80 80 81 78 69 76 79 82 81 79 80 85 91 93 90 87 90 86 82 80 84 80 79 80 81 80 99 92 89 92 87
60 74 81 91 87 86 83 80 76 73 79 74 65 77 85 77 69 80 83 84 86 81 75 78 87 88 88 88 89 88 85 85 79 75 75 77 78 77 100 94 96 96 95
63 71 76 79 88 90 95 84 75 69 80 75 76 69 78 76 70 70 88 89 74 75 80 85 88 88 86 84 82 84 83 78 71 70 74 79 75 82 94 95 94 95 92
78 71 78 80 86 86 88 90 77 74 75 75 81 81 78 71 61 66 69 74 78 81 85 87 88 85 82 78 76 73 66 59 55 56 61 68 73 85 82 77 78 88 85
87 79 81 84 89 89 90 93 81 76 80 82 84 83 69 59 57 72 76 78 81 83 85 87 86 77 63 58 56 53 49 47 46 45 46 51 56 71 74 73 75 88 85
71 84 80 90 92 88 90 92 86 80 85 86 84 84 72 73 74 75 82 84 85 85 90 88 64 55 53 49 43 38 36 35 35 40 42 48 67 70 71 79 81 78 77
63 66 70 85 96 88 92 93 86 84 84 83 84 80 77 77 80 83 85 74 72 74 66 56 52 47 40 34 28 25 24 23 31 39 47 50 59 76 77 72 71 70 77
56 55 65 75 86 87 94 93 90 84 86 84 84 77 82 81 84 86 74 73 60 54 52 47 41 33 25 20 19 21 20 27 35 39 42 37 66 69 68 67 64 71 71
37 39 48 61 78 85 90 93 89 85 87 86 83 82 84 78 86 78 72 58 52 47 39 29 23 20 18 16 18 21 20 31 29 34 33 30 32 47 65 63 63 64 61
28 29 30 36 58 81 88 91 86 84 86 85 85 90 87 81 85 73 57 53 45 29 20 18 18 18 16 14 15 17 20 23 27 25 26 23 22 24 34 51 51 54 55
28 28 29 34 45 81 91 91 86 89 89 90 82 82 88 89 77 59 51 38 22 20 20 18 17 16 14 13 14 15 17 27 22 22 20 17 17 20 20 18 17 30 45
30 30 35 50 62 87 91 90 92 95 94 87 86 89 86 72 64 53 34 23 22 22 19 16 14 13 13 13 15 17 19 42 26 22 21 21 19 20 20 17 15 13 15
32 40 48 69 87 99 95 100 100 98 92 91 90 80 68 56 45 31 25 26 23 21 17 14 12 13 14 13 12 18 33 46 36 32 26 17 22 21 19 17 17 18 11
44 56 72 98 100 99 100 97 93 88 86 84 73 62 49 32 27 28 29 26 22 20 15 13 13 14 18 13 20 25 23 24 37 29 27 18 21 20 20 26 23 24 27
55 75 99 100 100 99 95 86 87 82 70 66 47 40 28 26 29 30 28 25 20 17 15 14 13 15 22 24 27 37 29 22 24 22 21 25 21 25 18 19 22 23 26
66 93 99 100 99 95 90 83 79 72 54 45 31 27 27 28 28 28 26 23 19 16 15 14 13 13 28 27 24 22 24 25 31 31 25 31 26 30 27 33 32 29 32
64 90 100 99 93 90 87 81 80 58 44 36 28 27 27 27 26 26 24 21 18 16 15 14 15 15 19 32 30 31 29 33 28 28 31 27 32 30 35 35 32 34 32
67 80 100 94 87 87 82 80 67 48 41 30 28 28 27 25 24 24 22 19 17 15 14 14 16 18 21 30 35 37 38 37 44 43 30 28 31 34 38 37 38 37 36
76 83 98 87 81 82 80 73 64 55 35 29 29 28 26 24 23 22 20 18 16 15 14 14 18 22 24 26 28 32 37 32 30 34 32 32 37 36 40 40 38 37 40

GFSSE_925_rhum_018.txt.gz
RH
63 80 86 72 90 96 94 88 78 77 79 79 84 93 95 97 92 87 85 83 80 70 74 77 87 93 85 89 93 97 91 85 86 76 65 50 50 83 88 76 76 71 72
60 76 79 80 91 94 90 86 72 75 78 82 85 86 94 88 89 87 83 80 75 77 73 80 86 93 99 99 98 96 97 92 85 76 67 58 63 75 84 76 76 70 68
59 73 83 80 89 92 92 84 77 78 74 76 86 85 90 78 77 83 71 70 76 81 77 77 82 82 82 83 86 89 89 89 82 73 63 61 61 60 86 83 82 75 63
59 72 75 79 86 88 94 88 77 87 76 80 89 84 73 62 62 63 66 75 80 83 79 80 80 78 75 73 76 72 77 78 76 64 58 52 56 61 74 88 74 84 77
62 70 75 83 87 91 96 88 83 83 79 74 89 76 68 67 67 67 73 77 81 74 62 74 80 86 88 87 92 94 90 83 82 76 69 70 70 59 49 82 82 80 88
61 68 90 86 88 91 92 88 87 82 80 79 80 67 68 79 78 81 80 78 74 74 68 71 86 94 96 88 92 92 77 78 80 71 73 74 81 77 81 88 80 80 80
63 70 88 88 88 91 90 89 89 87 83 81 74 67 75 85 81 78 82 80 75 76 75 80 96 96 96 93 96 97 80 70 77 73 76 78 80 79 98 90 89 89 83
65 75 78 89 92 89 90 88 86 90 84 82 79 78 84 83 71 77 77 82 81 80 79 83 91 96 94 94 96 90 85 82 78 74 76 78 84 79 99 86 84 87 95
65 74 76 82 97 88 91 87 80 76 73 67 65 76 85 80 70 82 85 86 88 83 75 83 89 90 90 87 83 82 82 79 80 66 71 72 81 75 94 92 92 94 96
67 73 74 73 83 90 96 87 78 74 77 72 62 71 78 76 69 74 88 92 82 77 84 90 90 86 84 83 80 78 74 67 63 68 64 75 72 84 89 87 82 84 90
67 72 74 72 75 82 84 93 81 74 84 75 79 73 72 71 73 73 78 71 76 83 86 86 85 84 80 72 67 64 60 56 52 52 53 59 64 79 79 76 76 84 88
61 65 73 74 76 80 84 90 84 78 81 77 81 84 72 72 63 71 78 74 81 83 84 87 82 67 55 52 51 50 49 46 42 45 48 46 63 70 72 83 85 82 83
52 60 72 79 86 86 85 86 82 76 80 79 82 82 69 67 70 73 78 80 87 88 75 67 54 49 47 45 43 38 34 34 35 42 60 50 58 71 83 79 77 78 81
50 60 69 77 95 96 83 86 81 76 77 80 81 80 71 69 74 73 77 80 71 68 56 51 46 41 36 31 32 30 28 34 35 40 53 62 82 77 76 74 74 78 76
46 54 67 78 90 99 86 88 81 78 77 76 81 77 69 70 72 78 67 66 64 52 47 44 38 31 26 24 26 26 27 29 34 38 50 63 68 74 72 72 74 71 70
36 42 53 72 88 100 89 87 82 76 74 80 81 76 79 74 80 73 67 61 49 43 38 32 26 24 22 22 24 26 26 28 31 38 38 53 45 58 65 63 63 62 62
25 28 36 53 72 99 91 87 79 77 77 83 80 82 85 84 80 76 66 54 44 34 26 27 28 25 22 22 22 25 26 26 28 33 32 35 35 27 30 38 47 50 50
29 29 31 38 54 76 80 87 81 79 80 84 84 93 88 79 80 74 55 44 33 28 29 27 27 26 23 23 22 24 24 28 28 28 27 28 32 29 29 18 14 12 13
30 30 33 43 46 59 72 84 87 88 93 97 91 90 85 85 79 62 45 32 28 29 28 24 26 25 24 24 21 19 26 32 30 26 28 29 34 33 30 30 21 20 17
30 31 34 45 55 65 78 91 94 96 93 92 88 89 87 76 66 46 34 28 28 28 26 25 24 27 27 25 23 22 37 39 33 33 30 26 29 31 31 31 28 24 28
34 36 41 51 66 75 94 96 89 90 88 92 90 86 72 62 44 35 31 30 29 27 25 23 26 26 27 26 20 21 25 31 37 37 32 21 28 28 26 25 23 25 24
33 40 49 60 83 80 82 90 91 86 76 85 80 66 55 38 29 33 32 31 29 28 28 27 28 26 26 29 22 25 21 18 21 30 21 28 21 23 24 23 28 27 26
36 45 59 72 90 81 86 88 79 71 73 62 50 42 31 28 31 33 31 30 29 30 31 30 29 26 24 30 28 18 19 21 20 20 25 21 24 22 24 29 29 27 29
38 49 71 90 85 90 82 77 70 72 64 48 47 35 29 30 33 31 30 30 30 30 31 28 28 28 25 27 28 27 25 23 21 22 21 23 23 25 27 30 30 29 30
38 60 84 96 84 86 80 77 75 66 62 43 38 31 30 33 33 30 30 30 29 29 29 29 30 29 29 25 27 28 25 26 26 29 30 23 24 25 28 32 32 32 29
41 71 94 86 83 80 78 74 69 57 49 43 38 34 34 33 32 31 30 30 29 30 30 31 33 34 31 31 29 29 26 25 23 25 25 25 27 27 29 31 32 31 32

GFSSE_925_rhum_021.txt.gz
RH
51 84 86 92 96 96 96 92 80 70 68 73 90 96 98 95 91 87 87 83 74 72 73 85 93 90 89 91 96 97 94 95 88 78 62 48 43 68 87 84 82 74 76
52 82 80 89 94 97 96 90 87 77 78 83 84 92 95 95 90 88 79 81 77 76 73 81 87 89 98 97 98 98 96 94 84 70 55 64 65 61 85 81 75 78 59
54 75 88 85 91 92 96 90 76 76 73 84 85 90 95 88 86 82 77 72 81 75 76 78 84 84 83 84 84 85 88 87 84 58 54 58 54 57 75 88 84 75 77
52 70 77 86 87 90 98 86 83 78 79 88 90 87 79 83 80 72 75 79 85 77 77 79 81 83 84 82 86 82 79 68 59 55 59 49 50 52 48 86 87 82 85
51 61 73 79 86 91 97 90 83 84 72 91 84 79 69 65 65 67 76 78 81 69 73 80 87 88 86 82 88 91 87 82 71 76 63 67 73 71 61 77 78 82 88
50 57 81 80 86 89 92 88 87 80 77 88 83 72 76 80 77 79 80 80 75 74 67 75 87 95 91 88 93 86 78 76 71 65 66 67 73 76 79 93 90 82 81
49 59 89 82 89 91 90 85 83 81 81 80 80 75 76 89 84 80 85 80 76 77 73 84 96 94 96 94 97 95 79 73 81 66 65 68 72 76 91 87 81 84 92
48 58 80 93 90 89 89 86 83 84 81 84 83 81 87 81 72 73 79 82 82 85 89 93 95 95 94 94 92 85 81 76 77 66 65 65 70 76 94 90 95 94 96
49 58 68 91 95 88 84 88 85 85 75 74 77 78 89 79 69 83 88 87 89 82 79 89 90 90 88 80 78 75 73 70 68 62 64 63 73 70 90 85 88 85 88
51 56 59 71 93 95 98 86 80 78 72 60 61 74 76 76 68 82 83 90 88 74 83 87 84 83 81 78 72 68 65 59 55 52 51 64 56 80 84 81 78 82 89
51 54 54 58 74 77 86 91 80 78 76 75 66 62 61 72 71 70 90 74 71 79 82 83 82 78 68 58 56 56 54 49 47 42 43 51 52 73 74 80 90 86 87
49 52 55 55 62 71 78 88 82 80 90 83 80 76 67 58 60 64 75 67 77 81 82 84 78 58 51 51 49 46 41 37 35 38 49 48 64 68 86 85 81 90 84
43 47 54 57 58 63 74 84 76 66 74 67 67 69 58 57 63 69 76 75 82 83 71 63 53 49 48 44 40 34 30 31 31 35 54 48 75 78 82 79 84 83 81
37 44 52 58 62 64 73 77 75 63 66 64 68 68 59 56 62 61 64 74 72 63 56 53 48 42 37 29 27 27 25 29 29 33 56 71 81 81 78 79 79 77 77
34 40 49 57 65 74 68 74 75 69 61 66 66 67 59 56 59 60 66 62 58 52 49 46 41 32 24 23 21 24 22 25 27 32 51 65 71 76 75 75 72 70 70
31 35 44 53 60 70 70 71 70 71 61 63 70 69 59 58 60 65 62 57 51 47 41 35 26 23 22 22 21 23 22 23 27 33 37 47 52 53 56 62 59 57 55
23 27 34 46 57 66 72 69 70 68 61 64 75 70 65 64 74 67 58 53 45 37 30 27 27 26 23 22 21 22 22 23 26 30 32 35 39 31 22 19 18 20 27
24 24 24 32 47 62 83 67 67 63 61 70 78 71 73 76 70 67 64 51 38 32 30 28 27 25 24 24 23 21 24 26 25 27 27 28 32 28 30 28 18 14 14
23 25 26 29 36 45 69 67 67 70 70 74 79 80 81 74 73 73 61 46 33 31 30 23 26 26 26 26 22 18 22 27 27 25 26 29 32 34 34 31 27 24 25
21 25 26 29 34 37 51 61 75 77 77 86 87 84 80 78 77 68 48 34 32 31 28 26 26 28 28 26 24 22 33 35 30 29 28 28 28 31 31 32 28 25 26
21 24 26 27 36 40 48 67 86 87 90 89 81 80 80 79 66 48 36 32 30 29 28 26 28 29 30 28 23 24 25 26 35 33 35 27 23 28 26 25 24 28 27
26 27 28 28 38 48 57 82 88 89 85 77 74 78 79 71 54 37 34 32 32 31 31 31 31 30 31 30 24 24 28 23 23 24 24 22 24 22 23 24 29 29 28
27 27 28 31 42 54 69 88 88 83 72 67 70 69 65 55 38 34 34 33 34 34 36 34 33 30 28 31 29 21 26 29 21 18 23 23 23 23 24 26 29 29 30
24 30 32 38 52 62 71 85 83 78 74 67 66 57 43 35 33 35 35 34 35 35 36 32 32 31 27 30 29 26 26 24 25 28 20 23 22 24 24 26 28 30 30
22 30 38 47 65 66 76 81 79 77 73 62 51 40 34 34 33 33 34 34 34 34 32 33 33 31 29 25 26 29 23 26 25 28 35 27 24 24 26 27 30 30 30
22 33 46 59 71 74 82 76 77 74 58 58 44 40 38 35 34 33 34 34 33 34 35 34 34 34 31 30 29 28 26 26 25 26 29 30 30 29 27 29 29 30 29

GFSSE_925_rhum_024.txt.gz
RH
87 83 79 93 93 93 93 88 72 69 78 92 95 95 97 93 89 89 85 78 77 72 79 88 99 96 95 95 98 97 97 91 81 69 52 61 60 71 86 89 77 78 83
80 89 80 89 94 97 93 80 67 68 70 82 91 95 96 93 90 85 79 78 75 74 77 86 90 94 98 98 98 96 94 87 70 44 42 66 64 56 79 86 74 77 76
84 94 83 86 89 90 94 82 74 73 74 85 85 94 97 93 89 81 76 80 75 76 78 85 87 86 88 87 84 79 74 61 42 43 56 62 69 56 50 85 84 75 86
81 89 91 87 86 89 95 86 78 69 86 88 91 90 88 86 82 74 80 86 78 79 80 82 81 82 68 67 74 78 80 68 58 66 63 61 63 63 61 63 86 82 75
77 82 89 90 85 88 85 82 81 78 91 91 81 79 75 75 70 77 81 87 75 76 85 88 88 83 72 67 72 86 88 73 70 70 67 68 71 82 76 89 67 73 79
65 76 79 83 86 90 85 80 83 78 90 87 79 78 77 76 78 76 82 80 75 72 80 93 96 92 82 79 86 73 67 62 68 68 66 69 76 75 78 90 94 91 78
68 76 72 75 85 89 83 79 73 78 85 88 82 80 82 93 83 82 87 82 76 77 80 95 96 94 89 89 92 80 75 72 72 63 64 67 71 74 79 87 93 92 97
71 82 81 82 84 87 81 78 72 79 82 84 83 79 77 78 72 72 86 81 80 78 80 84 86 88 88 84 79 76 73 68 65 71 63 62 66 79 89 85 92 89 90
62 80 92 90 85 86 80 76 72 72 76 78 79 77 77 75 73 86 88 85 88 74 76 83 85 83 80 77 73 68 64 58 58 56 63 68 65 70 86 82 82 84 94
53 74 86 91 96 91 84 75 67 67 63 72 72 76 73 74 71 83 84 87 86 69 78 81 79 78 74 67 63 60 57 56 49 45 50 53 45 74 78 80 90 88 91
54 56 74 86 89 94 90 82 71 64 66 56 62 68 70 67 70 80 92 83 65 74 77 80 78 68 56 55 51 46 46 42 39 39 42 46 44 69 87 90 89 93 87
51 53 57 79 84 83 88 82 80 76 75 71 66 55 51 68 70 79 80 64 71 78 79 80 65 50 50 50 47 39 37 34 32 39 43 44 36 83 88 87 91 87 84
48 51 53 58 69 73 83 78 86 80 83 76 77 73 66 62 62 72 62 65 78 80 67 58 50 49 48 41 33 31 28 28 31 37 43 43 83 87 81 90 84 82 84
43 47 52 55 60 71 75 74 78 77 77 74 71 71 62 58 56 63 70 81 76 68 59 53 47 40 33 26 23 25 23 26 27 37 45 50 84 83 83 82 79 78 78
37 44 49 54 58 65 70 71 71 72 72 67 66 68 61 55 62 62 74 70 64 54 50 46 41 30 24 22 21 23 22 24 27 36 44 45 72 76 75 73 70 66 63
27 37 48 53 59 64 69 66 73 69 67 63 62 66 64 57 60 64 64 62 53 49 44 38 32 23 23 23 21 21 22 23 27 34 42 40 45 48 46 50 54 53 53
24 32 41 52 58 68 71 66 67 67 66 61 62 63 64 58 61 64 61 56 47 40 33 30 26 26 23 23 22 21 22 24 26 31 34 36 34 30 28 24 18 30 41
23 24 34 46 53 64 71 68 68 70 66 62 61 65 65 64 62 66 62 55 42 36 32 27 24 24 24 24 24 21 23 24 25 27 28 30 32 30 32 31 28 36 37
20 24 25 37 51 57 66 71 70 67 64 63 64 69 67 73 72 68 66 45 37 33 28 22 23 23 24 23 22 19 20 26 28 26 26 28 29 29 29 32 27 26 31
19 21 24 26 39 51 66 68 71 62 63 62 66 76 77 75 71 68 57 38 37 29 25 25 27 28 26 24 23 23 28 34 30 28 28 29 28 28 27 27 26 25 27
22 19 22 26 28 33 58 74 72 68 73 75 82 82 81 75 71 67 43 35 30 27 26 27 28 29 27 21 23 22 27 26 36 34 33 36 24 26 25 24 25 25 29
25 26 21 26 31 32 36 65 80 84 87 85 86 82 79 75 69 52 40 33 30 27 27 28 30 30 31 23 23 28 41 30 25 24 27 25 23 22 22 24 24 26 28
26 26 27 25 27 37 40 63 91 91 87 83 78 78 75 67 48 45 37 32 30 30 32 32 28 28 30 29 22 24 37 40 29 21 21 25 22 24 24 23 25 27 28
22 27 27 28 28 37 55 77 89 86 79 74 76 70 69 49 39 37 33 32 32 33 32 31 30 26 27 29 29 26 24 25 38 42 24 22 22 24 25 26 26 27 28
16 23 27 28 30 45 81 78 87 83 78 74 70 66 48 37 35 34 33 34 33 34 30 29 30 27 24 25 26 27 24 25 26 36 49 36 26 26 28 28 28 29 28
20 17 24 32 38 57 86 84 84 81 76 68 64 48 38 36 34 34 34 34 34 33 32 31 29 28 27 27 27 28 26 28 30 32 42 38 38 34 34 32 29 28 28

GFSSE_925_rhum_027.txt.gz
RH
91 82 80 95 87 83 88 88 87 92 92 94 96 97 95 94 92 86 81 78 74 80 85 97 94 97 92 98 97 88 73 69 63 40 45 61 70 77 85 82 81 77 80
83 82 82 93 92 94 89 77 68 69 78 95 95 95 94 92 86 78 78 75 76 78 85 93 97 99 98 98 97 84 74 61 34 49 61 68 68 77 73 76 73 84 76
80 84 87 86 83 84 78 66 68 69 82 88 94 93 94 93 84 81 75 75 76 80 85 90 90 94 90 85 82 66 47 36 48 62 65 63 70 75 77 78 83 81 81
78 83 90 84 84 73 68 66 64 68 87 88 89 98 95 85 77 80 85 78 80 81 83 85 85 69 63 63 69 68 60 63 68 69 66 65 71 79 73 72 82 81 82
79 86 90 85 84 78 76 73 63 91 91 90 88 90 87 82 81 84 90 85 84 87 90 91 88 69 62 65 73 75 64 67 72 70 71 71 73 81 82 82 73 63 68
82 87 89 86 82 80 80 77 65 82 95 86 72 73 73 74 79 86 87 74 68 76 93 96 95 78 69 69 68 64 62 62 69 67 71 70 74 78 80 85 93 93 88
86 82 87 84 81 81 76 77 67 86 91 84 83 81 82 88 87 87 86 78 72 68 85 89 95 82 82 82 78 74 70 69 70 72 72 65 66 73 87 90 93 94 94
81 82 81 80 80 83 76 71 66 78 95 84 87 90 89 77 76 84 87 80 79 71 78 84 81 80 82 78 74 69 66 67 70 74 65 67 69 78 86 86 87 88 96
78 80 81 82 80 84 75 69 61 59 88 84 81 78 74 71 70 88 86 82 80 61 75 78 79 78 76 73 66 63 60 59 59 67 67 64 59 77 83 84 89 96 94
79 78 81 88 86 89 80 72 65 58 66 78 73 70 72 70 83 87 84 83 76 63 75 76 76 74 63 56 52 54 52 45 44 50 48 49 55 70 81 93 91 93 89
83 76 80 91 92 92 82 76 69 58 63 68 71 70 72 69 79 84 82 82 63 71 76 78 73 61 58 55 48 46 40 38 35 42 42 42 49 91 89 96 92 89 91
85 85 76 85 91 93 86 80 74 64 60 63 70 69 68 70 76 77 87 72 64 76 79 80 57 51 50 48 43 34 33 29 32 42 43 43 71 89 94 93 89 85 88
56 76 84 79 82 88 90 80 76 68 67 63 54 52 53 72 82 78 78 63 76 79 67 53 51 50 45 33 28 29 25 27 31 39 42 47 91 83 90 86 84 85 84
53 55 70 80 79 88 87 79 72 71 76 74 74 67 62 72 73 75 64 67 79 77 61 56 46 39 30 26 22 23 23 26 28 41 46 47 85 86 84 80 77 75 73
51 52 55 65 78 87 79 74 73 74 74 74 75 76 70 63 61 61 70 83 73 63 55 50 42 30 24 22 21 22 22 25 30 41 45 48 69 76 75 69 64 61 60
42 50 52 55 64 74 74 72 75 73 73 74 75 75 64 56 58 64 78 73 60 52 49 44 37 25 23 22 21 21 22 24 28 36 40 39 45 43 45 54 53 52 52
26 42 50 53 58 64 70 63 66 69 73 73 70 67 67 58 62 68 69 63 54 49 47 39 27 25 22 22 22 22 22 23 27 36 36 36 33 29 30 39 43 45 46
23 27 47 53 57 63 68 66 63 65 68 72 62 63 64 59 60 66 65 59 51 44 38 30 25 23 22 22 20 20 22 24 26 30 32 32 32 30 30 30 30 36 39
20 21 41 51 54 58 63 70 69 68 66 68 63 61 64 61 63 64 64 59 50 42 34 24 20 21 21 21 20 20 20 25 27 26 27 28 29 28 28 26 25 24 26
18 19 21 45 54 57 63 68 71 69 72 67 66 60 63 65 61 64 66 58 45 39 28 23 24 26 24 21 22 24 28 31 29 28 28 29 30 29 26 25 25 24 24
19 19 20 28 53 64 72 80 74 76 73 66 65 60 67 68 64 69 64 53 40 35 26 25 28 29 26 21 20 24 32 33 35 32 32 33 33 26 24 24 24 24 24
24 24 24 24 40 58 66 74 75 76 82 66 70 72 69 70 68 68 62 48 37 29 26 28 30 30 29 21 22 34 39 30 26 28 29 32 24 23 23 24 24 26 27
22 23 24 25 27 52 64 80 79 84 88 86 80 75 76 75 73 68 50 48 34 28 27 30 31 30 30 26 20 23 36 39 32 24 25 26 23 25 26 26 27 27 28
20 20 24 24 26 32 42 76 75 86 90 85 84 81 79 78 73 58 41 38 31 28 32 32 30 30 29 28 28 23 22 23 34 32 26 24 25 26 25 24 26 29 30
20 18 18 27 24 30 44 51 78 89 88 85 80 78 75 72 51 39 38 33 30 32 33 33 31 27 26 25 26 25 24 26 28 38 46 36 26 24 26 30 28 26 30
33 31 22 20 28 32 48 59 81 85 86 84 78 72 64 51 42 37 36 32 33 33 32 33 32 29 25 24 24 25 25 27 31 33 45 44 41 35 35 30 30 32 31

GFSSE_925_rhum_030.txt.gz
RH
91 88 88 99 99 98 99 96 93 92 94 97 98 96 95 93 88 86 82 77 83 86 88 84 83 90 95 95 97 70 68 62 40 37 59 63 79 81 86 81 77 77 78
88 88 88 95 97 97 97 94 91 86 88 93 97 95 93 90 82 82 78 76 79 83 92 91 92 99 98 97 97 73 62 37 51 59 64 64 66 81 86 79 74 79 78
84 88 91 92 94 89 70 57 61 68 92 95 96 92 92 87 84 75 75 77 81 84 93 95 97 94 92 88 76 57 34 45 63 64 61 62 67 80 82 71 78 86 74
75 88 91 90 80 69 65 66 65 72 89 94 92 96 93 85 82 76 78 78 83 86 92 91 93 94 78 69 64 49 61 66 70 70 67 69 77 84 80 65 79 83 86
73 83 88 87 75 71 72 70 62 86 88 94 93 97 85 81 83 86 81 85 86 88 88 89 88 74 63 60 66 63 69 72 73 73 72 72 79 84 87 88 81 66 67
77 81 85 86 78 73 70 66 92 92 94 97 93 89 86 85 86 92 88 83 86 93 94 89 72 61 62 68 68 62 62 68 77 70 72 67 70 82 83 86 92 91 88
78 82 85 85 80 74 74 71 93 95 93 87 86 86 81 83 88 94 79 73 76 92 97 92 78 75 76 76 73 71 71 74 73 70 75 68 73 76 86 92 93 93 96
73 84 86 86 82 77 77 66 71 90 87 78 75 80 83 87 90 95 84 77 71 85 95 97 86 82 78 72 68 66 66 70 68 73 73 74 75 80 86 86 89 96 97
76 86 92 86 84 79 74 66 64 89 85 78 80 87 82 78 83 97 88 82 81 82 90 86 83 80 76 69 65 62 61 58 56 70 69 63 66 77 84 89 97 92 92
90 85 90 86 89 84 78 69 61 88 85 78 82 72 74 71 74 91 87 85 77 77 84 82 80 77 64 56 52 53 47 44 54 54 50 49 67 77 92 94 94 93 80
99 93 91 89 91 87 80 74 66 70 88 78 75 73 73 76 87 88 82 81 66 73 78 78 76 64 56 52 48 41 41 38 41 44 44 43 87 90 97 95 92 93 91
100 100 94 90 90 89 83 78 74 65 74 79 74 74 73 74 84 84 82 80 60 73 78 80 61 54 52 52 41 35 34 31 37 43 45 59 90 94 86 86 88 91 87
93 99 99 88 87 89 88 81 78 65 62 71 71 72 73 72 81 84 86 75 67 79 82 63 53 50 46 38 30 28 26 28 36 40 53 77 86 80 80 86 85 84 84
89 85 83 82 86 88 88 83 75 68 60 56 64 70 73 74 82 84 85 69 74 78 61 54 49 44 34 26 23 24 23 28 35 44 54 66 88 85 82 79 74 70 68
70 83 80 79 82 87 90 86 77 69 66 63 60 59 57 63 74 80 78 62 80 75 61 53 44 34 26 23 21 23 23 27 40 46 51 58 77 80 74 68 65 63 60
55 63 73 80 77 84 86 85 79 71 66 71 71 75 62 68 67 75 71 77 82 71 57 49 41 32 24 22 20 22 22 26 37 44 44 48 58 56 59 56 54 55 54
30 51 61 69 80 82 86 81 79 73 73 70 74 75 74 68 64 67 70 82 67 56 49 44 38 26 23 21 22 22 22 25 34 41 39 36 32 29 37 48 48 49 48
22 28 53 66 75 80 86 84 80 74 72 72 74 76 76 67 57 61 70 79 58 49 48 44 32 24 21 21 21 22 24 25 29 38 35 33 31 29 28 28 27 36 44
20 21 23 58 71 73 77 82 78 74 68 70 74 74 73 66 59 63 72 65 54 50 44 40 26 22 21 21 20 19 21 25 28 30 30 29 29 28 28 26 23 22 22
20 20 21 26 65 69 75 75 77 74 67 67 71 73 67 65 61 64 67 60 52 49 45 31 21 22 24 22 22 24 30 30 28 27 28 29 30 30 27 24 23 23 23
23 22 21 24 44 72 86 81 84 77 70 68 70 72 66 61 62 64 65 58 54 53 46 27 25 28 24 24 26 28 34 36 31 30 30 31 35 29 26 24 24 25 26
24 24 22 23 25 55 76 69 78 78 79 72 71 70 69 61 64 64 63 61 59 48 34 26 28 31 28 21 24 33 39 31 31 35 35 36 30 26 25 26 27 28 28
25 23 23 25 27 37 70 83 70 88 89 89 84 79 74 69 66 65 65 65 51 48 35 27 30 32 31 23 21 25 44 41 33 26 31 27 25 26 27 26 25 28 31
21 20 20 20 26 31 56 77 74 74 89 88 82 81 79 75 71 67 67 63 51 40 33 28 32 32 33 28 26 21 20 22 33 27 28 29 27 26 24 24 27 26 28
23 22 21 22 22 27 43 66 76 75 75 79 85 84 81 80 74 69 65 56 48 36 28 31 32 33 32 30 28 24 24 26 28 37 38 34 27 25 25 28 26 26 32
37 35 34 32 24 26 38 55 70 84 81 84 88 87 82 77 70 67 61 54 45 32 31 32 32 32 30 28 24 22 22 26 32 34 44 45 42 33 31 28 27 33 31

GFSSE_925_rhum_036.txt.gz
RH
81 83 79 89 87 82 88 90 91 91 91 93 100 99 94 88 84 81 87 90 88 90 86 88 90 94 91 95 96 94 73 52 54 57 58 73 83 89 90 90 78 81 86
77 82 77 76 84 89 89 89 87 88 89 98 95 94 94 87 81 83 82 87 92 83 85 87 92 88 97 97 96 83 57 56 58 58 59 69 82 83 84 71 84 74 78
82 80 79 80 82 85 89 88 86 89 92 95 94 81 90 88 81 80 80 83 84 84 93 98 98 99 94 88 77 68 65 60 61 61 63 73 79 79 75 78 88 78 60
79 81 80 83 83 86 89 87 84 88 92 97 85 86 89 83 79 80 82 82 84 78 88 95 87 90 83 80 83 88 80 71 70 72 70 76 86 92 84 70 67 74 79
83 83 84 83 85 88 90 90 88 88 90 94 92 93 90 79 80 82 86 86 92 94 96 92 81 71 62 84 93 92 80 75 74 72 71 76 89 89 89 93 88 75 66
88 86 85 86 87 92 90 83 86 88 86 83 93 95 88 82 82 85 87 91 95 96 92 78 64 58 67 82 92 82 73 75 74 71 70 76 94 92 91 94 98 92 94
90 90 89 89 88 82 80 76 85 94 95 95 97 93 90 89 85 86 80 83 83 89 83 74 69 73 83 95 88 74 74 74 72 71 72 79 87 85 86 92 96 98 99
87 90 90 88 73 71 71 64 80 88 91 91 92 93 93 92 94 77 61 68 84 96 96 96 95 90 90 88 76 72 72 72 72 75 78 80 82 86 82 95 96 94 94
89 90 90 81 70 70 69 69 86 89 91 95 92 91 92 91 95 91 74 64 79 90 90 91 87 85 82 73 66 65 63 66 71 71 70 66 77 83 95 97 94 91 90
88 85 89 80 74 71 70 62 83 85 87 91 89 88 87 89 87 90 82 76 79 86 87 86 88 80 72 58 56 53 53 61 62 56 51 61 82 94 96 96 93 88 84
99 90 87 82 74 73 72 67 72 88 82 75 81 82 82 86 89 90 88 81 75 81 84 88 86 72 59 50 46 43 45 46 46 44 53 82 94 93 93 96 92 87 81
98 99 98 88 81 80 78 74 63 87 84 77 74 79 82 80 80 84 94 84 77 82 83 84 85 66 58 51 44 38 37 36 39 45 77 79 95 89 90 74 87 83 82
94 96 100 94 95 86 84 80 67 74 85 80 74 77 76 77 82 91 96 90 86 84 88 88 73 58 52 51 43 36 30 32 40 51 88 76 90 83 81 79 84 82 79
92 95 98 99 99 92 88 83 73 64 78 82 74 75 77 78 89 96 95 90 88 80 88 84 58 52 45 36 28 24 25 32 45 76 88 87 88 85 81 76 73 71 70
92 92 95 98 98 100 95 88 80 72 66 66 74 74 75 77 80 87 89 90 86 78 86 76 54 47 37 30 24 22 24 34 45 59 77 86 84 80 75 72 66 63 65
97 94 96 98 98 99 100 94 86 78 70 64 63 78 79 78 77 79 85 90 87 76 84 61 53 44 33 28 23 22 24 38 49 52 61 74 72 72 67 62 60 58 62
68 84 99 98 100 98 100 96 92 84 77 70 64 61 74 78 78 76 80 88 85 77 78 65 51 38 33 27 22 22 24 34 46 49 50 54 59 52 58 55 56 56 57
30 62 73 90 99 100 100 96 91 90 85 78 72 62 57 68 73 76 76 85 84 79 84 62 47 39 31 24 22 22 24 32 42 46 43 37 34 35 37 41 47 45 47
27 26 43 64 76 89 99 99 87 91 89 86 82 72 62 58 61 63 65 76 85 80 86 65 46 39 30 23 23 24 25 28 39 44 40 34 32 31 30 30 23 22 27
29 29 27 30 49 63 86 100 100 100 95 93 88 79 71 71 71 68 66 74 83 84 75 56 43 38 28 22 22 22 27 28 33 42 39 35 32 31 30 27 24 24 24
27 28 29 28 27 53 100 99 100 98 100 98 92 86 78 77 75 79 77 77 80 82 73 50 40 37 26 25 26 33 37 34 32 38 40 35 32 33 31 27 24 24 25
26 26 26 28 29 33 85 94 99 99 100 91 81 85 83 83 82 79 83 77 77 77 64 48 46 35 25 26 27 36 46 39 36 34 32 33 33 34 32 27 26 26 26
28 26 26 28 28 29 56 80 100 98 98 100 100 93 84 86 84 82 81 82 66 77 68 54 50 43 31 28 24 30 50 48 42 34 39 39 39 37 32 27 27 26 25
28 26 26 26 28 29 35 85 94 93 97 98 91 78 73 85 85 84 83 84 71 75 63 60 51 45 36 29 27 27 26 28 43 36 34 33 33 31 29 28 27 27 26
31 30 30 26 24 23 29 62 80 94 92 86 88 89 93 89 86 85 85 82 72 73 68 60 51 44 33 30 27 26 25 25 23 33 37 38 32 30 29 29 29 29 28
40 41 41 34 28 26 26 34 68 86 91 90 84 90 90 96 94 89 85 82 77 70 67 62 56 50 34 32 30 28 25 26 30 31 40 41 37 31 31 31 32 31 31

GFSSE_925_rhum_039.txt.gz
RH
79 80 83 78 73 84 86 89 88 88 86 89 97 99 96 93 92 93 93 86 88 89 88 85 93 90 87 93 95 77 74 77 74 64 61 78 89 88 88 74 71 78 82
78 84 80 78 80 80 86 86 87 88 85 86 93 96 96 92 88 85 90 89 89 87 86 90 90 93 93 92 86 79 77 60 56 57 64 67 75 82 82 83 75 74 80
82 92 75 74 76 78 85 86 88 86 87 95 90 84 93 87 82 83 87 86 92 89 91 94 94 98 93 81 77 85 72 60 61 62 69 78 76 74 76 76 89 76 68
83 87 80 79 81 80 83 85 85 86 92 90 76 79 91 82 80 81 83 82 84 84 99 98 96 89 89 81 87 93 69 69 71 69 78 86 90 92 83 70 71 82 82
81 80 81 82 82 84 90 86 85 91 94 84 79 84 91 81 82 85 84 87 82 84 85 83 80 90 89 89 95 88 71 72 70 70 74 85 90 93 95 95 90 75 70
84 80 82 82 82 82 85 88 83 81 87 84 82 95 86 82 84 87 90 93 90 94 91 79 74 74 82 93 96 77 73 74 71 70 74 90 87 90 88 94 96 90 92
86 83 85 84 83 83 80 80 85 85 84 82 87 96 88 85 88 90 94 96 91 86 82 86 91 93 91 91 85 72 74 72 69 70 73 82 88 88 85 97 96 96 97
88 87 89 87 86 77 63 67 72 81 84 80 92 95 93 90 89 90 88 87 93 94 94 95 92 88 85 79 72 72 72 72 72 75 77 80 84 83 93 96 94 91 91
89 94 90 92 88 72 70 62 71 79 78 88 90 85 91 88 92 90 82 88 95 91 90 88 88 90 76 67 63 64 66 70 73 74 72 72 80 92 96 95 91 89 88
90 89 90 90 91 78 74 61 71 83 88 83 90 84 88 87 85 81 72 74 90 88 84 84 88 81 67 59 56 55 59 65 64 58 53 69 91 96 96 95 91 86 85
99 97 91 89 79 74 70 64 75 86 84 92 90 90 91 94 92 85 84 75 77 82 82 88 86 72 56 49 46 49 51 50 48 45 65 83 93 93 93 92 88 85 81
98 99 99 90 81 80 76 70 69 82 84 74 77 86 87 84 87 87 90 81 68 83 88 85 82 65 56 49 44 40 40 39 41 60 76 82 92 92 92 87 85 85 84
94 96 100 99 88 88 83 75 66 79 85 76 68 73 78 82 82 86 94 93 82 87 87 83 80 64 58 53 45 40 32 31 38 65 84 81 88 84 82 85 84 80 77
91 91 94 99 98 89 87 84 76 70 84 82 72 68 72 77 78 84 91 93 87 75 85 83 71 56 51 45 34 26 26 33 49 78 89 81 85 85 80 77 74 73 72
88 90 90 93 96 96 94 96 86 75 71 76 78 74 74 75 76 90 95 95 88 76 84 84 66 53 44 36 29 24 25 34 56 81 90 86 82 79 75 73 67 67 70
89 88 91 94 93 96 98 99 92 84 73 68 73 78 75 74 75 83 94 93 92 80 81 85 62 49 41 33 28 23 25 37 52 69 80 85 75 75 70 65 61 62 64
61 87 89 93 97 97 96 96 99 96 83 75 68 71 79 74 74 76 82 89 89 84 80 80 58 47 38 34 27 22 26 40 50 57 66 70 70 62 62 60 58 58 62
28 44 71 91 96 98 100 96 97 98 91 84 78 71 69 74 76 76 78 81 84 89 80 76 62 44 37 32 25 22 26 36 47 52 52 54 53 49 48 56 54 51 50
28 28 36 74 94 100 100 99 98 100 97 88 84 80 74 66 69 80 78 77 83 91 82 79 58 44 39 32 24 23 25 33 44 50 47 39 37 36 34 35 28 23 30
28 29 29 30 74 91 100 100 100 100 99 97 89 87 82 75 65 69 77 78 79 92 85 85 58 43 40 31 24 25 27 28 40 48 45 37 34 32 31 27 23 22 23
31 30 28 30 28 68 100 99 96 99 99 99 96 90 88 85 75 64 66 70 70 88 84 86 61 42 36 27 25 32 34 32 32 45 46 39 34 32 31 29 25 24 24
30 29 28 30 30 31 71 88 93 95 99 100 100 97 90 90 84 75 71 71 69 82 87 85 66 43 35 29 32 42 40 40 37 39 45 42 35 34 33 31 27 25 25
31 30 30 28 28 30 39 80 98 97 98 99 99 100 95 95 91 82 79 80 76 81 82 81 71 49 37 30 26 33 44 39 41 38 37 36 35 35 34 33 28 27 26
42 34 30 29 30 30 32 80 97 92 90 95 97 100 100 99 99 94 86 86 86 83 80 75 70 52 46 35 31 30 30 32 39 36 39 40 40 39 37 33 29 28 26
43 43 42 35 29 28 35 50 92 92 86 88 96 100 100 100 100 100 95 90 87 90 81 76 70 52 45 43 35 32 31 30 27 33 35 38 38 38 36 31 29 29 29
45 43 41 41 40 34 30 35 74 95 94 100 98 98 98 99 100 100 100 99 93 92 89 75 75 68 52 45 42 33 28 28 31 29 30 36 36 40 33 32 33 32 31

GFSSE_925_rhum_042.txt.gz
RH
72 77 76 73 71 76 80 85 87 87 86 87 95 98 98 96 97 96 79 73 88 88 86 88 93 89 84 90 88 87 87 76 70 66 76 86 87 85 79 63 68 68 86
69 76 81 72 73 84 85 87 86 86 82 86 95 97 96 92 89 92 85 92 92 88 86 88 91 93 90 90 84 87 80 61 60 63 63 57 68 81 89 74 69 73 86
70 75 84 79 72 80 83 86 87 86 82 80 83 90 94 89 84 88 87 94 88 88 90 87 93 96 89 83 87 86 68 58 59 65 69 60 62 74 70 80 87 75 80
70 73 76 78 76 82 85 86 87 86 82 84 83 86 88 83 82 85 84 96 93 99 98 98 94 90 81 86 90 84 67 68 64 71 65 66 66 89 89 69 67 78 77
72 68 71 75 75 82 82 84 83 86 84 82 79 87 83 81 83 84 84 94 93 95 99 97 95 89 88 93 94 80 71 71 69 70 73 77 79 90 94 89 94 66 68
69 66 77 80 80 81 83 84 87 91 80 78 78 83 82 83 86 86 93 83 84 80 85 85 79 73 87 96 92 73 73 70 71 67 73 77 76 85 94 96 95 93 94
67 66 78 80 85 87 87 84 88 86 82 81 82 88 83 85 88 92 92 86 83 82 86 89 90 92 90 90 75 71 72 69 68 69 70 70 78 83 94 96 90 97 99
70 70 76 82 83 82 85 84 85 87 84 79 88 92 86 88 92 94 94 88 88 93 95 95 92 90 88 76 73 72 72 72 71 71 72 69 79 87 95 94 90 90 96
73 71 78 84 87 84 67 63 65 81 84 74 81 87 90 86 87 90 87 93 96 94 90 86 91 83 73 66 63 66 69 72 67 69 64 62 79 95 96 92 87 90 88
76 72 68 71 78 77 82 67 60 64 80 83 87 79 86 86 78 77 74 85 85 84 81 89 85 74 64 59 58 59 65 64 62 62 56 64 89 96 96 92 88 87 86
81 73 69 69 71 71 72 79 75 81 83 84 90 84 88 77 86 79 80 71 83 84 80 90 83 69 53 51 52 54 55 53 49 51 58 83 94 95 93 88 87 84 86
92 76 72 71 71 74 75 77 75 75 83 86 88 88 74 68 70 75 84 72 77 83 86 91 79 63 51 47 49 45 49 50 46 55 63 87 94 93 90 89 86 86 85
88 91 87 80 75 76 77 74 72 72 72 70 74 73 68 70 81 85 86 88 78 90 89 90 80 62 53 45 46 48 48 46 45 56 75 85 91 87 87 87 83 80 78
86 88 93 95 94 84 77 79 70 74 76 71 67 67 67 71 75 73 76 81 75 76 76 78 67 56 51 44 42 41 42 45 49 56 77 84 86 84 80 78 76 75 76
82 85 86 92 98 96 85 79 76 74 80 75 76 70 68 68 72 75 76 86 76 73 72 71 62 49 42 36 36 39 40 46 53 57 66 84 79 78 77 74 70 71 74
70 78 85 89 94 93 94 99 85 79 74 78 78 77 78 68 70 76 81 91 83 79 73 68 60 48 40 36 33 38 40 45 51 57 60 80 78 75 74 68 64 67 67
43 55 68 78 87 96 98 97 99 91 81 77 78 78 78 75 72 76 75 83 84 82 77 71 58 46 38 35 34 37 42 46 51 56 58 60 73 69 66 64 62 62 66
26 34 45 62 76 86 94 96 98 99 97 86 81 82 80 77 75 74 76 76 78 82 82 69 57 47 41 37 35 34 40 49 50 52 57 56 55 52 56 62 59 57 54
26 26 30 45 60 69 77 94 98 96 99 94 89 87 84 82 81 75 73 75 78 82 82 71 58 50 44 40 36 33 36 43 50 52 51 53 53 48 43 54 46 35 40
28 28 27 30 43 57 65 89 98 98 100 100 93 86 87 85 85 83 74 75 77 82 82 72 60 51 46 42 32 31 34 38 47 49 47 45 46 48 44 49 40 35 23
30 32 32 32 33 40 54 84 99 100 100 100 99 98 88 88 87 88 81 76 75 79 80 73 62 53 46 41 37 38 36 36 38 46 48 42 44 43 43 45 35 32 29
26 28 30 32 34 35 41 58 79 87 96 97 100 99 98 91 90 89 86 84 75 79 78 77 65 56 49 43 39 39 38 35 35 38 46 44 40 41 39 39 35 35 36
30 32 32 33 34 36 37 46 62 74 81 85 96 100 99 98 92 91 89 89 82 81 78 80 68 61 53 46 40 41 44 43 36 37 41 45 41 40 38 38 37 37 36
46 51 47 39 36 36 41 42 53 65 74 72 73 84 96 99 99 98 94 89 94 85 80 81 74 67 59 49 45 42 39 35 36 40 38 41 40 38 39 40 37 38 38
52 55 53 49 44 38 39 41 47 60 64 64 69 78 80 92 97 100 99 98 96 93 84 82 80 74 62 54 49 43 39 36 33 33 37 38 40 40 38 39 38 38 39
49 52 52 47 45 47 46 41 44 48 62 64 70 77 82 88 99 100 100 99 99 99 95 88 83 79 68 60 53 46 38 36 30 28 29 34 36 38 42 40 40 39 40

GFSSE_925_rhum_045.txt.gz
RH
58 80 65 72 78 83 81 86 85 85 84 85 89 89 99 92 84 80 77 89 90 89 86 92 91 88 89 89 89 86 70 55 54 58 59 77 83 80 75 68 72 74 79
58 76 76 69 73 78 79 85 86 84 81 80 86 92 96 94 93 87 89 94 90 89 86 90 89 93 91 88 88 82 57 50 54 62 66 54 68 86 78 64 66 81 82
58 75 80 70 68 74 82 88 86 85 77 73 76 90 95 90 87 88 93 86 87 87 88 89 96 93 86 89 87 86 67 56 59 63 58 59 69 72 70 74 75 83 82
57 71 75 77 69 83 83 85 86 84 80 80 82 83 89 84 85 86 96 96 96 95 96 97 81 80 85 90 91 88 67 58 65 63 56 56 71 94 93 86 69 70 78
57 63 78 77 73 84 88 84 87 84 80 79 76 86 84 81 83 85 98 95 98 98 92 82 82 88 90 92 90 72 68 64 66 62 65 71 76 88 96 97 96 74 76
55 56 78 76 75 86 81 82 82 78 74 78 84 79 83 85 86 88 96 88 89 92 84 88 84 93 85 84 79 73 69 67 67 63 65 75 70 92 96 98 93 95 89
50 58 77 77 80 78 82 80 82 79 80 80 84 78 85 88 90 95 88 83 82 76 77 86 80 84 87 84 75 72 71 68 65 62 61 71 71 90 96 96 96 97 99
52 60 74 79 79 87 82 85 89 80 82 77 81 84 87 89 92 94 85 83 81 77 86 96 95 88 78 75 70 69 68 67 62 61 62 70 68 95 94 90 88 87 94
55 57 74 80 81 80 82 84 82 82 82 78 79 82 84 83 76 76 72 75 80 86 92 88 86 79 70 65 63 66 66 70 62 62 54 63 78 97 93 89 87 87 89
58 56 68 70 74 79 87 72 78 81 80 75 80 74 82 76 71 70 65 78 86 84 80 89 80 69 61 57 60 61 65 57 56 56 52 76 91 96 93 91 87 87 88
61 58 56 58 64 63 63 76 68 70 80 77 91 75 82 78 83 63 77 69 84 80 80 89 78 66 54 53 54 54 53 49 44 46 65 81 97 96 91 84 83 86 88
67 58 55 54 58 57 59 74 69 70 78 83 96 84 75 64 67 70 79 67 79 84 77 86 80 63 50 52 51 46 48 46 42 49 78 77 93 93 91 88 87 86 84
82 63 57 58 57 59 61 62 63 63 67 73 83 85 70 59 65 71 82 81 83 80 94 93 82 64 50 44 44 46 46 42 40 50 81 78 93 93 89 88 84 81 80
75 81 78 62 62 61 62 63 58 60 62 58 61 61 61 58 62 67 73 73 70 75 78 82 72 60 55 48 44 44 40 40 41 49 79 83 86 86 84 79 78 78 78
65 73 82 80 76 73 66 62 59 59 63 62 58 57 56 58 60 62 61 72 65 62 62 64 64 54 50 43 39 39 38 39 44 49 75 84 83 77 77 75 74 75 76
57 63 72 82 86 92 80 69 65 64 63 67 64 62 58 57 59 62 62 71 75 63 62 63 60 51 45 39 36 38 38 39 44 49 65 85 82 71 76 70 69 72 70
45 50 59 69 78 87 90 88 87 78 67 65 68 68 65 62 59 60 63 76 79 70 66 63 58 50 44 39 36 37 39 39 43 47 52 70 80 74 68 67 66 67 70
28 32 40 54 66 70 74 87 92 93 84 70 66 68 69 68 65 62 64 65 73 72 68 66 62 52 44 40 38 37 40 41 43 45 50 53 65 63 64 66 65 64 62
25 26 27 34 46 57 64 77 86 93 93 90 75 70 70 71 69 67 65 65 64 67 69 70 64 52 47 43 40 37 38 42 43 44 48 50 51 49 55 61 60 56 53
21 22 23 24 26 36 46 56 72 85 90 94 84 74 75 76 73 72 69 66 65 67 70 72 66 56 50 46 41 36 36 39 41 45 46 46 47 50 46 51 53 41 30
24 26 26 26 25 26 32 42 62 92 89 96 96 82 74 78 77 79 78 71 67 68 71 72 70 59 53 48 42 36 38 36 38 44 46 44 42 48 46 44 50 36 31
22 24 25 27 28 29 29 31 38 73 87 94 95 97 97 84 80 80 82 80 70 70 70 72 69 62 55 49 43 47 50 41 37 36 44 44 40 44 43 42 44 34 32
29 32 30 29 30 30 32 33 36 48 68 79 92 92 99 99 89 83 82 84 80 72 73 74 73 65 58 52 47 48 58 58 41 36 38 45 42 41 42 39 39 35 36
43 49 46 42 36 33 34 36 36 40 54 64 66 70 83 92 95 93 84 84 87 84 76 76 77 71 62 56 52 46 44 39 52 51 38 40 43 40 40 39 38 36 38
48 52 50 45 41 41 36 35 37 38 43 51 58 62 63 69 85 94 90 90 88 89 84 82 80 77 68 63 59 52 47 40 39 44 51 43 41 42 39 40 39 37 40
47 48 48 44 40 41 44 42 38 40 40 46 55 58 60 66 72 85 88 91 90 87 90 90 84 84 77 74 61 58 50 47 40 36 42 45 42 41 40 38 39 38 38

GFSSE_925_rhum_048.txt.gz
RH
77 66 72 72 77 80 79 83 85 85 83 84 87 91 95 88 82 79 86 86 91 87 89 94 91 94 91 92 90 80 55 49 46 49 44 72 88 85 88 78 82 76 91
74 65 74 76 76 81 81 83 84 81 77 70 73 83 98 89 86 86 94 93 90 88 90 91 94 89 90 91 88 76 50 48 61 61 58 45 67 89 78 67 71 81 84
77 78 69 74 78 82 82 86 84 79 71 74 75 80 95 88 88 92 84 87 88 90 88 96 93 89 91 90 87 74 50 60 65 66 67 72 85 80 74 70 75 87 82
74 81 74 69 71 76 80 85 83 79 75 74 77 83 88 85 87 96 97 97 94 92 97 89 78 89 91 90 87 63 52 64 63 67 76 82 83 97 97 90 69 84 90
72 74 83 72 72 81 82 82 84 81 78 77 73 84 84 85 86 99 98 96 99 100 90 72 75 89 90 92 80 63 60 65 65 65 63 67 72 96 96 98 91 90 86
64 75 76 72 76 85 83 82 80 75 77 76 77 76 84 85 88 96 92 92 93 86 74 74 75 82 81 80 73 65 65 66 64 63 67 66 63 95 97 97 97 98 97
68 76 76 75 79 85 81 77 71 74 74 77 80 84 88 88 92 94 88 84 82 75 74 88 85 82 76 69 67 66 64 66 63 62 67 65 73 92 93 97 95 90 93
67 76 76 78 76 78 75 78 79 82 74 74 81 87 90 93 96 95 84 84 77 71 81 92 92 74 67 66 64 66 63 66 64 62 65 59 85 95 91 90 87 86 92
60 72 77 77 76 78 79 84 89 76 76 74 78 77 84 82 87 88 81 77 74 75 86 85 76 69 64 61 62 63 63 65 63 60 70 63 91 94 93 90 87 88 93
55 70 77 78 77 78 79 81 84 86 82 75 76 76 64 66 69 68 68 68 74 81 80 82 73 64 58 55 57 58 59 57 57 52 56 62 92 94 94 89 84 86 89
56 65 71 77 78 78 80 73 73 83 85 78 81 74 76 62 53 52 74 63 79 80 83 81 74 62 54 52 52 51 52 49 46 52 64 72 97 94 91 86 84 84 88
60 56 62 62 66 66 66 69 57 60 73 77 86 76 73 78 67 67 66 72 81 85 80 84 78 62 50 48 47 46 48 47 42 63 70 74 95 94 91 89 88 88 86
74 63 54 54 58 58 59 67 68 70 70 76 78 71 72 71 70 74 72 66 66 82 81 77 80 64 49 51 46 46 48 43 40 54 71 66 91 93 91 88 85 83 82
78 72 61 56 56 57 60 66 65 67 70 79 72 72 70 68 65 70 76 75 59 70 80 83 78 66 55 48 44 47 46 40 40 57 66 68 90 91 88 82 81 81 81
72 74 75 66 61 59 61 62 60 60 63 61 75 76 75 64 60 67 68 70 71 71 70 77 80 68 58 54 44 44 39 40 43 55 72 71 83 82 80 77 78 80 80
59 68 76 72 74 69 68 65 62 58 59 62 60 58 60 59 59 62 65 72 69 68 64 68 69 64 54 48 40 39 39 38 43 51 69 73 80 78 75 76 74 77 75
53 59 67 75 79 81 79 76 72 66 64 64 66 63 59 58 58 61 62 65 72 65 69 62 63 62 52 45 38 37 38 39 41 48 64 68 73 78 69 71 70 73 73
32 39 57 65 74 80 86 82 81 79 76 72 66 68 67 63 59 60 61 65 71 68 68 66 64 59 51 44 39 36 38 40 41 44 53 68 66 70 72 69 68 70 71
25 26 27 31 60 70 74 78 80 81 85 80 76 67 66 68 67 64 62 64 70 70 69 71 66 63 54 45 40 38 38 41 41 44 47 54 64 60 57 62 64 66 66
21 23 25 26 27 35 47 66 74 79 82 84 86 79 74 69 71 70 67 65 66 74 72 71 70 67 57 48 43 40 38 39 43 43 44 49 52 54 54 50 55 54 51
24 24 25 25 25 25 27 32 57 80 87 86 79 86 84 77 70 74 75 70 67 66 66 70 72 68 59 51 45 40 38 36 40 42 45 46 48 49 49 51 48 50 43
22 23 25 26 26 27 27 27 31 53 66 75 81 79 90 87 79 74 76 78 75 69 68 70 73 73 63 54 46 40 60 46 38 37 44 46 45 45 46 46 47 43 36
40 38 34 30 28 29 30 32 32 32 38 85 90 86 82 87 88 89 83 81 85 80 72 71 74 75 68 57 49 49 76 72 49 39 37 46 46 42 43 44 46 46 35
47 50 50 45 43 36 30 32 34 38 40 47 73 78 83 83 81 81 78 84 84 82 82 78 76 79 72 62 54 47 53 48 60 54 38 38 46 43 42 43 42 43 36
48 50 51 47 42 41 43 36 35 38 38 38 41 56 66 72 75 77 84 76 80 87 87 84 83 81 79 69 63 52 53 51 41 58 64 46 41 45 42 42 39 39 36
49 50 48 44 43 42 42 44 44 39 39 40 42 47 54 59 62 67 78 87 77 78 89 93 90 85 87 78 67 64 59 59 50 47 71 59 48 45 44 41 40 38 37

GFSSE_925_rhum_051.txt.gz
RH
78 70 74 80 79 78 78 82 84 86 83 86 86 92 98 94 81 84 88 91 89 90 96 94 91 91 93 91 82 56 47 56 53 42 53 82 90 91 91 90 76 91 97
72 76 76 83 77 77 86 81 78 80 76 75 72 84 98 96 85 91 93 89 91 96 92 91 90 92 93 88 71 45 57 61 63 65 62 57 70 84 83 80 77 88 92
70 75 76 78 79 80 78 80 77 71 69 74 75 80 94 90 87 81 90 91 95 94 97 92 92 91 90 85 51 50 65 69 70 70 91 90 83 85 77 78 92 88 82
66 77 82 80 78 81 81 83 74 74 72 75 76 81 88 86 97 98 96 93 95 98 92 82 88 88 88 73 49 57 67 70 77 68 82 80 83 96 94 82 90 94 85
62 74 77 80 77 79 83 79 77 74 76 73 71 80 86 89 98 97 98 92 97 94 73 76 88 89 81 63 55 65 66 66 70 72 70 64 77 97 98 95 96 94 98
77 74 73 73 76 82 82 79 78 76 74 74 69 82 86 90 98 98 98 99 99 83 74 76 82 72 70 66 59 66 65 66 64 64 63 61 85 96 98 99 96 99 99
79 76 74 80 84 82 80 78 75 77 74 78 74 87 88 92 96 91 86 86 82 74 60 58 64 66 65 65 61 66 65 66 75 68 67 62 89 90 89 96 90 86 96
78 77 73 77 87 83 78 77 76 75 73 77 79 91 91 93 95 87 81 81 76 66 58 62 62 59 60 59 60 64 67 69 70 66 64 57 92 92 92 90 92 94 92
76 77 76 75 78 78 73 78 81 72 72 74 74 83 91 93 96 89 80 81 72 69 75 77 67 63 60 58 58 56 68 64 63 60 67 72 92 92 93 90 89 90 92
72 73 77 76 77 76 77 87 85 80 74 74 75 67 54 54 75 85 77 70 62 73 77 74 69 61 53 52 53 59 61 60 56 57 61 76 94 90 92 87 85 87 90
74 71 70 78 78 78 77 80 81 81 82 78 75 72 68 50 50 53 57 60 78 77 75 77 67 57 51 51 51 52 52 50 50 53 62 72 95 94 90 87 85 88 88
74 75 70 74 75 74 75 74 77 82 84 81 78 74 70 58 46 50 64 60 72 78 83 80 72 58 49 48 48 48 48 46 48 54 70 74 93 95 92 88 89 88 88
71 74 73 72 73 76 70 66 54 59 71 77 82 78 71 71 73 69 62 69 72 82 79 78 76 62 49 48 47 46 48 45 44 57 67 71 85 93 91 88 86 86 86
70 70 69 69 67 65 64 68 62 59 53 67 77 78 73 75 80 75 70 68 61 67 77 73 71 71 51 50 48 46 48 46 41 55 62 63 73 94 88 84 84 84 83
63 67 68 68 61 59 61 63 65 65 69 69 74 73 72 73 76 74 72 72 70 55 57 62 76 73 58 55 48 46 47 41 41 53 63 68 74 83 86 81 83 82 82
70 59 63 67 63 62 62 62 64 66 65 69 73 74 72 69 73 68 70 72 70 69 66 67 72 75 69 59 54 45 42 40 41 55 67 71 74 78 80 78 81 82 81
66 65 61 58 66 67 69 69 63 63 62 63 62 64 69 73 68 62 68 70 71 71 70 67 72 77 68 57 50 42 40 39 39 47 67 66 73 76 76 76 77 80 78
52 60 64 67 62 63 64 68 70 76 74 70 62 64 63 60 59 59 60 62 64 72 70 71 67 69 66 60 49 43 38 39 40 43 59 66 67 69 73 69 74 77 76
25 32 55 73 72 71 73 66 67 68 72 76 74 68 66 66 68 61 59 61 63 68 71 68 69 66 63 57 48 41 37 37 40 43 49 60 67 64 65 67 65 73 76
24 26 26 28 58 63 70 78 80 77 67 65 70 75 76 72 68 69 65 61 62 66 72 72 69 72 65 59 49 42 39 38 40 41 45 52 59 63 59 59 62 62 71
23 24 25 26 26 32 58 74 81 83 82 80 67 68 68 72 75 68 72 70 67 64 66 72 71 76 68 64 51 45 42 40 39 41 43 48 53 58 59 56 53 56 58
29 26 25 27 27 28 29 31 38 62 78 74 75 73 75 69 65 82 80 69 73 70 68 68 76 79 72 66 54 48 53 45 38 39 42 44 49 52 53 54 52 49 51
40 40 37 34 30 28 29 30 32 35 41 57 73 85 84 86 82 68 64 75 80 80 75 72 73 80 79 72 60 53 79 70 56 40 38 42 46 48 51 50 52 52 48
45 44 46 46 42 39 37 32 30 33 37 38 51 82 84 75 75 79 77 70 69 71 87 82 79 82 85 80 66 54 52 53 65 60 44 40 46 48 48 49 48 48 47
48 49 49 47 43 43 44 44 42 37 36 38 40 40 44 50 76 73 76 78 76 70 74 84 81 89 89 88 79 65 63 62 49 62 67 59 43 48 49 45 46 46 48
52 51 50 48 48 48 47 45 46 48 46 44 42 41 41 44 57 71 66 68 72 81 76 79 82 93 95 94 88 77 64 61 66 59 84 79 69 53 53 47 54 51 46

GFSSE_925_rhum_054.txt.gz
RH
86 74 81 84 84 85 87 91 89 87 85 85 88 96 97 84 85 78 87 90 93 96 94 91 92 94 93 86 78 78 82 75 70 59 75 90 92 88 88 88 94 98 97
78 70 81 83 89 84 84 84 82 82 82 76 77 77 98 90 93 94 90 95 94 89 90 90 90 93 90 83 81 86 69 67 73 81 66 64 79 84 82 84 90 95 92
72 77 82 82 81 83 80 80 78 78 73 71 71 81 95 78 88 93 94 96 98 93 94 93 91 91 86 71 72 69 69 70 75 88 90 88 86 87 88 91 88 83 83
77 82 82 81 82 79 79 78 74 71 73 73 77 82 83 89 99 92 95 95 98 97 93 91 90 89 59 54 73 72 76 75 74 83 82 87 92 96 88 96 95 95 89
77 80 79 82 84 81 77 75 73 73 74 75 74 76 85 94 93 90 93 92 95 83 72 61 77 59 52 52 68 71 74 74 74 74 68 67 88 98 94 97 93 94 94
79 83 83 80 81 82 78 77 74 75 75 66 69 83 93 94 88 90 87 94 98 75 68 50 57 60 57 59 67 68 70 69 73 68 63 72 94 98 99 96 98 99 97
80 81 85 81 79 80 78 79 76 73 69 72 84 88 95 98 99 100 95 94 80 76 62 46 55 60 58 60 66 67 69 71 69 67 66 66 89 92 89 94 86 95 99
73 74 75 78 80 80 80 79 77 74 72 74 87 91 93 97 99 86 84 80 78 68 51 52 53 55 57 57 65 66 70 70 71 66 63 78 90 88 92 95 89 93 93
75 75 71 83 80 79 80 79 82 77 72 73 64 86 91 95 96 88 81 79 75 62 48 54 54 55 55 56 61 68 68 68 67 66 66 86 88 86 92 93 92 90 91
78 75 73 80 76 75 75 78 82 78 74 71 63 42 47 60 88 92 84 87 79 67 65 64 61 57 53 54 56 65 63 63 62 62 62 83 95 89 90 88 89 90 91
82 78 78 77 75 76 76 82 86 83 77 75 72 65 44 40 55 69 72 71 69 88 82 72 66 58 52 52 54 66 59 55 57 58 64 82 95 94 90 88 88 89 89
83 81 78 77 78 79 78 88 85 84 82 79 75 72 68 46 42 48 54 54 66 85 79 77 70 61 53 51 52 57 53 49 48 58 67 80 95 95 93 89 92 89 90
76 76 77 76 78 80 78 78 78 81 84 83 78 75 74 67 49 50 56 57 66 70 82 87 81 66 51 48 49 49 50 49 47 63 70 75 84 94 92 90 89 89 88
80 78 77 77 75 74 73 68 64 66 77 84 77 78 76 74 70 70 62 66 61 59 68 68 73 73 57 50 49 47 48 48 46 60 67 68 72 88 91 88 87 86 87
76 77 77 77 77 74 71 66 66 61 54 56 63 75 81 76 75 75 74 71 69 66 60 63 68 68 74 54 50 46 46 48 46 46 64 71 68 76 86 86 85 85 85
64 68 74 71 75 76 75 66 65 65 64 60 56 70 74 79 77 78 76 73 72 72 66 52 55 66 72 62 56 52 47 47 42 42 56 70 73 75 79 84 84 84 83
64 63 66 69 68 68 66 66 65 65 66 67 69 70 74 75 74 74 74 73 71 71 70 69 67 70 78 75 67 58 50 44 41 40 52 65 73 78 76 83 83 84 84
64 64 60 61 67 66 66 66 66 67 71 69 69 69 68 69 74 74 75 71 72 73 73 72 71 70 75 80 76 58 51 42 40 40 45 66 72 74 77 75 79 81 82
35 62 65 62 63 66 68 70 71 68 71 77 72 69 67 65 64 64 63 63 65 68 70 74 72 72 72 77 69 57 52 44 39 39 41 60 70 70 70 69 69 72 81
24 30 50 70 69 68 68 68 70 72 72 73 77 76 69 68 68 64 65 65 61 63 66 69 74 74 75 70 67 61 52 44 39 38 40 44 61 70 69 66 67 67 74
25 27 28 31 49 72 82 83 84 79 71 69 67 65 67 68 70 74 72 69 68 64 64 66 73 75 76 77 70 58 48 43 40 39 40 42 46 61 70 67 65 63 66
32 29 30 32 30 31 39 58 73 82 84 79 66 66 70 68 65 66 66 67 74 75 70 68 73 79 82 84 71 60 60 53 44 43 41 42 43 47 64 70 66 60 58
40 38 35 33 34 35 33 31 32 35 42 51 51 55 58 71 79 77 74 72 72 80 83 78 75 76 88 86 83 71 75 74 60 44 42 42 44 45 50 63 66 62 56
46 46 46 46 42 42 42 39 35 33 37 36 39 41 53 78 88 93 92 82 74 77 81 72 71 84 86 94 90 76 72 61 70 75 48 43 42 48 49 55 63 63 59
50 49 48 46 46 46 45 45 46 46 45 41 39 39 40 40 42 44 70 85 82 72 70 71 80 90 93 97 95 84 75 74 65 74 75 62 52 42 45 51 54 56 57
53 52 51 50 52 52 50 49 49 50 51 51 51 51 49 47 45 51 61 70 79 80 72 75 73 82 89 92 100 97 88 76 75 83 88 86 71 56 46 49 55 55 55

GFSSE_925_rhum_057.txt.gz
RH
88 78 82 87 77 81 85 90 91 81 81 87 89 85 83 80 74 82 87 88 86 94 92 92 93 94 90 85 86 84 79 65 64 65 84 88 90 87 95 96 95 97 97
84 83 82 87 85 86 85 85 83 82 84 81 90 88 90 91 94 87 95 96 92 91 90 89 92 93 87 87 87 72 72 77 79 67 63 70 78 83 87 87 93 97 96
80 86 82 84 81 81 84 80 82 83 79 81 77 80 83 94 94 92 96 96 93 95 94 89 91 90 84 91 88 78 74 81 81 82 88 89 82 90 86 63 72 77 84
73 86 84 83 81 82 76 78 82 81 80 75 73 76 59 86 94 97 95 96 93 97 91 86 91 88 83 82 78 76 72 72 76 76 84 95 97 92 97 98 98 90 86
75 82 83 82 82 77 78 82 78 74 70 74 74 57 94 91 88 96 93 97 90 74 56 53 53 61 71 73 78 75 73 70 73 70 72 86 96 91 97 90 93 96 92
81 81 77 82 78 78 80 79 73 71 77 72 74 73 90 92 95 95 90 86 80 71 48 36 48 50 60 73 76 73 68 72 70 66 67 83 93 92 98 95 94 98 97
84 81 77 78 78 82 79 78 74 74 66 58 81 90 92 94 90 90 91 96 78 76 46 39 54 53 58 70 72 72 71 71 69 69 67 74 94 95 96 97 83 90 98
84 82 78 79 77 83 82 79 76 70 64 51 67 94 92 94 97 99 93 86 82 75 48 44 56 56 58 67 69 70 70 73 71 68 62 70 83 90 95 82 79 88 86
84 82 82 77 77 83 82 79 75 71 66 60 39 75 92 94 96 99 96 89 85 75 65 69 62 58 58 62 67 71 70 70 69 66 70 84 84 87 95 96 89 89 89
78 76 75 76 78 82 83 78 79 77 73 66 52 71 80 80 74 90 90 92 89 82 80 74 67 63 60 60 64 70 67 70 67 67 73 83 94 89 92 91 91 91 92
85 77 76 83 83 77 77 78 83 84 77 72 63 56 68 66 65 60 62 74 75 66 73 68 68 63 57 56 62 70 65 63 64 65 69 81 94 94 92 90 92 90 90
91 83 79 84 83 75 77 79 87 87 81 78 73 66 48 43 56 66 69 69 60 64 76 72 72 64 55 53 56 65 65 56 55 61 69 82 96 97 94 89 92 90 91
83 85 84 83 80 77 79 82 90 88 85 82 79 73 68 52 47 53 60 60 60 68 73 80 76 66 53 48 50 53 57 52 48 55 68 83 92 96 95 92 90 90 90
83 81 83 82 79 79 80 81 88 90 88 86 81 78 76 71 60 46 45 51 52 59 65 73 76 73 65 50 48 47 49 50 49 48 61 78 82 94 94 91 90 89 89
80 78 77 81 80 80 81 80 80 80 83 81 81 78 77 78 72 63 66 60 61 64 65 65 66 67 67 64 50 48 47 48 49 48 52 70 78 80 90 92 89 87 88
78 78 76 77 77 78 79 75 70 68 65 66 67 65 70 80 78 76 74 73 72 72 71 69 64 56 59 71 72 54 49 46 48 49 46 60 74 80 81 89 89 88 86
76 77 78 74 74 76 74 73 69 67 66 63 61 56 62 74 78 79 76 76 73 70 72 74 70 64 66 72 79 63 60 57 51 46 42 47 62 77 82 85 89 88 86
66 70 70 75 69 74 77 73 70 69 68 67 67 67 68 73 77 79 80 77 74 72 72 76 75 73 72 73 78 80 75 64 54 46 42 42 54 67 76 79 79 87 87
63 63 68 71 74 72 70 70 68 70 70 70 70 69 68 70 73 78 78 75 75 77 74 75 78 77 76 75 74 75 80 76 58 49 42 41 44 59 71 73 75 75 80
33 47 64 71 74 77 76 75 75 76 75 78 80 78 72 69 69 71 75 75 76 74 70 75 78 76 77 76 78 77 76 75 58 48 45 41 40 46 63 72 73 73 72
27 31 37 51 67 76 81 84 84 81 80 79 80 80 83 84 82 77 72 70 69 70 71 70 72 74 79 82 85 80 77 71 62 52 45 41 40 42 53 68 75 74 70
33 33 32 32 37 47 68 82 85 84 81 81 81 81 81 82 81 87 82 69 70 73 74 74 74 84 83 84 89 77 78 69 60 58 49 44 42 42 45 54 69 75 72
38 36 34 34 33 32 32 36 44 49 50 60 66 66 67 68 73 82 85 82 79 79 78 77 82 84 92 88 91 87 82 81 72 56 54 51 49 45 45 50 59 74 76
42 45 47 45 42 41 39 36 33 32 33 34 36 36 36 42 50 68 87 94 93 80 91 85 83 87 90 99 97 94 86 78 79 85 57 49 46 46 46 46 50 59 74
51 48 47 48 48 48 47 46 46 47 46 44 42 39 38 36 39 44 47 50 74 92 91 87 81 79 86 94 99 97 92 93 86 82 85 75 61 56 53 49 50 55 57
56 52 51 51 53 53 53 53 53 52 52 53 54 53 54 55 51 51 54 60 61 74 87 86 88 87 84 87 99 99 95 89 90 90 91 82 83 73 72 69 59 54 67

GFSSE_925_rhum_060.txt.gz
RH
82 84 78 90 87 90 93 96 98 97 91 93 80 76 74 65 62 68 89 86 96 93 91 92 91 92 88 88 85 84 83 64 59 65 72 85 86 97 99 95 93 96 96
78 83 81 87 91 92 91 90 84 82 82 83 82 82 77 78 83 95 97 96 91 90 88 91 94 90 90 91 91 79 71 75 70 65 66 66 76 86 85 86 88 93 89
77 86 82 84 85 79 83 80 78 86 86 92 89 78 85 94 92 95 97 94 96 94 89 89 91 89 94 90 77 72 76 73 74 82 88 81 79 86 71 64 70 77 82
81 86 82 81 79 80 80 78 84 87 85 80 76 65 88 92 97 95 97 96 98 93 86 94 91 88 92 80 75 70 73 74 71 75 85 91 85 98 96 99 95 89 85
89 83 82 80 82 81 78 83 84 80 77 70 74 74 89 93 97 97 96 90 83 70 51 80 75 73 82 80 77 73 71 73 72 69 88 94 90 93 96 96 96 94 96
90 82 85 82 82 78 83 84 77 75 68 69 64 89 81 86 97 94 93 89 78 66 41 59 64 75 79 78 75 71 71 70 66 69 80 91 87 92 97 97 88 98 90
86 80 84 83 80 82 82 77 74 70 72 56 71 87 82 96 87 88 90 90 77 72 41 63 66 64 77 79 74 72 72 71 70 72 73 88 96 96 99 94 87 87 98
82 79 75 79 80 82 82 79 75 74 59 43 48 89 82 88 88 92 96 85 82 77 52 64 65 65 73 76 75 73 74 73 71 68 63 74 85 91 96 83 74 73 79
85 79 76 80 80 82 83 81 77 69 62 44 33 77 81 83 86 95 93 94 92 84 75 70 65 65 67 72 72 72 71 74 72 68 69 82 86 87 91 83 78 90 92
87 81 79 80 78 84 84 81 75 72 70 61 46 74 85 88 89 95 88 85 80 70 64 66 64 62 62 65 69 72 69 72 71 68 71 81 89 89 90 88 92 92 92
96 91 87 82 80 82 82 80 79 77 76 70 53 56 78 80 83 92 88 82 81 64 51 57 59 57 55 56 63 67 68 66 65 63 66 78 82 94 93 87 84 89 90
100 100 86 81 83 83 82 81 83 84 81 77 67 53 51 59 64 72 78 84 82 64 64 67 65 60 54 51 55 59 68 62 56 56 61 73 85 95 94 88 82 83 88
89 87 80 88 89 87 82 79 82 87 87 81 77 72 62 49 51 64 69 67 61 59 67 70 70 66 59 51 51 54 61 62 52 49 57 70 87 96 97 87 82 80 89
90 85 83 88 92 88 83 80 82 90 89 84 81 79 73 68 54 48 49 53 50 56 61 65 70 73 69 59 49 49 50 53 51 49 51 67 82 92 96 94 91 89 90
88 84 82 84 85 85 84 82 85 91 90 85 83 82 79 75 74 65 46 48 51 58 62 65 67 71 68 69 66 52 49 49 49 49 48 54 68 82 95 95 94 92 91
82 81 80 81 79 80 82 82 82 83 81 82 82 79 79 75 77 77 70 68 70 68 69 71 74 75 70 68 63 70 68 52 49 48 49 49 51 70 84 94 94 93 90
78 76 78 77 76 78 79 80 80 75 76 76 72 68 70 68 71 80 79 78 75 74 74 74 75 77 76 70 67 68 73 62 59 57 55 48 45 54 72 86 94 93 91
78 76 74 76 77 77 77 75 76 75 73 70 69 66 66 64 68 77 82 80 76 76 77 78 76 76 78 76 74 72 74 78 76 70 62 51 45 45 56 69 79 91 92
70 74 76 78 79 76 72 76 76 75 74 70 71 70 69 69 70 73 76 77 80 82 81 79 78 77 77 78 78 77 77 76 75 78 78 59 48 44 46 57 69 79 81
58 71 76 79 79 80 79 77 82 82 78 73 73 72 73 73 73 72 74 75 79 84 84 84 84 81 79 81 85 83 80 79 78 76 76 70 55 47 46 53 66 75 79
23 36 42 60 77 82 84 86 84 79 75 75 76 78 82 85 87 85 78 77 78 82 77 77 74 78 82 86 95 89 84 82 79 78 76 70 61 51 46 48 58 72 79
29 28 33 41 55 70 86 86 87 84 85 83 82 85 87 88 89 92 92 91 89 85 81 79 81 85 86 85 92 89 93 77 68 68 65 67 65 53 47 45 51 65 78
39 37 35 35 35 35 42 64 76 83 85 84 85 84 81 86 90 93 95 96 96 97 94 87 86 86 93 91 92 92 91 90 78 65 61 59 58 55 52 50 50 51 61
46 45 41 38 36 36 35 35 34 34 37 38 39 44 45 42 43 47 56 75 91 99 100 96 92 91 98 100 99 98 96 92 87 92 71 66 64 66 63 61 54 52 52
53 50 48 45 44 44 44 43 43 44 44 44 44 41 39 41 42 42 46 50 54 61 77 96 100 99 95 100 100 98 91 98 98 92 95 84 73 68 64 65 67 66 58
56 52 53 53 54 54 52 50 50 50 50 50 51 52 53 56 56 57 60 63 65 70 79 93 100 100 97 98 100 100 94 94 95 97 98 93 88 78 77 74 71 70 70

GFSSE_925_rhum_063.txt.gz
RH
81 83 81 84 82 87 88 98 97 98 100 99 83 78 70 62 62 88 89 96 91 91 90 88 92 93 90 89 86 80 65 60 57 62 63 88 98 98 97 89 89 92 97
79 95 80 84 84 85 88 95 89 88 89 91 89 79 56 76 95 97 97 91 90 89 90 90 92 93 94 96 91 86 76 73 71 69 65 67 76 86 81 84 88 92 89
88 98 87 82 83 83 86 84 85 86 88 79 78 69 93 91 94 98 92 96 94 87 89 91 93 95 96 87 79 76 71 73 81 89 83 86 92 94 94 82 70 81 85
93 98 94 84 85 84 82 82 89 88 84 81 78 77 91 95 92 98 96 97 95 86 93 93 94 96 87 76 72 73 73 70 76 84 96 89 91 96 99 98 93 89 93
98 94 86 82 82 82 79 86 86 80 77 74 64 86 88 96 95 97 97 89 75 63 85 85 82 84 79 77 73 72 72 71 64 87 98 90 88 95 99 98 99 99 93
97 95 86 79 83 80 81 84 79 73 67 65 84 83 86 91 90 96 92 82 70 40 54 66 76 77 76 74 71 69 69 65 66 69 92 95 99 92 90 96 94 88 82
95 95 90 84 83 80 86 80 76 71 71 54 85 81 78 84 92 82 88 84 74 47 63 70 69 72 74 76 72 72 71 69 70 68 75 88 93 87 96 96 86 81 84
95 96 92 86 83 82 83 77 75 74 52 54 74 80 80 81 87 84 98 87 83 64 79 88 77 75 76 75 73 72 73 72 70 65 67 87 87 93 96 71 60 75 87
83 83 80 79 83 83 80 78 78 71 55 39 80 80 79 81 84 87 89 80 80 65 67 77 74 72 75 74 72 71 70 74 71 67 67 88 86 89 78 69 83 87 92
86 78 76 80 83 85 84 81 77 65 65 39 67 84 83 85 87 90 91 86 78 65 58 57 58 58 59 61 65 66 66 68 70 66 65 75 83 88 85 78 77 87 88
91 79 80 83 82 85 84 82 77 75 70 61 43 65 76 82 88 90 89 86 84 76 64 66 64 62 60 58 58 65 69 65 64 61 62 68 80 94 88 81 74 76 83
98 97 95 90 83 87 86 83 80 80 76 71 58 48 56 60 61 66 72 72 81 75 66 72 67 62 56 53 54 56 61 66 59 54 56 62 76 91 90 83 75 68 64
97 99 97 96 87 89 87 85 83 83 81 77 74 67 57 50 49 56 64 73 74 68 64 70 68 67 63 56 52 53 55 62 60 51 50 57 68 95 96 86 81 75 68
99 98 96 90 92 90 88 86 81 84 85 82 79 77 72 64 51 46 52 62 62 55 57 63 65 70 70 69 61 51 50 50 52 50 49 51 60 77 96 96 87 82 86
92 88 85 88 95 93 90 88 85 83 86 86 85 82 79 74 70 62 51 45 46 51 55 62 67 67 68 69 70 69 60 51 50 50 48 48 51 64 82 95 96 95 93
95 87 85 84 88 93 89 86 85 84 87 90 88 84 83 78 72 74 75 61 58 60 64 69 73 75 75 75 67 66 64 71 68 54 50 50 50 52 63 86 94 94 94
93 83 83 82 84 84 83 82 82 81 83 82 81 81 80 76 71 70 78 79 76 75 76 76 76 76 77 78 76 73 70 70 73 68 64 60 58 50 50 65 94 94 94
90 80 78 79 80 81 79 78 79 80 79 75 75 76 73 70 67 68 74 79 80 82 83 82 81 81 80 78 76 76 75 75 74 75 77 77 71 59 48 50 63 89 94
81 79 81 81 80 79 78 79 79 80 81 77 75 73 71 71 72 73 73 74 78 83 85 86 85 84 84 82 77 78 78 78 77 78 76 76 78 78 59 48 51 66 81
56 75 77 78 80 82 83 82 79 84 83 80 78 74 72 73 74 76 78 77 79 83 83 83 85 85 84 87 86 84 82 79 78 79 77 77 77 79 76 56 49 59 72
27 47 70 72 76 81 84 87 85 82 79 80 77 74 73 75 80 85 87 86 84 83 81 83 89 90 91 81 96 92 81 78 75 74 70 68 72 75 75 63 53 51 65
29 30 37 47 57 73 82 84 86 83 81 78 78 81 86 90 92 96 97 96 96 96 94 89 88 97 91 85 95 95 87 73 68 67 66 65 62 62 65 64 56 50 50
33 34 34 38 46 57 75 89 92 93 92 90 90 92 94 95 96 98 100 100 100 100 100 100 100 100 100 94 91 93 92 81 74 67 64 63 65 66 61 59 56 56 54
42 43 42 41 40 38 38 43 55 65 63 58 53 56 60 56 51 51 53 61 74 93 98 99 99 100 100 100 100 100 98 95 92 88 74 70 69 69 69 68 65 61 61
50 50 46 44 42 41 41 41 40 39 39 40 41 42 43 44 45 47 48 50 53 56 69 96 99 99 100 100 98 99 100 100 100 98 96 87 78 74 75 72 74 73 70
57 53 51 49 48 47 46 46 46 48 50 51 51 51 54 61 65 66 66 66 67 68 70 87 99 99 99 100 100 100 97 90 94 98 98 94 89 84 72 71 74 77 74

GFSSE_925_rhum_066.txt.gz
RH
74 81 88 85 86 84 88 91 90 94 97 97 94 81 69 62 87 95 97 92 89 84 90 92 92 92 93 94 90 88 80 66 56 58 83 89 94 97 96 90 82 77 93
69 77 83 84 86 85 86 91 90 91 95 94 88 75 76 92 96 98 92 90 88 89 84 89 92 94 95 96 94 95 93 78 73 63 67 60 64 74 71 74 73 80 88
67 73 89 84 81 85 87 90 89 88 82 86 88 90 82 94 98 92 95 92 86 87 90 93 94 96 95 81 76 75 70 75 80 78 78 73 90 98 91 72 71 94 94
70 72 77 83 80 85 87 82 87 86 83 78 78 82 94 95 97 95 96 92 87 91 92 96 97 93 77 73 73 70 68 66 85 82 70 70 77 96 97 95 97 94 96
70 68 77 80 82 84 79 88 85 78 73 71 72 82 95 93 98 96 94 72 76 94 94 95 94 81 74 72 70 68 66 60 80 74 74 84 81 94 98 97 97 96 96
68 68 82 82 84 84 85 86 76 66 57 60 86 75 93 92 100 97 83 68 49 70 83 86 82 74 71 69 69 66 64 66 70 70 72 82 85 93 90 91 84 84 83
66 69 88 82 86 84 82 80 72 66 58 79 81 79 82 90 87 82 86 78 56 74 78 80 78 73 74 71 72 70 68 69 66 66 70 72 84 91 92 78 68 65 67
67 76 82 88 85 85 83 75 69 71 56 78 84 77 70 88 81 83 94 81 60 69 85 80 73 72 73 71 70 70 70 70 66 65 72 74 87 94 85 60 67 77 90
70 78 82 94 92 86 81 75 75 64 48 78 83 82 83 80 81 82 83 82 75 56 66 65 61 63 66 66 66 66 66 66 63 65 66 70 83 91 82 72 77 81 87
75 80 78 82 84 87 90 80 77 63 40 78 83 81 79 82 84 86 88 83 79 62 62 67 69 68 65 65 66 67 66 67 65 69 66 72 80 87 84 74 66 58 55
77 81 85 79 78 81 82 90 79 69 59 45 82 83 81 76 84 90 90 85 78 65 60 65 66 64 59 59 59 62 66 63 63 62 62 64 76 93 85 77 69 62 52
75 81 86 85 81 82 86 87 81 83 75 65 60 68 62 67 70 79 85 82 78 74 60 67 66 64 61 61 61 56 58 60 58 60 60 55 64 91 96 84 71 69 59
74 77 84 90 84 82 84 84 79 79 77 75 69 67 63 66 69 68 72 78 82 79 75 78 84 76 72 66 59 54 56 59 54 54 57 50 54 77 98 90 83 76 72
88 91 97 99 92 83 82 84 79 77 80 76 78 76 72 68 65 61 63 70 76 68 65 70 68 70 75 76 66 58 54 53 51 50 51 49 50 62 93 97 94 86 87
87 91 96 98 86 87 86 82 79 78 82 79 83 81 76 74 68 67 62 60 61 62 61 65 73 72 73 71 67 66 61 56 54 52 52 51 47 51 61 92 96 97 97
87 82 82 84 87 90 88 86 78 77 78 82 82 84 84 78 75 74 73 71 61 64 65 70 72 75 76 76 74 72 70 67 68 65 59 56 55 54 52 58 92 87 92
86 89 83 83 85 87 88 85 80 80 80 81 83 85 87 84 81 77 75 77 75 72 74 74 77 79 78 77 77 74 73 72 71 72 69 64 64 66 62 51 53 92 86
83 90 91 90 90 86 82 83 81 81 82 81 82 83 86 85 85 82 78 78 80 80 81 80 79 78 78 76 73 71 72 73 74 73 74 72 70 70 70 68 52 53 91
77 82 87 88 87 87 87 83 84 84 85 80 79 80 81 83 85 86 81 79 80 82 83 84 82 81 78 75 76 75 74 74 75 75 75 74 76 77 76 73 72 53 56
56 76 81 86 86 83 84 87 89 90 86 81 81 77 77 77 81 85 84 84 83 83 84 82 84 82 82 79 78 77 76 76 78 76 73 72 73 77 82 81 76 73 65
27 33 73 79 82 82 84 83 87 85 87 90 89 89 87 83 81 86 89 91 94 94 86 85 85 85 83 84 91 78 76 78 76 75 72 72 68 72 75 77 77 74 70
27 29 37 63 75 83 81 81 80 84 82 79 88 92 88 88 92 97 98 99 98 98 95 93 92 94 93 89 86 82 82 61 60 68 69 68 65 63 66 69 69 69 70
34 38 37 39 52 69 92 93 92 90 89 88 94 96 100 96 99 100 100 100 99 100 99 99 98 99 96 92 99 89 86 63 60 67 66 63 62 63 64 65 67 71 73
42 46 47 43 42 48 60 75 78 73 72 70 72 78 79 80 74 70 71 78 92 97 99 99 99 97 100 100 100 99 96 90 86 84 73 66 68 69 71 70 69 70 73
37 51 55 54 51 44 42 44 44 44 46 45 43 44 46 43 43 44 46 47 53 65 67 85 95 99 100 100 100 99 100 100 100 98 88 79 80 75 76 73 69 69 72
56 53 57 56 57 53 48 46 52 53 52 52 56 55 62 70 66 60 61 62 64 70 83 91 99 98 99 100 99 100 98 91 86 89 95 92 87 68 77 77 76 78 82

GFSSE_925_rhum_069.txt.gz
RH
62 89 84 78 82 80 86 89 86 88 97 94 88 84 74 94 95 97 94 86 84 94 93 92 93 94 93 92 92 92 76 55 56 66 68 70 76 92 89 79 72 80 87
60 83 84 83 80 83 86 89 87 91 93 96 86 77 85 95 97 90 88 87 89 88 84 90 93 94 94 94 95 96 89 71 60 73 77 88 93 82 63 55 74 96 97
59 78 90 86 83 86 88 92 88 89 90 93 89 84 96 97 92 95 90 85 86 89 86 91 93 96 93 94 85 72 75 71 70 67 78 76 91 90 83 82 94 97 96
56 73 80 85 82 87 89 88 84 80 77 85 91 93 94 96 95 90 88 88 89 92 95 93 96 86 85 81 78 65 65 78 72 69 63 77 81 94 98 99 97 97 93
55 63 84 82 84 88 83 82 81 74 72 70 86 94 94 98 94 96 88 94 95 96 97 96 91 79 75 75 73 58 54 70 67 62 79 76 81 96 97 85 94 96 96
54 58 78 83 86 83 82 83 76 61 63 66 75 92 94 97 98 93 66 58 79 88 96 93 79 76 73 75 68 63 62 64 61 64 65 75 85 94 94 88 79 72 86
51 68 83 84 86 82 86 79 69 61 59 76 74 83 91 93 87 86 73 54 67 77 89 90 78 72 68 67 64 61 59 63 58 62 66 75 90 88 82 81 79 82 84
52 69 86 88 86 84 85 75 68 62 77 79 74 68 86 85 77 84 82 63 63 67 62 64 64 64 64 63 64 65 63 66 56 60 68 79 83 92 84 60 51 70 77
55 63 75 94 90 83 81 74 73 53 83 86 76 76 74 86 79 82 81 77 55 64 64 61 62 64 64 64 64 64 63 61 59 60 57 73 73 90 73 65 60 71 72
63 67 80 85 85 88 90 79 75 52 82 86 86 85 80 79 82 83 79 77 69 54 57 59 58 55 56 58 60 61 61 61 60 60 59 70 72 90 76 67 61 56 47
76 77 82 77 78 78 76 88 76 62 55 81 81 78 76 73 83 75 93 80 73 59 56 58 56 56 54 53 51 52 56 58 54 55 55 67 57 94 84 77 67 64 52
77 81 79 76 79 81 80 85 75 75 63 60 73 76 64 59 64 69 84 76 73 68 53 59 60 59 52 58 56 52 56 51 51 52 54 60 50 74 96 83 77 67 63
76 70 78 76 78 81 78 77 66 68 62 55 49 51 49 53 62 64 70 75 78 70 78 66 76 76 62 61 54 49 49 51 50 49 49 52 48 55 95 97 86 77 71
70 75 78 72 78 77 79 79 62 61 63 60 60 58 57 54 54 50 53 60 67 65 58 60 58 59 63 64 60 55 49 49 47 46 47 48 47 48 58 97 96 87 82
80 83 84 83 81 73 76 74 72 65 64 63 66 65 61 59 56 54 51 51 53 53 52 52 58 61 63 63 60 59 56 53 50 50 51 50 52 47 51 61 94 98 96
80 77 81 80 79 75 76 77 64 60 61 63 66 70 68 63 62 61 61 61 52 52 53 55 60 63 65 65 65 64 63 62 61 62 62 59 57 60 58 56 61 90 85
74 73 71 73 76 78 81 79 65 60 61 62 64 68 73 71 68 64 65 65 66 62 61 62 65 67 68 68 67 66 65 64 64 63 65 66 63 65 67 67 60 64 90
65 72 72 72 73 75 70 72 68 64 64 64 65 68 72 72 74 72 69 70 71 70 71 71 70 70 68 66 64 63 62 63 65 65 66 68 70 69 69 71 71 64 66
66 68 75 79 79 76 74 72 73 71 69 67 68 68 71 74 74 76 74 72 71 72 72 73 71 70 69 68 68 68 67 66 66 66 67 68 69 72 75 74 75 75 71
58 65 71 78 80 78 80 80 77 77 74 72 68 67 69 70 73 76 76 75 72 73 74 74 74 74 75 76 74 70 68 69 69 70 70 68 66 68 74 76 80 79 75
30 57 65 73 79 77 78 80 82 84 83 79 76 75 74 73 71 74 79 78 78 82 80 76 74 76 77 80 78 81 78 71 70 70 70 69 66 67 70 71 75 76 74
24 27 43 64 72 76 75 76 76 76 76 70 78 81 81 82 82 82 82 86 88 89 92 85 84 85 85 83 88 81 83 64 59 62 65 64 66 62 62 65 68 68 68
27 29 29 39 61 70 76 77 83 84 84 86 84 85 86 90 90 93 94 95 94 95 94 93 93 93 96 90 88 90 83 71 58 60 64 65 62 61 62 64 67 69 71
32 40 39 38 43 55 69 87 84 80 77 72 72 79 89 85 84 84 85 90 95 96 97 95 97 96 94 94 91 94 84 86 83 72 62 67 66 66 67 70 67 66 70
40 50 47 47 47 47 50 56 66 70 58 56 53 52 52 56 54 55 53 58 61 70 76 79 84 90 92 90 88 88 93 99 93 99 92 75 69 74 72 71 68 67 72
48 56 52 51 51 52 50 49 47 46 46 50 52 51 53 60 72 66 59 64 67 73 81 87 91 94 94 94 91 92 89 94 96 98 97 81 83 76 66 70 72 77 80

GFSSE_925_rhum_072.txt.gz
RH
92 74 74 80 82 84 86 87 83 85 95 96 91 87 96 96 96 92 89 93 92 85 93 91 92 91 91 92 95 68 44 56 58 76 84 81 77 92 68 78 90 94 87
86 78 70 79 81 84 87 89 86 87 86 85 76 88 96 96 89 86 86 88 90 82 82 86 90 91 92 95 91 69 60 73 77 87 88 78 82 81 79 90 90 96 89
87 90 72 77 85 87 88 89 84 85 84 75 73 95 98 94 94 85 85 88 89 80 82 89 93 94 94 77 68 65 68 72 76 81 85 78 88 97 97 92 95 95 88
84 89 90 82 86 87 90 84 77 71 78 64 89 96 96 94 90 84 88 88 92 87 89 93 95 94 90 70 55 75 72 72 78 79 69 76 86 89 88 93 96 97 97
80 86 86 84 85 89 86 79 75 68 67 66 93 94 93 93 94 87 93 95 96 97 96 96 92 76 76 62 48 68 66 66 74 67 69 76 89 94 93 73 70 85 97
67 78 78 84 88 86 80 81 74 63 62 73 92 93 92 96 85 64 71 82 86 92 95 88 71 66 62 55 53 59 60 60 65 70 78 76 78 86 80 72 71 71 82
79 76 76 86 87 82 84 76 58 58 64 77 90 94 95 86 84 66 53 55 62 69 70 67 67 64 64 62 58 53 59 59 61 68 72 54 74 91 85 76 72 83 89
77 82 80 85 81 87 83 71 62 67 77 70 78 83 90 78 79 82 58 65 66 65 66 62 62 63 62 61 59 56 61 62 63 66 70 70 68 85 77 60 68 67 77
73 83 90 85 80 86 79 71 61 80 82 76 65 81 88 75 79 79 68 52 63 60 55 54 57 59 59 57 56 55 53 60 60 58 76 72 67 82 69 63 63 65 66
68 76 86 89 84 84 77 76 56 82 86 80 76 72 86 76 80 80 73 68 51 53 55 54 53 51 50 51 51 52 52 60 59 57 62 64 50 70 70 66 60 58 55
70 67 82 82 84 87 82 77 62 67 83 85 86 82 78 78 80 74 91 73 62 49 48 49 49 47 47 50 48 43 48 55 55 55 56 60 48 66 72 74 68 61 58
72 69 82 78 78 73 80 76 69 49 66 80 79 74 70 77 79 83 83 74 67 59 45 46 47 47 50 58 54 52 51 54 52 52 54 54 48 51 91 83 76 68 63
72 79 80 78 71 74 71 74 76 66 56 55 66 59 61 60 64 71 65 58 55 62 60 61 60 65 64 64 57 53 49 48 51 49 50 50 49 45 63 94 84 78 71
70 76 75 78 78 73 72 72 69 66 64 54 50 52 51 52 54 53 60 63 69 74 62 68 63 66 64 64 63 59 54 50 49 46 47 48 48 46 47 76 93 86 81
76 73 63 70 80 77 73 68 70 61 63 62 60 58 59 58 56 52 52 56 60 59 55 55 56 59 62 64 62 60 59 57 54 50 51 52 53 54 52 54 70 95 94
80 81 79 76 79 80 73 70 66 60 63 63 65 66 64 62 59 58 56 54 52 52 52 52 55 62 65 66 66 66 65 64 63 62 62 63 62 61 62 62 60 83 93
77 78 76 74 75 76 74 72 63 63 60 62 65 68 70 68 64 62 63 64 66 58 57 58 61 64 65 67 68 68 67 65 65 65 64 65 68 66 66 67 68 67 89
74 75 76 77 79 76 76 75 64 62 61 62 63 65 70 72 72 70 67 67 70 70 69 69 70 70 70 70 68 66 65 63 63 65 66 66 68 70 70 71 72 73 72
64 70 71 72 74 72 76 76 74 61 63 60 65 66 69 73 73 76 74 72 72 72 73 73 73 72 68 66 66 67 67 65 64 67 67 67 68 69 70 73 77 77 77
63 66 72 76 75 76 74 74 76 74 71 70 67 68 70 72 74 75 77 76 72 69 70 72 73 73 73 76 73 74 74 68 71 70 70 70 70 67 67 74 74 75 81
43 64 69 78 80 79 79 76 77 77 73 75 72 69 67 68 68 72 76 77 74 75 75 73 76 74 75 75 82 81 79 76 75 73 70 71 71 69 67 63 66 72 75
26 45 66 73 78 77 78 80 79 76 77 74 74 75 75 76 75 76 78 80 79 82 83 85 85 83 83 75 85 86 90 70 62 60 64 70 66 66 63 64 66 67 67
25 26 38 60 72 77 79 77 79 81 82 82 81 83 83 82 84 82 83 85 85 88 89 90 88 94 97 89 85 83 90 89 80 61 70 66 65 62 62 63 64 68 70
26 26 27 33 66 72 76 77 79 81 82 80 77 83 86 86 89 90 94 97 96 94 93 93 92 92 87 92 82 85 87 88 92 90 69 66 65 64 64 68 70 68 71
32 32 33 34 38 53 72 83 85 83 78 69 71 74 76 70 64 67 64 61 59 58 66 74 78 83 91 92 90 84 74 79 88 99 93 84 72 73 72 73 70 70 72
37 43 42 42 42 42 43 57 64 70 56 51 48 44 49 54 58 56 53 55 60 65 70 74 80 82 85 90 87 85 83 84 91 92 92 89 86 76 70 72 73 74 76

GFSSE_925_rhum_075.txt.gz
RH
88 80 81 83 83 83 84 85 83 87 93 92 95 96 96 94 93 91 90 87 84 87 91 84 88 89 92 91 71 60 71 88 90 85 75 71 80 95 95 88 92 81 84
84 82 80 81 86 84 87 87 83 81 80 78 94 98 92 88 87 90 95 94 81 82 85 86 90 93 93 70 77 79 78 82 87 88 78 80 93 95 96 92 82 89 90
78 80 81 81 85 85 87 87 84 83 63 80 98 96 94 87 84 85 89 84 82 82 84 91 93 90 67 64 75 78 80 80 83 89 86 89 92 95 96 90 95 96 99
75 73 79 84 86 87 88 82 74 75 60 95 92 91 93 86 87 85 88 83 82 85 90 95 95 73 57 73 76 74 74 79 79 78 76 80 82 94 94 87 94 98 96
75 72 80 85 87 88 83 74 67 62 78 93 87 86 95 87 90 90 94 87 88 90 93 93 71 60 46 70 68 64 74 71 71 67 68 67 68 86 82 77 76 91 95
91 80 86 86 87 86 80 74 63 63 84 91 89 90 81 80 89 95 94 92 96 96 91 70 62 56 50 52 61 61 64 70 73 71 61 50 72 86 80 74 82 90 94
91 83 89 90 87 81 85 68 63 63 83 91 91 93 86 77 45 53 65 74 81 78 71 66 63 62 57 51 55 60 61 64 73 71 66 51 75 89 85 77 78 82 87
86 83 88 91 82 84 76 61 61 69 87 88 93 92 82 76 63 45 47 56 63 65 62 62 61 60 57 54 50 59 63 63 68 71 73 58 63 83 79 70 73 72 79
77 84 92 84 84 82 70 63 73 78 78 81 85 93 79 72 73 51 47 55 55 50 52 54 56 56 54 51 48 50 62 61 59 65 69 63 55 72 65 57 58 63 63
78 81 90 88 86 79 70 60 77 83 76 67 83 91 81 74 74 65 53 45 51 50 49 49 49 48 46 44 44 46 59 61 60 65 64 63 52 58 66 64 58 56 52
79 84 89 88 83 77 72 56 69 84 79 75 70 89 78 74 72 66 63 56 43 40 42 44 44 44 43 52 48 42 55 55 55 58 58 59 56 48 63 70 66 60 57
78 78 77 78 81 80 74 68 48 73 82 83 78 79 76 78 78 74 78 68 56 44 38 40 42 43 56 58 55 50 51 53 53 53 52 52 52 46 60 72 76 71 63
71 74 81 73 74 81 78 74 54 42 69 78 73 64 76 81 84 79 77 63 57 53 48 49 51 63 64 63 60 54 50 49 47 51 52 50 50 48 46 78 79 80 76
74 74 79 70 68 69 71 74 73 62 48 54 57 54 65 74 67 60 60 64 64 69 61 65 63 67 67 64 63 61 58 54 52 48 47 48 48 50 50 54 92 89 84
73 71 72 72 66 66 63 70 79 73 64 54 53 54 55 55 53 54 56 64 63 64 65 60 61 59 62 63 65 63 62 61 59 56 51 51 54 56 57 57 68 96 97
77 72 69 73 70 73 62 65 68 71 64 60 57 55 58 60 56 54 53 56 58 58 56 54 54 58 65 66 67 67 67 66 65 65 63 63 65 67 65 63 64 73 94
70 68 74 79 79 79 71 67 64 63 61 61 64 65 64 64 62 60 60 59 57 54 52 53 56 61 66 66 67 67 67 67 67 66 66 66 66 67 68 70 69 69 73
72 72 72 79 81 82 77 69 63 64 63 60 62 66 69 68 66 66 64 65 68 69 67 64 64 67 70 72 71 70 68 68 66 65 61 66 67 68 70 72 72 74 75
75 78 74 71 72 75 76 73 66 71 65 60 64 66 65 71 72 70 69 67 69 73 74 72 74 73 72 69 68 68 65 68 69 65 66 69 70 68 68 72 78 78 79
67 71 74 74 71 70 72 76 73 73 66 66 60 61 67 70 74 74 75 75 74 71 69 71 72 74 71 71 71 72 73 74 74 72 72 72 71 73 71 65 73 68 68
64 68 72 77 77 75 76 77 76 72 69 63 72 73 68 70 68 72 75 78 74 74 73 73 74 79 76 75 75 73 75 71 62 60 62 69 74 74 72 68 62 61 72
60 66 68 70 73 76 74 73 74 70 71 68 67 70 73 72 71 71 74 78 76 72 73 74 79 82 73 73 76 78 91 71 61 60 61 61 75 70 67 63 64 66 68
36 63 69 71 72 71 72 74 75 76 78 78 76 76 80 78 74 71 76 79 79 79 81 84 87 91 93 76 72 77 91 92 87 66 66 71 69 66 63 63 66 67 69
26 33 58 69 76 71 76 76 72 75 86 85 76 85 85 86 84 85 80 83 86 89 91 90 88 94 96 94 88 83 86 94 96 87 72 70 68 66 64 67 67 68 67
28 28 32 43 72 78 74 78 83 82 84 84 81 83 86 87 87 87 85 86 85 78 73 74 79 87 90 93 91 90 87 82 77 94 92 77 76 72 71 72 71 71 74
33 35 33 32 41 63 74 83 87 86 82 75 76 78 77 68 51 46 47 48 53 61 66 69 74 79 83 88 91 91 86 87 91 85 94 87 83 85 84 79 77 76 76

GFSSE_925_rhum_078.txt.gz
RH
83 89 85 85 85 85 87 96 92 92 89 96 94 94 94 93 90 89 87 84 86 87 90 88 90 87 82 88 94 96 96 98 90 63 70 92 94 95 96 87 81 88 90
85 87 84 85 81 88 91 89 84 71 79 96 96 87 88 94 96 92 96 96 91 86 88 90 94 92 95 97 83 83 86 90 83 91 95 96 93 97 96 86 94 99 95
89 88 84 83 87 89 88 85 78 57 89 98 95 90 85 89 94 93 87 87 86 89 90 92 94 96 96 94 81 81 85 83 84 85 83 85 90 96 93 88 90 92 90
89 88 87 86 88 87 86 81 74 54 97 92 92 91 86 86 91 87 82 85 86 93 94 93 80 77 78 77 73 81 84 81 76 72 62 61 76 87 86 94 92 92 91
92 88 87 84 86 89 82 73 65 83 96 81 89 89 89 86 89 92 81 84 90 95 95 71 56 73 74 67 76 80 77 75 72 64 56 46 65 82 82 84 85 93 94
91 87 86 87 89 86 71 66 60 94 94 82 88 91 91 91 93 96 88 89 85 94 90 55 44 62 68 64 66 70 76 74 71 56 45 60 76 85 82 84 89 92 95
89 86 88 89 90 80 71 66 69 90 91 90 96 90 87 95 95 98 90 91 90 90 64 56 49 45 57 59 60 64 68 73 73 70 54 54 77 86 81 77 81 86 91
85 89 90 90 83 84 73 69 82 94 90 89 92 98 78 85 92 88 92 89 64 62 59 55 51 48 45 50 60 62 65 68 70 70 67 51 62 71 59 65 72 73 78
87 91 94 90 86 77 60 64 79 92 92 93 92 78 74 51 45 47 55 62 61 60 58 55 52 49 47 47 52 62 62 63 63 70 66 61 56 58 56 52 54 54 46
83 88 98 88 86 73 64 65 75 86 87 95 96 79 75 68 50 52 61 58 50 50 51 51 49 47 46 44 46 52 62 63 64 65 67 63 57 52 56 60 55 54 52
93 90 90 88 85 72 65 73 76 74 76 82 99 81 78 70 64 57 49 50 50 49 48 45 44 43 42 45 43 44 59 57 57 59 63 61 57 48 53 68 67 62 58
82 87 86 88 84 75 64 70 83 80 72 74 91 83 78 74 64 62 62 55 46 43 44 44 45 45 51 54 52 51 54 54 54 55 56 55 54 52 52 62 74 74 68
89 78 84 81 80 77 73 57 80 83 79 76 76 81 77 78 80 75 76 65 59 54 42 40 44 51 61 61 58 53 51 49 49 52 52 52 51 51 54 66 74 80 80
88 88 75 78 74 77 75 69 48 72 79 79 76 76 79 81 81 78 73 63 56 52 56 61 65 70 68 65 66 64 61 59 54 53 49 48 50 52 54 57 82 86 88
69 80 78 76 68 66 72 72 66 48 50 46 53 62 67 70 71 66 60 64 64 68 65 63 62 63 63 64 66 66 65 64 63 62 60 55 54 58 61 60 64 90 95
83 86 75 79 71 65 66 67 73 73 62 55 54 56 60 60 59 58 56 58 64 62 62 60 57 58 63 68 69 69 69 69 68 68 67 66 65 64 66 68 68 68 79
85 84 74 57 75 69 68 65 68 77 76 67 58 55 56 58 60 58 54 54 56 57 56 54 54 55 62 68 68 68 69 68 69 68 67 64 64 67 67 69 70 72 72
81 77 76 81 72 71 72 68 65 67 70 67 61 62 62 63 64 62 61 61 62 64 61 58 59 62 65 70 72 71 69 68 65 68 71 62 67 65 68 65 70 78 78
68 73 75 76 53 46 76 76 66 62 65 69 65 62 62 68 68 67 66 65 66 71 72 71 71 72 70 65 66 64 65 64 66 67 68 69 73 73 71 71 72 79 72
65 70 69 70 65 76 74 69 71 66 71 67 64 66 62 68 68 72 72 70 70 72 74 71 70 70 73 74 71 67 68 69 73 71 66 65 71 76 76 74 70 74 70
70 68 73 79 81 78 78 80 74 74 76 69 69 66 66 68 62 68 71 76 75 74 68 70 71 70 73 74 76 69 61 64 64 58 58 63 67 75 79 76 71 64 62
65 68 64 70 69 75 73 72 73 74 74 66 65 65 70 69 70 72 72 76 76 73 70 71 77 79 81 76 76 78 88 74 65 63 65 65 65 74 73 69 66 62 63
67 69 66 66 66 70 72 73 80 76 77 74 69 67 72 76 76 75 74 77 78 78 74 75 80 85 89 86 82 85 88 94 90 67 64 63 69 75 72 68 66 64 62
55 64 62 66 68 69 68 68 76 80 84 73 68 69 73 76 76 81 81 82 80 77 79 76 89 93 98 97 95 86 87 94 93 89 70 68 72 72 69 70 68 68 70
31 43 64 62 60 64 65 66 65 66 65 63 68 67 67 69 83 81 84 85 84 84 86 87 88 86 87 91 94 93 90 86 86 96 96 82 73 72 78 75 74 75 76
32 30 30 48 67 70 63 63 64 61 64 66 71 80 82 75 80 87 86 79 77 68 54 50 58 64 71 80 84 89 95 91 89 95 97 89 84 80 86 83 80 81 80

GFSSE_925_rhum_081.txt.gz
RH
84 87 90 90 94 90 93 94 90 92 90 96 98 98 92 92 92 95 88 86 94 89 87 85 85 89 97 98 98 97 96 75 74 91 91 89 94 94 95 92 95 91 83
84 88 89 88 89 90 96 92 68 87 88 90 96 97 97 90 95 96 95 91 90 87 89 87 88 94 97 96 90 82 80 88 93 94 88 90 90 94 96 99 87 87 91
94 88 88 88 87 91 90 88 59 91 96 76 87 93 97 90 96 98 94 92 89 90 92 91 97 97 98 94 83 80 78 84 83 82 80 82 87 95 90 87 86 88 86
93 89 90 86 90 92 91 79 59 95 98 88 88 88 93 96 96 92 92 92 91 93 95 96 98 92 82 82 83 82 77 73 70 58 52 53 73 83 86 92 91 92 85
91 89 88 90 90 94 94 76 67 94 96 88 87 87 89 93 89 89 89 93 96 91 81 76 79 76 75 82 79 76 75 74 59 45 46 52 62 81 87 90 90 93 92
90 84 90 88 89 92 94 75 83 97 95 82 91 90 87 89 86 87 93 96 79 52 55 71 75 70 72 76 76 75 75 72 57 48 52 60 66 82 82 82 86 92 95
83 83 88 87 90 78 80 71 96 94 96 93 93 92 91 96 90 94 95 79 64 49 45 58 68 68 66 67 68 69 71 73 70 61 52 56 72 86 83 80 81 85 93
84 85 90 90 84 74 75 73 95 90 89 92 95 94 94 98 98 97 95 92 64 49 45 44 48 58 60 61 65 64 67 70 70 71 60 57 67 70 62 59 62 77 82
82 87 92 92 87 80 70 84 90 92 87 89 96 87 91 94 96 96 96 92 77 57 53 51 48 47 48 54 62 65 64 62 66 71 67 63 60 63 58 52 50 50 48
80 87 96 90 86 67 67 70 89 92 92 92 83 79 55 44 64 88 96 97 86 64 58 54 51 49 48 50 56 64 66 66 65 66 66 64 62 58 58 60 56 52 51
94 90 92 86 81 67 64 72 83 89 97 96 84 75 72 52 53 60 60 60 58 56 56 53 50 47 44 43 45 53 63 60 58 60 63 64 63 63 54 61 67 64 59
100 100 89 84 79 70 67 78 79 88 86 96 93 79 74 69 58 50 50 52 51 50 50 50 50 48 47 53 52 49 56 55 55 55 57 59 59 71 61 59 69 74 73
96 98 85 89 79 70 62 75 83 79 81 91 96 82 79 76 70 67 66 61 53 46 44 47 48 48 57 59 58 55 51 50 51 50 52 53 54 57 63 65 65 74 78
78 77 80 90 84 73 70 57 82 85 79 78 91 88 81 81 82 77 80 72 63 60 55 44 52 68 66 66 66 65 63 62 60 56 55 51 51 53 57 63 72 74 81
88 46 39 76 78 79 70 71 58 79 84 80 79 80 79 80 79 78 76 72 66 61 65 62 66 66 66 67 68 68 68 67 66 66 65 64 60 57 59 62 65 77 88
40 34 43 50 76 74 80 69 67 50 57 76 77 69 65 70 68 69 65 62 66 66 66 66 62 62 62 66 70 72 71 71 71 70 69 69 68 66 63 64 68 71 78
50 50 58 50 47 65 79 75 73 71 62 54 56 58 64 62 61 63 60 58 57 62 63 62 59 56 56 64 70 70 71 71 71 71 71 72 67 64 66 65 70 70 73
70 61 68 71 92 68 65 72 77 79 73 74 66 59 57 58 58 62 60 57 56 58 58 56 56 58 62 66 71 71 71 70 63 63 64 68 61 65 67 74 72 72 75
80 81 79 66 64 57 72 60 59 63 78 72 68 68 59 60 63 64 63 62 63 67 68 69 68 70 68 65 63 61 65 65 66 66 68 70 71 74 75 75 76 74 76
75 86 78 80 72 67 66 69 37 54 79 74 70 69 64 62 66 67 68 67 67 67 71 74 75 66 64 67 66 67 65 64 63 63 63 63 61 66 76 78 77 72 76
78 67 72 75 67 71 83 56 51 67 82 75 70 67 63 66 68 70 71 73 71 70 71 74 72 72 72 72 81 75 63 59 61 61 61 62 64 68 72 80 79 76 73
67 63 66 62 68 72 69 86 83 86 79 72 72 65 66 68 68 70 64 68 74 74 74 76 73 74 75 73 77 79 87 73 64 65 64 68 65 65 76 83 80 71 65
76 78 62 60 65 64 70 76 81 72 73 69 72 71 68 69 70 72 71 70 74 72 70 73 75 75 75 79 71 84 92 92 92 71 67 70 68 74 78 77 72 70 68
38 66 68 63 57 59 64 65 62 66 65 61 64 69 70 71 68 65 82 70 67 64 67 71 74 74 80 85 80 88 90 98 95 91 72 69 69 70 72 72 72 73 76
33 40 64 58 62 61 60 59 62 65 61 60 64 63 70 73 71 70 64 64 65 65 79 88 85 82 86 90 92 91 92 87 87 100 95 84 77 80 78 75 72 75 78
37 35 47 62 68 76 73 61 65 64 65 68 65 64 60 68 72 65 74 76 85 91 91 85 77 66 65 72 78 83 92 93 88 94 99 95 93 85 86 84 82 82 81

GFSSE_925_rhum_084.txt.gz
RH
84 87 91 92 95 94 94 96 96 89 95 99 95 96 94 97 97 97 89 93 90 87 85 85 92 90 92 96 96 93 93 94 92 87 82 87 94 98 97 93 88 86 86
81 87 89 89 91 93 94 83 93 75 92 95 95 97 96 97 98 97 95 90 87 86 85 87 94 95 96 98 95 96 97 90 86 80 82 86 83 92 94 85 83 81 84
87 88 91 90 89 91 91 70 88 82 88 96 97 97 90 96 96 95 93 90 88 88 87 92 93 95 95 83 85 90 82 74 67 62 68 61 80 91 91 90 85 76 80
92 90 91 90 88 91 91 67 87 96 78 90 96 92 93 95 97 96 93 90 92 92 94 98 98 94 82 82 79 80 69 63 51 42 43 56 77 85 90 91 89 90 81
93 91 92 87 90 91 85 63 91 98 92 88 89 95 97 97 98 97 94 94 96 96 98 99 89 79 81 79 78 73 69 49 45 48 53 61 72 85 87 89 90 92 90
92 91 88 88 89 92 81 61 95 100 96 93 90 91 90 92 95 96 97 96 96 97 94 80 75 81 80 80 79 75 71 56 48 52 56 66 78 85 84 85 91 95 94
91 90 93 89 90 89 79 62 94 98 95 94 92 91 91 88 92 97 97 94 84 81 77 79 73 74 74 74 74 73 71 69 64 53 56 61 78 83 81 81 82 86 94
89 93 91 89 84 69 68 71 96 87 90 95 93 89 89 87 94 96 96 98 90 85 83 78 73 70 68 67 66 68 70 69 69 64 62 60 73 84 66 57 63 78 81
85 89 93 89 75 59 57 89 97 89 87 81 88 91 92 90 96 96 96 95 84 72 64 59 60 59 63 66 66 66 63 63 67 67 66 65 71 78 62 55 52 56 56
86 91 95 89 76 63 52 88 96 90 87 83 72 83 90 97 97 99 99 96 77 55 54 53 52 52 53 56 64 66 65 65 64 65 65 65 68 69 61 63 62 58 53
83 90 90 86 77 61 56 77 94 93 90 78 80 71 65 76 86 90 82 86 61 57 56 54 52 50 48 47 51 56 63 61 58 58 61 62 62 76 61 59 66 68 64
96 89 87 82 70 55 58 67 90 96 98 82 83 74 62 56 58 56 58 58 57 55 54 53 51 48 46 51 52 49 58 57 54 54 56 60 59 80 71 64 64 70 72
98 100 93 84 74 60 54 59 78 90 94 97 92 80 77 72 63 58 55 53 52 52 50 50 49 49 53 57 58 55 53 53 53 53 52 53 56 59 83 72 69 70 73
79 91 89 83 76 69 59 60 65 82 84 85 97 86 82 77 72 68 67 65 61 56 50 46 47 52 58 66 68 68 66 65 64 62 60 57 54 55 61 75 75 77 80
61 66 74 78 73 73 70 63 60 76 78 78 95 94 86 80 77 76 78 79 71 63 58 59 60 68 70 70 69 70 70 70 70 69 69 68 66 62 59 60 68 77 90
80 90 87 84 69 66 77 73 67 64 73 80 81 84 86 80 80 80 78 71 67 68 67 68 66 66 64 65 69 71 72 72 72 71 71 71 71 69 64 63 63 70 77
68 70 98 80 62 53 54 74 73 62 53 62 73 82 81 76 75 73 71 67 61 65 68 69 68 63 58 59 66 70 71 73 72 72 71 68 66 63 64 68 66 74 72
80 79 75 49 40 41 36 61 72 70 69 64 55 52 57 61 63 64 65 62 60 60 65 66 63 58 57 62 67 73 69 69 64 63 63 64 66 68 69 64 69 78 76
66 60 65 55 42 37 41 52 74 64 61 63 70 71 63 60 62 66 62 63 62 60 62 63 62 62 68 71 68 61 62 63 62 62 62 64 64 66 66 64 72 79 73
69 65 59 76 59 57 53 57 71 68 48 72 73 75 73 70 62 62 64 65 65 66 68 72 72 73 73 69 63 62 66 67 63 59 62 62 64 64 63 67 74 80 76
82 68 63 73 62 73 76 90 83 72 55 70 78 74 72 70 69 62 64 68 69 70 68 70 76 78 66 63 66 69 68 69 65 60 61 62 64 66 64 69 76 82 80
70 66 66 66 70 61 68 89 79 78 68 73 71 68 74 73 62 64 67 71 73 73 72 74 78 79 71 73 78 80 91 74 64 64 62 64 67 65 63 68 80 86 82
91 77 75 72 75 68 69 86 68 72 69 65 68 86 84 92 92 81 82 78 75 78 76 72 70 71 71 73 76 66 89 91 90 71 70 70 70 70 71 79 81 78 75
58 78 79 70 64 66 64 64 72 90 86 83 79 74 76 92 86 85 90 86 85 87 84 73 66 75 72 75 86 84 84 91 99 96 72 75 73 72 72 72 75 75 73
39 39 63 71 68 66 61 60 58 62 64 67 75 68 69 62 76 83 81 98 90 80 72 67 67 89 91 97 96 97 95 92 94 99 97 85 81 77 81 79 76 76 78
41 39 40 64 72 78 71 58 57 63 60 59 63 67 69 78 84 76 74 76 77 87 93 84 90 88 77 69 69 78 89 90 89 92 97 94 94 84 83 83 82 80 81

GFSSE_925_rhum_087.txt.gz
RH
88 90 89 92 98 96 85 92 91 90 88 88 95 96 90 84 94 93 93 91 87 83 82 82 86 86 88 92 93 97 98 92 83 79 85 95 96 92 95 81 83 84 84
93 96 91 88 96 94 89 93 82 91 89 86 86 95 96 96 98 97 93 89 86 85 87 88 88 89 92 94 97 96 90 78 75 71 73 81 88 92 81 81 76 88 94
96 98 98 86 88 90 80 90 77 91 94 91 89 96 97 97 97 93 91 87 87 86 90 89 91 89 96 96 99 97 68 59 53 51 46 72 81 90 86 81 78 78 83
98 99 96 89 87 89 70 89 77 89 93 94 90 92 94 95 94 92 89 88 88 89 88 92 92 93 86 87 93 68 56 44 42 40 65 77 73 90 90 90 90 84 78
100 99 98 89 88 89 65 92 91 69 87 96 89 89 92 95 94 91 91 93 90 93 96 97 95 90 89 88 78 65 45 48 49 52 65 80 78 85 89 89 92 90 90
98 99 93 89 89 78 57 88 92 63 52 84 92 92 97 94 92 95 95 91 93 98 100 96 86 85 87 81 75 67 54 49 49 55 63 79 82 87 86 90 93 93 92
96 97 96 90 86 71 57 91 91 94 65 74 94 97 96 89 95 98 99 94 98 99 97 85 83 80 79 80 76 71 68 63 54 54 58 79 83 86 87 82 84 85 91
96 97 98 89 82 70 57 92 91 82 86 91 88 88 88 87 92 99 96 100 99 97 88 80 75 72 69 66 68 69 68 67 63 61 60 78 84 86 79 64 70 75 73
97 98 97 91 80 71 61 93 90 78 74 86 80 78 79 88 95 98 98 100 98 95 84 77 71 66 66 65 65 65 62 64 66 65 64 69 77 84 71 64 58 53 50
98 97 94 87 82 72 75 95 90 85 71 83 86 84 82 92 97 100 99 97 93 68 63 62 60 59 60 62 65 65 64 64 64 65 64 63 68 71 62 65 66 61 56
100 98 92 79 64 61 87 96 92 89 80 68 79 88 93 94 98 94 92 96 69 62 61 58 58 56 55 54 56 59 64 61 58 58 62 62 63 80 67 64 68 69 68
100 100 88 77 63 56 81 93 96 94 90 81 72 63 77 83 85 77 73 71 63 59 57 55 52 48 46 48 52 50 58 57 53 52 55 59 60 77 85 70 68 69 74
97 100 92 75 58 53 68 87 91 92 95 79 81 70 57 61 66 66 65 63 59 55 53 50 48 47 47 54 58 56 54 53 55 54 54 52 54 57 83 84 74 73 74
96 95 92 74 60 53 54 80 85 86 86 74 85 78 72 67 62 58 58 56 54 50 50 49 48 48 49 60 66 67 66 66 66 66 65 63 60 58 59 76 82 76 79
87 69 88 78 62 52 53 57 76 86 85 88 93 90 81 76 67 66 66 70 69 64 60 56 47 53 68 69 68 70 70 71 71 70 70 70 69 69 66 64 64 75 81
66 78 85 86 72 69 51 50 56 67 74 77 82 95 90 82 78 78 78 78 75 70 65 63 63 68 68 66 66 70 72 72 72 72 71 71 72 72 64 64 61 71 82
67 70 82 68 84 75 70 61 59 57 75 77 71 72 75 80 78 79 81 80 73 70 72 72 74 71 66 62 62 68 70 72 72 71 68 65 63 65 67 63 69 67 69
63 56 61 47 65 88 78 74 64 63 53 54 53 60 68 70 68 70 73 67 68 68 68 71 71 68 63 58 62 69 70 67 64 61 62 61 62 65 67 66 67 70 71
60 58 65 64 64 78 74 78 71 64 65 63 58 57 55 58 57 63 63 62 67 68 64 64 69 65 60 65 71 70 63 61 61 61 59 60 63 64 64 64 61 63 74
48 60 69 66 68 72 66 64 61 69 72 73 75 70 68 68 63 62 62 64 66 68 64 64 66 67 68 73 73 66 60 65 67 67 62 61 63 61 62 63 63 68 79
81 88 80 76 75 62 69 48 87 96 95 90 85 75 77 83 85 76 64 61 63 67 66 67 72 74 76 72 76 70 68 67 64 68 65 63 59 59 63 65 70 74 81
92 88 78 83 66 74 39 43 66 74 77 80 75 67 65 70 87 95 87 73 63 70 74 74 75 78 76 70 71 77 67 63 68 65 63 64 66 66 66 66 70 82 84
76 63 70 66 75 77 64 70 64 74 72 70 68 67 64 64 79 94 96 88 87 92 92 93 90 79 74 72 70 71 72 75 80 72 70 73 72 71 70 68 74 82 86
66 66 80 68 70 61 66 76 67 70 81 74 69 63 59 60 68 81 83 90 92 98 100 100 89 70 71 84 82 82 82 91 81 80 74 74 76 73 72 70 69 76 80
69 66 64 61 61 62 60 69 80 74 73 68 62 63 71 70 76 82 93 96 91 80 78 77 87 81 80 84 84 90 99 92 96 95 78 78 82 75 77 76 77 77 80
44 42 46 66 82 89 82 69 76 64 63 62 64 65 64 65 69 72 96 98 85 72 68 69 74 82 91 93 92 80 78 82 85 91 89 85 85 87 83 81 78 81 82

GFSSE_925_rhum_093.txt.gz
RH
55 83 86 82 96 95 72 62 55 53 74 88 88 95 98 95 96 80 82 96 93 96 92 92 96 94 96 99 98 95 95 86 91 88 84 93 93 94 93 83 76 82 90
57 82 86 84 92 94 77 74 64 55 80 86 88 96 96 97 98 88 93 94 90 92 85 83 86 96 99 98 95 94 72 72 77 60 57 71 87 91 90 80 83 91 90
58 81 92 86 88 89 77 74 71 66 78 87 86 89 96 98 98 91 90 83 87 88 78 78 84 93 97 94 76 56 56 43 51 54 55 58 80 86 85 86 93 96 95
60 81 87 90 86 83 74 87 82 75 81 85 84 88 95 98 95 90 88 87 84 73 80 84 87 85 89 70 49 38 35 53 58 55 50 52 62 90 89 90 94 97 96
68 80 80 87 87 83 75 94 85 82 84 85 88 87 92 92 91 88 83 87 76 76 81 85 90 90 81 58 46 45 47 60 58 58 61 62 65 86 90 89 80 88 95
70 75 87 84 88 85 79 87 90 77 80 89 86 86 91 86 89 84 79 79 76 78 79 84 91 83 66 50 47 46 56 60 59 60 63 68 78 87 88 88 91 91 94
69 76 88 82 87 84 75 87 91 91 84 86 84 90 89 86 87 85 80 77 80 82 86 85 85 75 70 63 59 52 58 59 56 60 63 71 83 87 88 86 86 86 81
67 77 86 84 87 82 75 89 90 91 83 84 90 90 84 86 90 87 83 81 80 94 92 94 88 79 75 67 63 61 57 61 56 60 64 76 79 87 86 71 65 65 55
68 77 80 92 92 79 85 78 78 88 88 88 92 92 83 86 90 93 88 83 86 96 96 86 76 71 70 69 63 58 57 62 57 60 59 72 70 84 73 70 65 59 53
85 72 76 87 90 81 99 82 55 68 91 95 99 91 88 85 90 90 90 87 92 94 88 79 72 67 64 64 61 58 57 59 58 63 61 63 64 69 63 67 67 66 63
89 90 93 85 77 67 89 96 70 61 81 96 90 84 83 87 90 92 92 92 97 93 85 75 66 61 58 59 60 59 56 56 50 53 58 57 59 75 66 65 67 69 69
87 90 76 90 76 60 80 93 76 75 72 71 80 81 73 80 76 72 92 95 95 84 73 64 56 53 51 57 54 45 53 50 48 50 55 58 55 72 86 73 71 72 72
76 79 73 96 78 56 82 81 67 67 61 57 63 64 58 64 72 80 93 94 93 69 74 63 56 60 53 48 49 50 49 50 47 51 52 50 53 57 74 88 77 75 76
80 69 69 86 83 54 84 73 59 57 54 61 66 59 57 62 68 67 72 73 70 65 60 61 57 52 56 53 51 51 54 55 56 56 56 61 60 60 60 68 79 84 81
92 88 48 99 85 76 84 80 66 56 56 56 59 60 62 62 61 62 62 64 62 57 56 54 52 49 49 47 52 56 56 57 57 58 60 63 66 69 70 70 69 70 74
84 85 84 92 87 79 80 84 81 68 58 64 60 56 57 57 59 58 57 57 57 58 55 53 50 47 46 54 54 53 54 56 58 59 59 63 66 67 66 67 67 67 67
65 72 89 94 86 71 77 80 82 80 63 70 77 71 68 67 64 63 60 68 67 66 61 58 53 54 54 56 54 53 56 56 56 56 57 58 60 62 64 64 66 66 64
87 95 70 84 85 76 75 82 80 79 78 80 83 82 77 73 71 73 69 70 68 66 64 62 62 62 58 55 52 50 56 58 57 54 52 53 55 57 61 63 67 68 67
97 86 91 86 86 77 70 75 74 78 79 77 74 79 81 80 78 72 71 67 67 70 68 64 61 60 56 56 53 53 56 57 57 52 51 51 54 61 67 66 64 68 70
94 82 81 85 90 79 82 87 88 83 69 61 65 67 72 71 72 71 65 66 66 70 69 66 63 59 59 54 55 57 59 61 55 54 52 55 56 63 65 67 69 69 70
96 93 98 93 81 75 76 79 90 86 74 68 69 70 73 72 76 78 80 78 74 70 70 67 64 63 61 63 72 68 61 59 55 52 56 56 55 60 61 60 65 70 68
93 95 82 85 85 73 70 67 66 80 81 76 76 73 73 74 75 82 86 82 82 79 76 74 73 72 66 68 76 71 69 60 50 55 55 56 57 57 58 58 66 72 79
96 93 86 82 88 81 76 76 81 75 74 83 84 74 77 79 85 85 80 86 84 85 87 82 85 82 96 86 78 75 75 68 57 51 54 58 55 55 55 59 65 66 78
100 99 95 73 78 77 88 84 81 76 76 72 68 68 70 70 68 67 84 77 75 75 89 87 82 80 95 96 90 74 73 76 77 71 62 60 57 59 56 62 62 66 80
96 93 94 96 88 82 82 82 82 85 85 87 82 82 83 77 82 79 72 82 76 79 76 76 78 74 92 92 83 94 90 91 87 92 83 56 53 57 61 69 72 71 73
88 93 92 99 92 81 79 82 92 90 94 88 82 83 83 90 96 97 94 85 90 98 78 74 89 86 88 86 82 84 83 84 88 84 79 68 61 58 61 70 72 74 82

GFSSE_925_rhum_096.txt.gz
RH
80 68 82 82 68 58 56 54 74 85 81 88 98 100 96 87 94 88 85 89 94 96 98 95 97 98 96 90 92 97 97 92 79 80 85 89 96 98 95 90 88 88 96
79 72 76 78 91 68 61 55 53 81 84 85 91 99 97 96 96 95 94 97 96 93 95 95 97 88 93 93 94 71 78 58 57 62 63 79 91 95 90 82 86 94 97
83 82 78 84 86 76 68 62 56 57 85 85 85 98 95 98 93 95 96 97 94 83 92 91 97 98 92 73 56 41 41 55 59 62 63 58 80 92 96 95 94 96 96
81 89 93 86 83 80 74 66 58 60 80 86 82 87 93 98 93 92 90 90 79 76 79 88 96 80 52 40 32 33 56 59 60 56 57 61 81 90 88 94 98 96 98
81 84 88 88 83 81 74 71 72 66 83 86 86 87 92 96 93 91 82 85 75 83 85 84 82 56 48 38 37 50 59 59 61 63 64 67 71 91 95 92 92 91 92
82 85 84 86 84 78 83 82 79 70 88 87 88 86 92 87 90 87 85 74 72 82 84 86 81 57 43 42 42 57 59 60 62 63 64 64 75 87 86 88 90 90 79
78 83 80 82 84 79 82 83 80 76 85 88 86 86 86 84 85 79 81 74 77 78 84 92 78 63 50 46 42 56 58 58 62 65 70 63 82 88 84 78 72 73 55
76 79 82 80 84 80 77 83 87 76 77 85 86 86 87 82 80 77 75 78 77 84 86 89 91 72 66 61 56 54 59 59 60 65 67 57 76 86 64 53 49 52 47
77 85 94 81 83 78 73 80 89 85 78 79 84 89 83 83 85 81 76 80 86 88 88 90 91 86 73 62 56 54 61 61 61 63 68 55 70 83 65 62 60 56 56
88 96 95 88 90 82 77 84 90 89 84 84 90 90 81 86 84 86 80 81 87 90 92 85 75 67 65 62 56 53 54 60 62 60 64 57 60 66 62 64 64 65 64
92 92 92 99 92 89 89 82 84 90 90 95 96 88 81 86 87 87 83 81 87 90 80 74 66 62 59 58 56 52 53 54 54 58 62 55 56 63 62 63 66 69 69
90 84 92 85 85 84 93 87 68 91 98 100 99 94 83 87 89 90 85 84 88 90 79 69 57 52 48 51 44 42 51 52 49 51 58 61 52 65 74 72 72 73 75
78 72 80 93 85 88 95 86 84 78 99 96 92 88 82 85 82 88 88 90 95 87 70 56 50 46 50 57 53 51 50 50 48 51 51 51 50 56 73 84 80 77 77
41 38 55 68 72 82 77 83 76 71 76 76 82 72 73 78 80 87 87 92 81 61 56 52 58 55 56 52 52 52 51 54 56 55 56 58 58 60 62 66 72 79 80
72 53 67 54 80 84 56 86 69 65 59 61 66 61 64 72 76 80 70 73 70 56 69 61 61 55 54 52 51 54 56 58 58 57 60 61 62 65 68 70 70 68 70
74 81 65 54 70 86 57 93 63 57 58 66 60 61 61 69 66 67 67 68 66 60 57 55 51 48 46 47 52 56 56 56 57 58 60 60 64 66 64 63 62 64 67
89 89 90 70 59 62 84 93 60 58 56 58 60 62 63 64 63 61 62 60 57 57 56 55 53 51 48 52 55 54 53 56 56 56 58 59 60 61 61 65 68 69 69
84 93 96 99 76 85 82 94 65 60 65 60 57 57 58 59 59 58 58 60 66 68 63 60 56 58 57 57 56 54 55 57 58 52 53 53 53 56 65 68 66 64 62
84 99 99 89 76 72 90 91 75 64 70 73 70 68 68 67 64 65 63 69 69 67 66 64 63 62 62 59 56 51 52 58 55 55 51 50 54 60 64 67 64 65 71
94 86 96 95 64 59 78 88 84 72 75 73 81 83 77 76 73 74 73 70 68 70 69 67 63 62 60 58 56 53 54 55 56 52 51 55 57 59 58 64 65 70 71
99 96 92 88 94 73 79 77 81 81 69 67 73 76 80 80 78 71 66 66 66 69 71 71 67 64 61 60 62 59 64 59 55 59 56 57 55 56 60 59 61 68 72
92 97 98 90 95 82 79 74 71 65 70 66 67 70 73 72 73 74 72 72 72 73 74 72 70 70 70 70 72 77 85 70 62 56 54 55 56 56 57 58 60 68 71
98 100 92 93 84 74 75 72 71 74 71 74 71 74 70 73 68 73 78 80 76 75 75 72 70 71 79 79 80 87 95 89 66 58 57 58 58 54 56 56 61 63 65
97 100 91 86 83 82 76 70 67 71 75 69 65 68 78 76 72 75 73 75 69 72 76 74 73 78 80 84 93 94 95 86 86 84 64 58 56 58 57 57 61 65 72
100 100 93 88 86 87 90 82 79 78 79 78 85 87 85 86 80 71 71 69 71 72 74 80 90 80 68 91 88 93 90 83 78 83 87 74 61 61 59 63 62 61 72
100 99 98 96 94 91 90 94 92 89 79 72 78 84 82 86 84 84 79 81 85 75 79 73 78 82 73 64 88 89 83 86 94 94 96 84 68 58 59 64 68 70 73

GFSSE_925_rhum_102.txt.gz
RH
88 91 91 93 85 84 83 82 79 69 69 74 90 89 74 74 52 58 80 91 95 96 97 97 88 87 90 90 94 93 96 87 87 84 87 92 92 91 93 90 88 92 95
89 92 91 89 94 89 86 83 83 81 81 87 94 96 96 78 61 70 83 89 94 98 98 93 89 90 99 92 92 91 89 70 78 83 83 88 87 93 96 92 90 95 96
88 91 91 92 81 88 85 84 84 84 85 91 92 95 96 92 79 85 90 98 98 97 97 92 91 93 95 92 88 88 87 69 65 74 80 86 88 98 98 86 94 98 98
68 85 91 90 80 81 84 85 83 83 88 87 92 95 98 92 94 97 93 95 95 97 96 96 94 69 58 65 66 71 67 65 70 62 72 84 94 97 96 93 95 92 94
60 63 70 81 76 72 74 84 82 79 86 88 88 86 90 92 96 96 95 93 88 92 88 66 49 34 50 62 67 71 64 61 65 59 55 69 81 95 96 94 96 99 98
63 60 61 63 66 67 66 63 80 83 79 84 86 87 88 88 92 95 88 82 79 86 81 51 35 32 57 63 65 68 68 68 66 57 51 67 76 88 90 90 91 93 96
71 70 72 65 62 62 65 66 64 77 82 82 86 88 89 85 85 89 82 75 76 85 78 46 40 41 59 63 64 67 67 68 66 48 55 70 86 87 88 86 87 85 65
80 77 76 76 65 62 64 62 58 68 81 82 85 87 90 86 84 87 79 73 78 78 79 48 43 42 54 60 63 67 69 70 68 49 54 60 81 87 87 79 66 61 54
82 92 86 80 76 66 71 70 68 60 81 82 85 87 90 86 82 87 76 76 79 80 72 54 48 44 47 60 62 64 68 69 67 64 51 58 78 88 67 59 60 59 60
92 100 100 93 85 70 68 75 79 75 79 85 87 88 89 80 79 82 74 73 78 75 77 71 61 57 51 50 60 64 65 65 66 68 59 51 60 67 62 63 64 65 65
80 87 97 95 90 77 70 81 84 80 76 84 86 88 89 78 80 76 76 77 78 80 81 84 65 56 51 47 51 63 64 65 65 67 63 55 55 59 60 62 67 68 68
84 90 83 88 89 87 92 90 90 86 84 87 88 91 89 76 80 72 77 80 82 85 84 75 62 56 52 48 46 55 57 57 60 62 63 60 51 56 61 66 69 71 72
95 74 63 80 85 86 94 99 98 95 91 91 88 92 82 77 76 74 78 83 82 87 84 70 59 54 46 44 41 50 54 53 52 55 54 54 49 54 61 67 70 72 74
96 78 78 70 82 86 83 95 99 98 100 96 93 96 84 78 81 76 78 81 84 89 75 64 54 46 48 53 53 52 52 52 51 52 55 57 60 55 58 64 68 69 69
93 95 98 91 84 71 82 88 91 98 99 100 100 94 85 83 85 82 81 78 85 91 72 61 48 44 53 54 53 54 54 56 53 57 57 61 63 62 62 65 68 69 71
84 92 99 99 92 86 88 83 78 73 95 99 100 96 89 88 90 86 86 82 86 88 72 57 46 53 56 56 53 54 56 57 59 61 59 60 61 62 63 65 66 66 70
74 76 83 93 96 95 84 80 71 77 78 82 97 98 92 96 92 86 85 86 88 86 69 55 61 62 58 55 52 51 56 58 59 60 58 58 57 60 64 64 67 69 72
51 69 66 60 58 64 84 82 84 75 68 68 78 84 99 91 95 93 88 86 84 78 58 66 64 62 54 52 49 54 57 57 55 59 60 60 57 58 60 62 68 71 70
48 53 70 76 77 69 68 71 90 89 76 66 54 81 93 87 85 77 81 85 73 65 62 66 63 58 53 51 57 57 57 56 56 58 58 56 55 59 59 65 69 68 66
58 62 72 81 84 81 77 80 98 98 82 74 84 79 80 89 90 94 86 66 65 71 66 60 57 58 57 56 57 58 56 53 53 57 57 55 55 55 64 67 64 63 60
80 86 79 90 92 98 100 100 100 96 100 98 90 76 73 79 84 86 80 68 72 66 60 59 62 61 63 63 64 63 61 57 54 58 55 55 57 61 63 59 58 53 54
80 77 78 95 95 99 100 100 97 98 100 98 92 85 81 76 73 72 67 66 60 60 69 68 66 67 66 66 68 77 84 73 66 62 61 59 62 63 62 60 57 54 60
89 79 66 67 89 99 100 92 92 98 100 100 97 83 75 62 66 65 62 59 64 69 72 70 68 68 72 73 74 80 95 91 83 70 69 64 63 62 61 58 59 62 62
79 73 67 60 56 59 100 94 85 94 99 98 96 87 74 68 65 62 61 70 76 81 75 72 71 72 73 69 77 78 81 78 89 86 70 72 66 64 62 60 61 62 63
87 74 74 71 68 75 94 95 96 94 99 97 91 84 76 68 64 63 68 69 76 77 65 62 81 74 62 71 83 93 100 96 84 85 90 78 71 68 70 62 62 62 61
83 82 92 88 94 98 98 100 99 97 96 100 96 94 90 85 80 75 72 78 72 65 70 68 69 69 78 82 82 89 88 94 96 85 91 85 73 67 69 67 67 67 67

GFSSE_925_rhum_105.txt.gz
RH
85 87 82 90 90 92 74 69 80 76 75 85 94 87 78 76 64 65 76 78 92 98 94 87 84 80 90 89 96 93 95 96 89 92 91 85 93 96 95 86 92 86 91
81 86 84 85 90 89 88 88 72 69 75 93 95 95 85 78 72 84 92 95 94 97 92 84 86 85 83 92 98 95 94 86 85 81 85 85 88 95 97 88 89 95 95
79 87 85 83 86 84 86 85 75 73 80 90 94 98 93 81 76 95 96 94 98 97 92 89 89 86 90 92 93 91 84 81 84 81 84 96 96 93 97 93 96 99 97
82 86 85 83 86 84 84 84 81 78 80 84 84 86 95 86 86 95 96 94 97 96 93 92 94 94 95 93 86 73 68 62 63 78 78 90 97 94 96 90 88 89 93
91 86 84 83 83 85 84 83 83 83 82 83 87 88 94 93 94 95 95 94 94 97 94 77 78 74 78 82 80 65 63 64 54 61 73 84 91 93 95 97 98 96 94
89 85 82 82 82 83 85 85 83 83 86 85 85 86 86 87 93 94 94 90 92 79 38 38 39 63 72 78 73 65 65 65 54 50 62 69 81 93 91 89 81 94 95
91 85 78 76 72 69 78 83 82 81 81 84 86 87 85 87 92 94 90 86 87 79 40 31 42 62 67 71 68 67 67 65 47 51 58 71 85 88 87 86 79 68 60
83 88 90 79 64 58 57 61 75 83 81 81 88 86 86 87 92 89 80 80 82 79 43 36 42 61 65 66 67 67 69 67 50 51 57 65 86 89 88 63 61 59 56
81 93 92 82 69 60 59 58 59 70 84 82 84 85 88 85 91 82 78 78 85 80 45 41 44 59 62 65 66 66 68 67 57 51 54 60 75 89 69 58 63 64 61
83 97 97 91 81 75 69 61 56 59 80 85 84 84 90 86 86 81 76 77 80 78 52 43 42 48 58 63 66 66 66 67 67 63 52 57 66 68 62 63 66 66 65
73 88 98 97 90 82 76 71 63 63 68 86 85 87 87 89 87 82 77 74 75 79 57 50 50 48 52 59 65 67 66 64 66 66 59 54 58 58 58 62 66 68 67
92 78 89 86 82 84 83 84 82 82 72 89 87 89 87 88 86 79 76 73 79 74 66 63 58 54 51 51 60 66 66 64 64 65 64 60 59 62 59 63 68 72 71
69 83 67 70 74 78 76 89 94 93 86 88 88 88 89 87 86 90 76 79 83 80 80 73 63 58 52 50 51 59 60 57 56 57 61 58 54 64 61 63 68 72 72
69 81 97 82 65 72 75 73 86 94 93 90 90 91 94 86 85 81 76 78 84 84 85 74 60 56 52 48 45 47 56 54 54 53 56 57 58 61 67 66 69 70 71
61 73 96 98 100 84 80 72 84 89 97 95 94 95 94 83 84 78 78 76 85 86 86 72 59 55 47 52 53 50 52 54 54 52 54 59 61 63 61 66 70 74 75
41 65 87 100 99 100 81 76 80 88 82 91 94 97 95 83 81 79 80 78 86 84 89 73 57 48 47 54 54 54 55 56 57 55 59 59 62 63 64 64 66 73 85
26 43 84 97 100 100 100 90 86 78 75 70 70 87 97 87 80 83 83 80 82 84 86 81 69 51 49 56 57 54 55 56 59 60 61 61 60 63 65 66 66 68 72
28 43 63 91 99 97 97 94 91 86 87 85 85 94 84 95 94 94 88 90 84 81 83 84 71 56 62 65 59 54 54 54 59 60 60 61 60 61 63 64 65 68 72
36 42 54 79 91 93 89 83 80 88 91 88 84 97 94 85 91 99 100 99 93 86 84 84 69 66 68 64 58 52 52 57 58 56 57 61 60 58 61 62 66 71 70
24 40 53 72 75 69 67 76 87 84 85 84 81 77 80 89 80 78 83 89 97 91 86 86 73 73 72 59 53 56 59 59 57 57 58 59 59 55 56 63 67 70 60
30 47 68 75 85 86 88 95 100 99 98 85 89 85 85 88 92 74 74 81 72 94 81 75 68 74 66 60 62 63 62 60 58 55 54 57 60 57 56 63 70 65 56
43 56 73 82 91 98 97 92 96 98 96 92 99 97 92 91 88 72 80 73 70 82 88 71 72 68 65 65 70 78 83 70 62 58 55 61 63 63 59 67 66 61 59
83 86 86 84 82 92 99 100 99 97 98 98 99 97 92 87 85 94 88 74 70 73 81 77 69 68 68 70 70 71 95 90 83 64 60 60 63 67 68 65 63 63 62
82 80 81 70 71 82 84 99 99 94 94 97 98 99 96 86 87 82 92 87 73 69 79 69 66 71 68 73 81 72 74 73 88 87 73 70 76 76 70 66 66 69 69
71 87 80 73 72 69 70 81 100 98 99 94 100 100 98 89 88 86 87 79 69 66 63 65 82 78 79 76 84 88 98 100 92 88 89 80 75 72 72 72 72 72 68
68 82 86 76 69 76 80 89 94 98 99 97 100 98 94 91 91 83 74 72 70 66 65 63 58 69 70 69 75 78 77 93 98 96 95 86 84 78 76 77 79 84 72

GFSSE_925_rhum_108.txt.gz
RH
90 90 77 87 86 88 91 94 93 92 84 90 99 95 86 83 88 89 87 87 97 92 83 85 77 95 88 87 89 92 94 96 94 82 78 90 94 95 96 76 76 90 93
87 92 78 83 86 88 90 91 92 90 92 94 99 99 97 87 87 91 91 96 97 90 81 82 88 82 95 91 89 94 99 87 76 76 80 91 93 94 86 85 88 94 92
84 91 78 80 85 88 87 88 92 93 93 93 99 99 93 89 92 93 96 96 97 92 83 83 77 88 91 95 94 95 96 82 80 84 91 92 88 95 96 92 91 97 98
83 91 78 80 84 85 86 86 89 89 91 92 93 96 94 89 94 96 93 95 94 88 88 88 86 91 93 94 90 82 70 76 76 81 91 93 93 97 92 87 84 85 91
97 92 81 82 85 86 84 85 89 88 88 88 86 89 90 84 94 96 94 95 91 91 92 95 94 96 78 68 68 69 61 51 66 71 82 83 83 94 97 94 93 91 93
98 92 83 82 86 83 84 82 80 81 75 78 82 89 83 87 95 94 92 96 93 93 95 95 86 79 75 68 63 64 63 52 49 55 57 72 82 95 93 90 95 96 95
100 94 87 82 82 85 83 82 81 79 78 79 85 87 86 84 86 92 93 92 84 54 67 53 75 78 72 67 64 62 62 53 44 49 53 64 81 88 86 84 83 64 69
96 95 91 86 85 84 84 84 82 79 80 82 85 85 83 86 90 94 92 88 84 41 38 47 67 73 68 64 65 66 65 50 49 52 58 64 84 89 86 63 60 63 62
76 77 88 85 84 82 86 82 81 77 80 83 85 84 84 82 83 92 89 85 82 60 35 43 64 66 66 66 66 66 67 56 50 53 56 60 78 90 71 62 66 68 64
88 76 79 85 83 85 73 77 78 81 78 80 83 86 86 84 85 85 82 79 79 72 35 40 60 64 64 64 64 66 67 67 61 56 58 62 78 89 69 65 68 67 65
77 94 80 87 84 86 77 71 69 76 83 85 83 85 87 89 89 86 79 78 82 76 39 42 51 59 62 64 65 66 68 66 67 63 56 58 71 84 67 66 69 69 70
31 59 95 86 83 87 82 78 75 71 80 88 88 88 91 92 89 84 78 78 80 80 52 46 44 48 59 64 67 67 66 64 65 66 63 61 62 86 66 65 68 71 72
28 36 66 99 96 80 75 73 81 80 78 87 86 88 91 94 90 87 80 78 79 81 70 59 59 55 52 54 62 66 66 62 61 62 62 61 59 86 75 65 68 72 73
28 28 46 74 97 82 82 77 71 75 83 82 90 88 88 96 92 89 81 77 80 85 72 68 66 60 54 50 52 61 61 60 56 56 58 59 60 65 90 71 69 72 75
30 29 34 62 91 95 93 81 75 72 71 81 82 89 87 92 91 87 80 78 84 88 84 82 76 65 59 53 50 50 53 56 55 53 53 59 60 63 65 76 81 80 80
27 28 32 55 80 95 100 95 75 72 69 75 80 86 91 91 91 90 87 77 77 87 85 85 81 69 64 53 51 53 52 54 56 56 52 56 61 63 65 66 74 78 84
30 25 30 39 77 99 99 94 85 76 71 67 75 81 89 95 92 88 82 78 76 80 83 86 85 74 64 54 55 56 56 56 58 58 58 60 60 61 64 65 67 69 72
32 31 26 30 77 95 97 99 94 87 79 71 78 77 76 77 91 88 86 81 80 82 84 85 84 77 67 58 56 57 57 56 56 58 60 62 62 63 62 64 66 70 73
35 31 30 38 64 97 100 100 96 88 81 82 78 77 85 95 93 91 92 91 90 90 86 88 85 83 75 62 66 64 59 55 53 56 60 60 61 62 62 62 64 68 71
36 36 42 46 54 82 100 100 100 98 91 82 85 90 87 95 100 99 97 91 93 100 91 90 81 87 87 67 73 66 56 53 53 59 60 59 60 62 62 60 63 66 71
40 38 33 39 53 80 100 100 100 100 87 92 89 89 97 99 100 100 100 96 92 67 72 94 94 87 88 74 81 66 59 61 61 60 59 57 57 58 60 58 60 68 70
43 38 43 46 61 74 86 96 97 95 91 89 94 92 93 94 93 98 97 87 91 83 68 61 76 92 84 73 75 79 85 71 62 61 59 55 55 57 60 60 63 68 71
54 43 40 47 73 88 90 92 94 95 94 93 99 89 74 75 96 100 99 88 80 72 64 59 68 82 83 75 73 72 93 92 81 66 64 61 59 60 65 64 68 75 69
54 46 44 63 92 100 100 98 95 93 95 97 94 100 100 94 96 98 100 99 83 85 78 63 47 72 82 83 78 75 75 78 87 81 67 63 65 68 70 73 76 73 75
61 68 63 82 98 84 100 99 100 95 90 87 87 93 96 95 90 89 99 90 84 82 80 77 71 60 83 84 82 77 86 100 98 89 92 79 71 67 72 76 75 74 78
72 66 76 81 67 70 94 100 100 99 99 96 97 99 100 100 99 98 100 100 98 95 87 75 68 56 89 67 74 76 77 90 97 98 99 94 85 74 73 76 75 74 77

GFSSE_925_rhum_111.txt.gz
RH
91 98 86 84 86 85 83 85 88 88 90 83 99 100 93 94 88 87 95 92 86 82 78 76 82 94 93 87 86 96 96 96 71 78 86 91 95 96 67 64 77 86 96
92 96 86 84 86 75 83 85 88 90 83 88 97 98 98 91 95 92 95 94 92 82 81 93 95 88 82 82 96 98 98 72 61 82 87 86 89 93 82 76 82 86 91
94 97 90 84 85 82 78 84 87 86 86 92 97 98 100 92 90 90 96 95 89 80 81 88 85 95 85 91 95 98 93 75 72 83 82 94 95 96 96 91 91 94 97
94 99 94 85 87 86 81 81 84 87 87 92 96 99 97 95 94 92 96 93 87 81 79 76 85 92 93 96 95 91 75 77 83 85 89 91 90 95 90 92 89 84 90
96 95 89 80 86 86 83 85 86 87 88 89 91 93 88 93 95 96 94 91 86 83 83 82 91 94 95 85 65 59 67 70 78 83 82 85 88 88 86 94 93 95 94
98 96 82 82 84 86 86 84 85 87 87 85 86 84 82 83 91 92 90 93 85 83 88 90 96 82 72 69 72 63 46 51 62 69 73 75 86 95 95 94 97 96 90
98 97 87 83 84 82 84 84 87 89 82 84 84 88 80 76 87 96 92 92 83 80 90 96 90 71 69 68 77 66 52 43 49 52 56 66 84 88 84 82 81 81 80
99 98 90 83 83 84 84 82 79 80 74 77 84 87 86 75 87 94 90 90 82 60 86 93 70 69 67 67 63 60 53 46 49 52 58 71 86 89 88 82 75 72 71
99 99 84 80 81 83 85 84 81 79 78 79 85 86 87 77 80 91 88 87 69 40 47 74 69 67 64 65 63 63 54 47 50 56 61 79 84 92 87 74 76 74 69
54 98 91 77 80 80 84 87 85 82 82 82 84 84 87 81 83 86 84 86 80 45 39 64 70 67 64 63 63 65 64 51 52 55 59 70 85 93 83 74 73 70 67
22 32 94 91 82 82 80 87 87 83 81 82 86 86 88 90 87 89 85 85 80 70 39 54 73 70 65 63 64 66 66 66 63 55 56 63 77 93 82 70 71 69 69
22 23 29 91 97 85 82 77 80 83 87 88 90 90 94 92 90 95 85 80 78 77 51 46 64 70 70 69 67 67 67 64 65 65 60 59 65 93 82 67 70 72 73
24 23 23 37 93 99 86 73 70 73 75 81 85 84 90 91 93 96 95 86 95 83 75 63 66 82 68 67 66 66 66 64 63 65 64 62 60 86 90 68 69 72 74
25 20 21 26 48 91 99 88 73 71 70 70 82 83 86 92 96 96 97 98 98 93 79 52 56 59 63 64 63 66 67 65 62 59 60 62 61 60 90 85 71 73 76
31 21 18 22 37 69 99 93 86 78 73 63 66 77 85 92 96 91 92 89 95 88 85 70 70 70 67 66 61 58 63 62 59 56 54 59 60 62 68 95 97 94 90
33 23 21 22 27 51 94 99 93 82 75 72 73 72 88 89 94 88 91 90 86 83 82 78 72 78 74 70 63 58 53 51 56 56 55 54 59 62 64 67 75 77 81
35 27 24 23 24 32 76 99 96 91 82 80 74 70 74 92 92 91 91 87 80 82 86 86 87 83 74 67 59 56 59 57 57 56 58 55 57 60 62 64 66 67 73
34 34 29 27 26 27 59 95 100 99 90 81 74 72 70 76 78 84 91 86 81 83 89 90 88 88 80 68 62 53 57 58 59 58 58 60 61 62 63 62 63 65 67
36 36 34 32 38 31 35 87 97 100 100 88 78 74 76 78 78 85 92 90 84 81 83 86 90 89 86 74 73 61 57 62 60 57 57 57 61 62 63 63 63 64 65
39 38 39 38 37 47 64 99 97 100 100 99 84 77 81 87 90 97 98 95 90 91 88 92 91 88 87 77 78 71 68 67 62 58 55 56 60 60 59 62 63 63 64
46 43 42 45 43 51 95 100 100 100 98 100 98 92 87 81 88 98 99 100 99 94 90 80 81 78 77 79 94 79 67 67 64 55 54 57 60 59 59 62 63 62 64
49 46 43 46 59 49 85 99 100 99 100 100 100 95 99 86 89 100 100 99 97 99 100 90 76 74 76 83 85 82 83 66 58 55 55 59 60 58 58 59 62 62 65
60 52 44 42 55 60 68 97 100 98 100 100 100 95 94 100 100 99 100 99 100 100 97 92 83 87 86 88 82 72 89 81 79 61 65 58 62 63 60 62 65 65 72
61 55 48 43 60 76 59 99 99 96 94 93 80 81 87 92 97 98 100 100 100 100 100 92 87 90 81 84 89 79 72 73 83 79 69 71 70 66 67 63 67 70 77
64 63 58 55 64 79 92 94 98 98 96 87 89 83 83 84 86 83 92 100 97 100 98 92 92 90 85 74 76 81 89 92 93 90 86 80 66 61 59 63 70 76 80
90 82 75 78 85 78 86 93 97 94 93 93 92 89 88 89 91 92 89 96 100 100 100 99 90 89 81 76 80 79 78 81 91 97 95 90 86 77 74 74 73 77 78

GFSSE_925_rhum_114.txt.gz
RH
76 84 84 85 89 84 77 81 82 80 84 83 99 98 96 90 76 85 94 83 85 81 80 82 91 94 90 92 96 95 98 97 96 89 86 92 96 88 80 79 77 80 95
80 83 86 86 87 82 78 76 81 79 91 85 97 97 98 93 89 89 94 94 87 78 80 82 95 93 88 96 98 97 93 70 78 84 83 84 78 80 60 72 72 81 93
84 84 89 83 85 82 82 80 85 89 87 88 94 97 98 97 90 87 96 94 84 80 93 94 90 83 92 97 96 97 78 64 79 85 83 80 90 94 91 87 89 93 95
85 84 82 86 80 74 77 78 84 87 83 90 90 94 98 97 90 88 96 91 79 80 91 89 88 86 91 97 96 96 73 66 77 77 68 80 80 94 95 94 89 86 87
83 85 78 88 81 80 75 78 83 83 84 89 88 92 96 94 92 90 94 88 82 76 80 78 83 89 73 92 95 85 74 81 82 73 71 70 66 87 94 92 94 92 88
83 84 85 87 84 81 82 78 80 83 83 85 87 90 87 87 92 96 90 88 83 80 82 77 80 76 73 66 66 65 68 70 74 72 65 74 68 92 96 96 96 94 90
98 92 83 82 85 84 82 80 83 83 83 85 84 86 82 85 83 94 89 88 84 79 84 76 91 71 67 68 74 59 45 58 62 62 65 65 73 89 89 89 87 86 86
99 96 85 87 87 85 86 82 82 85 84 86 85 87 83 75 82 92 88 88 84 72 81 95 85 76 70 73 84 59 45 47 59 59 63 66 79 89 90 87 82 78 75
74 98 94 85 88 84 84 85 83 86 84 82 82 84 88 73 80 90 91 86 81 64 71 81 79 78 74 76 66 59 46 48 57 59 63 67 80 92 91 76 75 73 71
38 58 96 93 81 80 84 86 84 83 80 79 80 87 89 83 77 80 81 87 79 47 60 72 68 72 73 80 70 65 52 50 58 66 63 70 82 93 83 73 74 72 69
35 37 53 88 89 78 80 82 88 84 82 82 85 87 88 86 86 89 87 90 80 50 52 63 70 68 68 74 74 69 65 59 59 58 61 64 76 94 84 73 73 71 69
34 35 37 48 89 97 85 80 85 84 90 85 86 86 86 78 75 79 88 86 84 73 50 56 72 70 67 68 77 74 70 64 62 63 62 58 65 95 93 75 73 72 72
38 36 37 38 55 95 99 94 76 72 79 78 76 79 76 73 78 84 97 94 94 89 84 73 84 77 70 64 63 63 63 64 60 64 66 61 61 86 93 83 73 75 75
32 37 36 35 42 68 99 99 86 74 72 80 85 81 80 76 75 78 85 95 88 82 73 70 67 64 71 69 63 61 63 63 60 60 61 62 60 62 95 93 88 77 78
35 37 36 38 39 54 83 98 96 83 79 76 83 80 74 73 74 76 78 84 88 80 73 71 67 69 72 64 62 60 58 59 57 56 56 58 60 62 65 92 96 95 86
36 35 38 38 38 49 66 98 98 93 78 78 82 81 81 71 74 75 72 74 80 79 79 73 62 58 62 66 63 58 54 53 54 55 55 55 55 61 63 65 72 83 88
32 35 39 38 38 40 57 80 99 98 94 92 93 89 84 87 78 80 78 74 76 79 83 85 80 74 71 65 62 56 55 52 51 52 56 59 58 55 60 63 64 65 69
39 39 38 39 37 37 48 66 97 99 100 98 95 96 95 84 88 86 84 76 77 82 88 84 81 77 72 68 63 58 54 52 55 55 54 57 62 61 63 61 61 63 64
42 40 42 46 44 36 43 57 78 100 100 99 99 98 84 83 86 87 94 81 83 91 100 87 90 89 81 86 75 63 56 53 53 55 54 53 58 66 65 67 62 62 62
49 44 42 44 46 40 41 58 81 98 99 100 99 99 92 84 91 100 100 90 92 97 99 95 91 90 88 77 74 72 61 56 55 60 59 56 56 60 68 70 72 65 63
54 53 49 45 47 47 40 58 83 97 100 99 100 99 95 98 86 97 100 99 99 98 98 93 91 88 97 86 87 85 78 68 62 63 64 60 57 60 66 69 62 73 69
57 53 54 50 49 49 43 48 70 89 98 99 100 100 99 98 98 84 94 99 100 100 98 98 96 94 84 89 78 70 56 51 57 59 55 57 56 58 64 67 69 67 66
58 56 52 52 50 50 51 57 77 88 98 100 99 99 100 98 100 99 99 100 99 99 98 95 94 92 78 76 83 60 57 59 46 63 61 62 65 63 72 67 63 64 65
63 63 59 56 52 54 55 64 73 86 90 97 98 100 98 99 100 97 98 99 100 99 99 96 94 90 85 73 80 80 63 55 56 67 67 53 74 75 76 71 63 61 65
73 70 71 67 60 53 58 61 64 81 84 86 91 92 95 99 100 100 100 100 99 100 100 97 96 93 90 82 73 75 79 75 71 71 68 60 75 76 74 68 62 78 62
74 80 81 77 67 57 60 65 66 76 84 87 89 88 84 86 89 90 92 93 94 97 98 95 94 93 91 88 79 74 74 80 75 77 91 70 70 66 68 66 62 69 66

GFSSE_925_rhum_120.txt.gz
RH
67 70 72 78 76 86 86 86 88 90 88 89 92 81 80 68 55 69 76 84 89 86 87 92 93 88 94 95 93 94 88 70 85 90 62 69 84 82 86 83 82 90 94
65 67 73 78 77 80 88 86 84 83 89 90 98 93 89 72 68 80 92 92 89 86 91 96 94 94 96 93 91 84 69 72 78 72 52 51 67 77 71 69 84 93 96
76 74 76 81 82 77 85 86 83 78 83 87 89 84 98 76 70 91 87 90 86 84 90 91 94 96 96 90 90 91 67 75 82 85 88 86 81 93 88 89 89 95 98
82 80 82 82 82 75 80 79 83 82 80 83 88 85 94 92 80 91 94 87 83 86 88 91 92 93 93 98 92 68 71 84 84 82 78 76 93 96 98 97 97 96 97
85 86 85 82 82 77 75 76 79 80 86 84 87 86 87 95 92 88 92 86 80 88 91 88 84 73 87 91 90 58 70 68 66 68 74 73 76 97 96 94 87 77 84
88 87 86 85 79 77 79 77 78 82 87 84 84 84 83 90 86 83 91 84 80 82 87 87 84 60 72 86 76 66 62 67 62 60 65 73 71 92 75 64 50 66 87
73 88 91 88 85 78 75 76 79 81 82 82 85 82 85 85 83 72 90 87 83 77 81 77 78 50 62 68 67 63 64 62 58 60 61 68 56 81 77 62 67 71 80
45 80 90 91 87 84 79 74 77 82 80 82 83 81 81 82 80 78 89 88 84 77 73 74 60 53 57 61 59 44 45 54 55 55 61 67 51 88 85 68 68 70 73
35 50 66 91 87 82 81 81 82 80 78 79 80 80 81 79 79 84 86 87 85 80 71 64 54 61 65 67 71 51 36 47 53 57 62 66 62 92 82 70 67 67 65
34 35 48 67 88 89 79 81 82 83 82 82 84 83 82 84 81 75 83 85 85 82 68 60 58 66 68 71 64 52 38 52 58 58 67 69 56 89 79 73 72 70 65
29 32 34 47 69 82 85 83 80 84 83 83 85 84 85 86 82 86 81 84 87 86 68 57 62 68 68 66 62 57 43 46 55 55 60 61 58 86 79 70 70 70 69
26 29 31 30 40 60 82 84 82 81 84 85 86 82 80 79 86 80 74 84 88 88 69 51 61 69 66 62 60 58 51 57 58 53 55 60 54 81 83 66 67 69 69
23 25 26 29 32 33 62 84 87 88 84 85 86 84 84 78 76 84 81 82 85 92 68 58 64 68 64 72 67 57 49 58 57 55 57 58 54 60 95 80 66 65 68
25 25 26 28 31 32 30 62 83 82 83 80 76 81 80 74 74 71 79 83 87 92 75 65 63 59 62 59 67 60 57 58 56 53 56 58 57 53 65 96 86 68 67
28 28 29 31 33 31 34 40 68 81 80 76 74 68 75 70 65 68 77 80 83 92 83 80 73 73 67 66 58 57 56 54 56 53 52 53 54 52 54 59 93 96 88
28 28 30 31 33 34 34 35 49 78 79 79 69 65 68 67 65 66 69 77 78 85 86 77 71 65 65 60 60 58 55 52 52 52 51 51 52 52 52 56 61 78 95
30 30 30 32 33 34 35 34 38 59 74 78 70 67 62 68 69 64 62 71 75 73 78 76 67 60 57 56 60 58 53 50 48 47 48 50 51 53 54 52 58 60 63
36 36 36 36 37 34 34 36 35 46 62 67 78 77 70 67 69 70 66 66 71 74 74 72 71 62 57 56 56 54 54 51 48 46 45 45 49 52 56 57 52 57 60
43 43 44 40 40 38 37 34 34 38 54 62 83 82 77 77 71 70 71 64 68 74 78 76 70 71 61 56 57 57 56 52 49 48 47 46 47 50 53 57 58 57 57
57 51 47 47 43 41 38 38 32 32 42 75 70 89 85 82 79 75 73 78 74 75 78 79 76 75 77 66 62 60 58 55 55 50 47 47 48 49 50 54 60 63 64
63 58 55 49 48 46 39 39 38 33 40 65 75 77 88 88 90 84 79 74 78 78 81 80 77 79 78 76 74 74 72 69 66 59 53 48 50 51 50 51 55 57 61
68 65 62 53 50 49 46 40 41 36 38 54 81 80 89 90 92 89 85 76 75 79 86 87 81 88 88 80 86 86 91 80 77 71 61 56 52 51 53 52 54 57 58
73 68 67 67 52 51 49 45 43 43 40 56 72 84 81 90 98 93 83 87 83 75 84 87 86 91 93 95 91 82 93 90 65 59 65 64 64 60 57 57 55 55 61
82 74 69 68 72 52 50 49 47 47 51 61 67 75 74 84 92 98 92 91 88 78 79 88 83 82 93 95 99 94 80 73 81 82 56 60 60 59 58 56 58 58 62
90 83 73 70 70 66 56 50 50 50 49 61 72 77 81 80 76 87 91 90 90 80 90 84 84 88 83 92 94 88 94 92 90 93 82 72 60 57 58 57 59 61 64
92 97 87 74 72 73 64 56 51 52 54 60 66 78 82 77 76 89 89 92 90 90 88 90 88 87 88 83 87 93 90 85 88 86 90 80 70 65 61 58 61 66 68

GFSSE_925_rhum_123.txt.gz
RH
76 71 69 73 81 84 88 88 85 79 78 79 82 80 71 49 48 69 88 92 86 87 90 87 89 95 94 90 83 70 62 87 83 60 81 91 94 94 96 71 88 92 93
80 76 74 78 78 81 86 87 86 87 79 85 88 96 76 58 79 81 88 90 89 90 96 95 92 92 96 95 80 60 62 77 61 46 58 79 85 95 94 81 93 96 96
70 73 74 76 77 79 86 85 84 85 83 86 87 85 84 74 83 88 95 92 90 93 95 97 96 96 93 90 73 64 71 81 89 88 60 72 86 96 90 92 95 96 95
87 76 73 76 79 78 81 85 83 82 84 85 88 90 93 80 87 89 89 90 84 87 94 92 84 91 91 79 66 74 84 86 90 90 84 83 94 93 98 97 96 96 94
91 90 86 78 79 79 79 78 84 83 83 83 88 87 86 87 76 88 88 88 79 86 89 85 76 77 77 69 56 81 78 74 76 81 87 73 76 95 96 94 89 89 88
84 87 86 87 81 75 77 78 78 80 83 84 85 84 84 85 83 82 89 88 80 88 91 87 76 63 69 61 50 71 69 69 67 70 77 72 55 95 86 51 55 84 91
69 88 91 88 88 83 77 77 80 80 87 83 83 84 83 83 75 67 91 86 82 81 88 83 81 52 60 58 53 55 65 62 62 66 68 69 59 85 85 81 76 83 88
48 69 89 89 84 86 80 73 75 79 83 82 82 84 81 80 78 69 83 89 86 80 78 73 72 47 54 50 45 49 57 57 59 67 62 66 44 85 88 69 71 73 70
33 43 63 88 90 88 86 79 73 76 78 82 83 83 82 80 79 70 83 87 87 82 73 68 57 48 50 54 49 36 42 54 57 65 61 65 49 89 81 68 69 68 62
26 29 34 59 86 92 84 80 80 80 79 78 81 83 79 79 80 79 87 86 87 84 77 68 49 50 56 56 56 45 32 52 59 61 63 66 51 73 70 66 66 65 61
22 21 26 28 54 72 88 90 82 80 82 81 82 85 82 81 79 77 78 86 89 87 83 66 50 56 59 60 55 47 35 54 60 60 59 63 65 66 68 63 64 65 64
22 22 23 22 23 38 72 87 89 84 81 82 84 85 83 80 78 80 72 76 87 90 88 70 55 60 65 62 56 52 39 51 55 59 58 62 61 62 71 62 63 67 68
24 24 24 25 24 22 28 62 85 92 87 84 82 83 83 76 74 81 81 76 79 91 91 79 63 68 67 62 58 53 47 54 59 58 56 57 58 54 78 67 60 62 66
25 26 27 27 25 24 23 24 55 86 96 90 86 82 82 82 77 77 89 82 81 85 90 83 60 58 64 63 67 68 56 49 60 61 56 58 58 55 57 77 66 60 62
25 26 27 28 30 30 29 24 25 48 81 90 86 83 84 82 78 77 84 84 84 82 85 85 64 56 56 59 66 72 66 56 59 58 55 57 58 56 51 55 83 79 68
27 28 28 29 31 31 32 31 27 31 52 78 87 88 80 78 72 77 74 82 83 81 85 85 76 72 60 48 53 68 66 59 58 55 55 54 53 52 52 51 54 76 95
45 37 35 35 34 33 36 34 32 29 36 61 77 86 85 74 70 71 70 75 78 79 81 85 81 77 70 65 56 58 62 57 55 55 54 54 52 52 52 52 52 55 63
57 57 55 46 42 41 38 37 35 32 30 37 57 68 77 81 67 68 69 71 71 74 77 85 83 79 72 65 61 58 62 59 55 52 49 50 51 50 50 53 55 53 58
64 62 60 58 55 45 45 40 39 36 32 33 41 57 66 76 70 66 71 68 70 71 74 81 80 77 68 62 58 57 57 57 54 52 49 47 47 46 48 51 53 56 54
68 68 64 60 63 58 48 46 42 39 36 33 38 55 49 66 72 74 72 75 79 75 75 76 76 76 73 63 59 58 57 56 56 54 51 49 48 47 47 49 52 54 57
71 73 74 74 62 65 57 49 46 40 39 34 33 38 67 64 79 76 79 87 85 78 74 77 78 80 80 74 72 68 64 61 60 57 56 53 50 48 49 50 52 52 53
79 78 80 78 73 68 68 51 49 42 40 39 34 35 50 62 67 85 82 85 88 80 79 78 80 87 88 86 87 93 96 79 72 68 67 62 57 54 50 50 53 52 52
77 82 89 85 78 72 69 62 51 48 43 43 42 48 56 67 72 89 89 87 84 82 84 76 83 91 91 97 95 87 99 94 79 66 71 77 72 66 56 50 49 54 55
79 86 91 94 82 76 69 71 54 53 52 44 44 57 57 60 57 73 82 87 93 82 89 82 81 87 96 98 100 96 83 85 88 81 68 66 72 74 66 60 58 54 53
84 88 94 94 94 76 73 74 58 54 52 47 46 59 66 71 67 62 71 83 99 85 92 89 94 82 94 89 94 99 100 100 100 97 86 80 66 61 61 60 58 58 57
88 93 98 100 96 79 76 74 61 58 53 52 51 60 67 70 74 75 80 82 92 94 99 98 85 83 93 82 89 90 80 90 97 98 98 93 84 74 67 60 59 59 57

GFSSE_925_rhum_126.txt.gz
RH
79 78 73 75 81 88 85 85 89 91 77 76 84 72 56 54 61 68 82 81 87 89 80 87 92 95 94 90 80 74 89 72 91 90 91 92 95 97 92 92 89 90 94
83 74 75 78 79 81 86 87 85 84 82 85 100 83 63 73 85 94 93 87 89 93 95 87 94 96 92 84 60 70 71 51 58 81 79 83 87 95 94 94 92 95 95
69 65 73 78 76 80 84 87 88 84 83 94 93 86 78 84 95 96 94 90 91 97 90 95 95 92 95 75 61 66 79 91 76 60 68 74 84 91 92 94 93 96 94
80 71 79 79 79 76 82 84 84 86 85 89 89 87 76 90 91 95 96 94 94 94 95 95 85 74 75 69 63 80 89 92 93 88 85 89 94 97 98 98 96 92 92
87 81 83 82 81 76 79 82 83 82 84 86 88 90 80 80 86 94 94 85 84 90 89 85 69 68 66 56 76 87 82 82 84 88 87 81 85 95 96 97 91 92 77
85 87 88 84 84 79 80 78 79 83 82 84 87 86 83 78 67 89 88 88 82 87 85 82 64 64 57 52 80 73 73 70 75 84 79 69 62 95 89 89 90 91 94
66 67 84 84 83 86 79 78 78 79 81 86 84 85 86 83 74 68 90 86 79 88 89 85 69 54 55 47 73 70 70 66 71 74 73 71 61 85 87 86 91 91 86
48 62 73 88 85 86 83 80 78 77 81 87 84 86 86 84 80 64 85 89 85 82 85 81 74 48 52 50 51 65 65 63 65 67 66 63 45 82 89 73 66 65 66
25 30 53 74 90 84 89 83 76 77 79 80 83 85 85 82 80 71 61 91 88 84 76 75 64 48 51 45 46 55 61 59 61 66 64 65 53 81 81 62 61 61 61
20 21 21 37 70 89 88 88 85 78 79 78 80 83 85 86 79 73 61 85 90 89 80 69 65 48 49 48 44 35 47 56 59 63 65 66 47 80 65 62 63 63 62
18 19 21 21 23 52 82 90 88 86 84 82 82 84 85 87 78 75 71 80 85 89 87 78 64 50 55 58 55 49 36 49 60 61 62 66 64 77 73 64 68 70 65
21 21 22 22 22 22 36 77 90 87 87 84 85 84 86 86 80 77 75 71 81 89 89 86 72 51 61 61 60 55 42 45 61 60 61 65 65 73 67 58 62 66 64
23 24 23 24 24 23 21 25 53 86 88 88 86 86 86 85 83 82 82 77 81 88 92 91 81 64 60 60 59 54 48 42 57 58 60 63 63 70 67 53 53 60 65
24 25 26 26 26 26 26 24 22 29 77 98 90 86 89 89 85 80 80 84 81 84 92 91 87 69 58 62 58 54 50 45 48 60 58 60 60 61 78 72 57 58 60
43 40 34 30 29 30 30 30 28 25 27 54 93 88 86 86 86 80 77 81 88 84 86 92 90 80 60 59 61 56 63 54 53 60 62 60 61 60 60 65 72 65 63
56 53 49 43 40 36 34 32 33 32 28 27 44 80 91 87 86 84 80 78 87 87 84 89 88 86 65 54 56 56 62 65 58 56 61 58 60 60 58 56 65 93 95
56 54 52 53 52 51 48 41 38 34 32 31 27 42 76 99 99 93 84 78 78 82 85 88 90 90 76 65 61 51 55 65 64 62 60 59 56 57 56 54 54 58 77
63 62 57 54 53 56 57 52 46 42 38 36 31 27 41 67 96 97 94 83 70 74 76 86 86 91 84 78 72 66 50 62 64 61 58 58 56 56 55 55 53 54 56
68 69 69 67 66 56 54 59 54 50 44 40 38 34 30 41 62 85 95 89 73 73 77 79 90 88 89 86 78 70 64 58 61 62 58 56 53 52 53 53 52 51 54
77 78 78 77 76 76 71 58 60 57 49 44 41 38 32 35 42 61 83 94 86 75 76 81 79 89 88 83 78 74 66 59 59 61 59 55 53 50 49 49 48 49 51
73 75 78 82 80 82 81 76 72 66 53 48 43 39 36 33 40 66 74 94 91 90 80 79 85 97 99 84 77 70 68 63 62 59 56 55 55 53 51 50 48 48 50
67 71 79 85 87 90 86 79 77 73 58 50 45 40 39 34 33 37 68 74 82 93 97 99 99 98 100 98 84 89 94 77 71 62 61 60 58 56 53 51 50 49 51
72 80 87 90 92 95 88 82 79 75 69 55 49 42 40 38 36 42 64 75 88 91 100 100 99 100 93 100 94 85 99 93 83 71 79 71 67 64 61 60 56 54 52
81 89 92 95 98 96 90 81 74 80 74 58 52 47 44 44 63 58 66 66 77 91 100 100 99 100 99 97 100 98 86 83 93 86 75 77 76 82 78 74 69 65 59
88 92 98 100 100 91 96 82 81 86 67 59 55 52 48 46 55 72 67 68 67 85 94 97 99 97 95 90 97 97 100 99 94 94 95 92 78 73 74 62 62 60 57
92 96 98 100 100 94 87 84 83 80 66 62 57 56 53 51 60 69 67 73 77 76 87 98 99 93 90 100 92 95 92 92 96 97 96 90 92 84 82 78 71 66 62

GFSSE_925_rhum_129.txt.gz
RH
79 82 79 81 82 80 83 86 89 82 75 73 73 64 59 66 77 91 92 89 89 84 85 84 92 93 94 90 87 97 87 87 86 88 92 91 96 92 95 92 84 89 93
82 76 76 79 80 83 85 87 92 92 83 99 84 64 56 67 76 88 90 90 92 84 88 93 96 93 96 90 93 92 56 64 88 87 84 92 87 96 98 88 86 93 94
85 67 66 78 77 80 83 85 86 90 92 98 99 76 67 84 95 96 90 91 96 96 92 92 94 96 87 68 81 82 63 49 79 78 71 72 77 95 97 96 95 94 94
85 69 65 79 78 80 82 84 87 84 85 89 91 83 72 85 95 96 95 93 95 92 97 94 90 86 82 65 82 94 90 88 64 69 84 94 95 92 95 97 93 94 93
75 78 76 82 83 81 80 83 84 84 84 86 92 87 73 76 90 92 93 91 92 91 92 88 74 70 70 66 87 90 90 88 86 85 89 90 91 95 95 93 91 93 76
70 79 87 86 84 84 80 81 83 82 83 85 88 89 85 67 72 94 88 82 80 90 86 75 56 61 56 67 88 82 80 81 86 86 79 76 72 80 74 58 68 88 92
67 64 83 88 86 86 80 81 79 81 83 84 87 87 88 82 70 69 91 87 80 86 87 81 64 54 52 65 84 75 70 69 79 86 76 71 63 80 87 73 69 76 82
42 53 67 88 88 87 86 80 81 78 79 82 84 86 87 86 84 70 76 87 84 84 91 88 77 46 53 56 80 75 69 67 70 73 72 67 58 79 90 68 64 70 72
22 22 29 52 88 91 88 87 83 82 80 81 84 84 86 87 86 81 62 85 87 85 84 81 70 62 47 52 63 71 71 65 66 68 67 65 54 79 90 62 62 66 68
18 17 18 21 34 68 85 88 90 83 80 80 83 83 86 86 85 82 76 64 89 89 86 74 69 57 43 47 49 57 66 63 62 67 67 66 65 86 90 67 69 74 66
16 17 18 17 19 22 41 75 89 89 86 86 84 83 87 88 87 86 78 62 81 88 90 84 71 60 42 43 43 43 45 54 59 62 66 67 64 86 91 68 65 68 66
21 22 23 23 22 20 20 25 47 77 88 85 87 86 85 86 87 86 79 74 84 88 90 89 83 70 55 48 52 54 51 40 52 59 63 65 68 90 92 75 62 68 70
30 29 28 29 29 27 24 22 19 26 50 87 83 87 87 86 85 88 84 81 80 88 96 94 92 86 65 53 55 56 54 46 39 59 62 61 67 85 92 94 70 67 70
49 46 41 35 32 30 30 30 28 25 23 31 81 93 94 91 87 89 87 83 82 81 94 97 95 92 80 58 56 56 53 50 41 55 60 60 64 68 90 93 92 70 72
53 52 50 50 47 41 37 36 35 30 28 25 25 54 95 100 98 90 87 86 80 83 85 92 96 95 90 74 58 59 57 53 50 46 53 59 59 62 71 84 94 96 95
57 55 52 49 50 50 51 50 45 40 38 34 31 27 35 75 99 99 94 89 85 79 84 85 88 93 94 88 66 56 56 54 54 50 50 61 63 60 62 67 79 92 94
65 64 58 57 54 50 49 50 52 52 48 44 40 34 32 32 60 98 100 100 90 85 82 88 87 90 96 96 85 64 54 52 56 65 58 53 62 60 61 62 64 63 71
70 71 69 68 65 62 60 58 54 52 54 51 47 43 38 34 33 53 100 98 98 97 92 96 94 98 98 98 93 81 65 55 47 54 65 60 61 61 59 59 60 58 59
62 66 68 71 76 74 72 70 67 63 55 57 55 49 44 39 37 37 57 84 98 100 100 100 100 100 100 100 97 92 82 78 64 48 61 64 63 60 58 57 56 56 56
64 67 70 73 77 79 82 81 77 72 67 58 59 54 48 44 41 37 46 68 68 96 100 100 100 100 99 96 96 92 89 84 71 64 50 63 62 59 57 56 54 53 55
67 72 78 82 84 88 91 94 90 82 78 73 66 56 51 47 42 40 39 71 83 90 98 100 100 100 100 100 98 95 88 82 81 73 63 59 63 63 60 55 52 50 50
73 80 86 87 89 93 95 93 96 89 82 71 71 61 51 46 43 41 42 57 72 84 85 98 100 100 99 100 94 91 92 86 83 77 71 67 61 63 58 56 55 53 51
80 87 90 93 96 97 95 94 95 82 84 76 67 58 52 47 43 44 52 53 60 80 94 92 95 100 98 97 100 90 97 88 83 77 75 69 70 65 64 63 58 56 53
84 90 95 98 99 100 96 98 98 86 84 83 73 63 57 53 52 48 47 70 73 69 71 86 89 96 100 97 100 100 98 100 96 94 85 89 85 79 72 75 73 69 68
86 93 96 97 100 99 100 100 92 93 95 79 69 65 59 56 54 52 64 83 80 75 73 80 83 93 94 98 96 93 99 94 100 97 93 95 90 88 84 79 74 72 71
85 92 94 95 100 99 99 100 100 100 96 85 80 74 69 67 67 74 80 80 77 74 72 71 76 90 94 94 95 96 97 96 94 96 95 95 90 83 73 67 69 68 78

GFSSE_925_rhum_132.txt.gz
RH
79 77 80 86 83 80 78 85 88 80 79 78 81 82 80 75 83 90 93 91 86 86 83 85 94 93 96 89 94 91 93 86 87 81 85 95 93 94 96 84 80 92 93
88 77 75 83 81 83 79 84 82 74 77 91 75 67 65 82 88 93 89 90 88 88 86 95 95 97 96 85 92 84 93 75 84 87 91 85 85 95 97 82 77 91 93
82 72 68 75 79 80 80 85 88 84 86 99 79 63 57 70 84 87 88 92 95 91 90 96 93 94 95 88 85 63 67 78 82 78 82 78 90 100 96 90 93 94 92
78 76 69 71 81 81 79 81 84 85 89 91 88 76 67 76 87 82 83 88 98 94 94 87 84 89 78 73 84 86 65 58 74 64 68 86 93 92 94 97 94 93 93
68 70 74 82 85 83 80 81 82 82 84 88 91 83 74 71 88 90 86 89 92 92 95 87 72 77 80 73 89 92 87 78 65 78 87 91 93 91 94 88 89 77 71
62 70 89 87 87 87 82 83 83 83 83 84 88 91 86 70 88 89 86 78 80 88 92 85 62 69 71 80 91 90 86 84 83 86 83 81 75 81 76 50 60 88 96
54 65 72 90 88 88 86 82 83 82 85 86 86 89 88 84 68 81 92 84 78 82 90 82 70 56 62 76 93 83 78 79 85 84 76 70 64 67 70 61 81 96 96
27 36 54 69 90 89 87 86 83 82 82 83 84 87 89 89 86 77 68 86 85 81 87 86 78 51 54 64 90 80 73 70 78 87 80 73 66 85 89 85 81 84 80
16 16 19 30 56 78 88 90 88 83 82 82 83 85 86 87 88 87 79 69 88 86 83 85 83 69 50 54 84 79 74 67 72 77 74 69 64 86 91 90 76 79 80
16 17 17 18 19 25 41 72 92 93 83 84 84 85 86 88 89 88 86 78 71 90 87 85 75 68 56 51 58 78 74 70 65 69 71 67 66 84 90 94 79 80 83
22 26 26 24 22 20 20 24 50 79 93 90 83 81 84 87 86 88 88 84 76 75 91 89 84 70 56 45 51 57 64 68 65 62 65 65 67 78 89 95 86 88 90
29 28 31 29 29 27 25 24 22 24 40 66 90 89 86 82 85 85 86 86 82 71 87 92 91 85 73 58 45 49 52 50 54 59 58 61 66 72 91 95 95 85 88
51 44 41 39 37 35 31 29 28 27 24 24 41 82 94 90 88 85 88 88 84 81 86 92 95 95 88 77 54 52 56 53 47 42 54 59 64 67 93 95 97 89 90
52 50 48 46 46 44 43 40 37 35 32 30 29 27 47 100 96 93 90 91 89 86 85 86 92 95 92 89 76 52 57 59 54 44 40 58 62 62 84 93 96 96 95
55 51 47 46 44 44 45 46 45 44 42 39 36 35 33 34 79 99 96 92 90 89 89 90 91 94 95 94 90 76 54 58 57 53 42 49 61 61 64 88 92 96 96
55 52 50 48 48 48 46 44 44 44 45 46 44 41 40 37 36 45 94 100 98 90 89 89 96 100 100 96 93 90 76 56 57 55 52 45 54 57 61 62 86 92 94
58 57 56 57 58 59 59 58 56 50 48 46 47 46 45 44 40 36 46 73 98 100 98 98 98 100 100 100 98 93 90 78 56 54 53 51 47 49 63 62 64 73 85
59 63 65 68 67 68 70 69 67 63 63 55 48 50 52 49 47 43 39 51 72 99 100 100 99 98 100 99 100 100 95 91 81 57 52 54 60 52 57 62 62 64 66
62 68 72 74 77 82 82 79 77 74 72 68 63 53 52 54 50 46 44 42 46 70 82 98 100 100 100 99 100 100 100 99 92 82 65 54 50 63 60 58 61 61 61
66 72 76 80 84 89 90 88 82 80 79 77 73 70 64 59 52 49 46 43 41 64 86 65 90 100 100 100 100 100 100 99 100 95 85 74 68 48 59 62 61 61 59
69 76 81 84 86 92 96 97 96 97 87 73 69 64 66 58 52 49 48 44 43 52 85 85 84 95 100 100 100 100 100 99 99 96 92 84 77 67 48 62 63 60 59
75 81 86 89 90 96 98 99 99 98 86 76 76 75 67 60 54 51 48 46 48 54 73 75 88 95 97 100 96 99 96 90 98 93 90 87 83 75 67 54 63 62 60
77 85 91 94 93 97 100 97 97 94 84 86 89 77 66 63 59 62 61 65 68 73 83 85 86 94 97 86 97 97 97 92 85 82 90 89 86 81 77 67 60 63 63
78 84 91 94 97 98 97 99 100 100 97 95 91 76 66 63 63 64 69 69 72 80 81 81 74 76 83 92 88 98 99 98 95 91 96 94 89 87 88 86 74 76 66
77 84 89 92 94 91 99 98 99 100 100 98 96 85 72 69 77 82 82 85 91 92 87 81 77 78 84 98 95 89 85 90 98 98 93 92 98 96 92 88 98 96 92
73 79 85 90 92 91 99 98 99 99 99 99 99 99 99 99 100 99 99 100 98 92 88 85 82 79 79 79 98 92 96 89 81 90 97 88 83 83 91 96 99 97 98